[[{"header":{"parameterUnit":"m.s-1","parameterCategory":1,"la1":31.0,"la2":29.5877,"lo1":-88.7671,"lo2":-86.6584,"dx":0.0162,"dy":0.0185,"nx":115,"ny":88,"refTime":"2023-01-30T18:00:00:Z","depth":0,"parameterNumber":2,"parameterNumberName":"U-component_of_WINDS"},"data":[0.0,0.0,0.0,0.0,0.0,0.0,0.0,0.0,0.0,0.0,0.0,0.0,0.0,0.0,0.0,0.0,0.0,0.0,0.0,0.0,0.0,0.0,0.0,0.0,0.0,0.0,0.0,0.0,0.0,0.0,0.0,0.0,0.0,0.0,0.0,0.0,0.0,0.0,0.0,0.0,0.0,0.0,0.0,0.0,0.0,0.0,0.0,0.0,0.0,0.0,0.0,0.0,0.0,0.0,0.0,0.0,0.0,0.0,0.0,0.0,0.0,0.0,0.0,0.0,0.0,0.0,0.0,0.0,0.0,0.0,0.0,0.0,0.0,0.0,0.0,0.0,0.0,0.0,0.0,0.0,0.0,0.0,0.0,0.0,0.0,0.0,0.0,0.0,0.0,0.0,0.0,0.0,0.0,0.0,0.0,0.0,0.0,0.0,0.0,0.0,0.0,0.0,0.0,0.0,0.0,0.0,0.0,0.0,0.0,0.0,0.0,0.0,0.0,0.0,0.0,0.0,0.0,0.0,0.0,0.0,0.0,0.0,0.0,0.0,0.0,0.0,0.0,0.0,0.0,0.0,0.0,0.0,0.0,0.0,0.0,0.0,0.0,0.0,0.0,0.0,0.0,0.0,0.0,0.0,0.0,0.0,0.0,0.0,0.0,0.0,0.0,0.0,0.0,0.0,0.0,0.0,0.0,0.0,0.0,0.0,0.0,0.0,0.0,0.0,0.0,0.0,0.0,0.0,0.0,0.0,0.0,0.0,0.0,0.0,0.0,0.0,0.0,0.0,0.0,0.0,0.0,0.0,0.0,0.0,0.0,0.0,0.0,0.0,0.0,0.0,0.0,0.0,0.0,0.0,0.0,0.0,0.0,0.0,0.0,0.0,0.0,0.0,0.0,0.0,0.0,0.0,0.0,0.0,0.0,0.0,0.0,0.0,0.0,0.0,0.0,0.0,0.0,0.0,0.0,0.0,0.0,0.0,0.0,0.0,0.0,0.0,0.0,0.0,0.0,0.0,0.0,0.0,0.0,0.0,0.0,0.0,0.0,0.0,0.0,0.0,0.0,0.0,0.0,0.0,0.0,0.0,0.0,0.0,0.0,0.0,0.0,0.0,0.0,0.0,0.0,0.0,0.0,0.0,0.0,0.0,0.0,0.0,0.0,0.0,0.0,0.0,0.0,0.0,0.0,0.0,0.0,0.0,0.0,0.0,0.0,0.0,0.0,0.0,0.0,0.0,0.0,0.0,0.0,0.0,0.0,0.0,0.0,0.0,0.0,0.0,0.0,0.0,0.0,0.0,0.0,0.0,0.0,0.0,0.0,0.0,0.0,0.0,0.0,0.0,0.0,0.0,0.0,0.0,0.0,0.0,0.0,0.0,0.0,0.0,0.0,0.0,0.0,0.0,0.0,0.0,0.0,0.0,0.0,0.0,0.0,0.0,0.0,0.0,0.0,0.0,0.0,0.0,0.0,0.0,0.0,0.0,0.0,0.0,0.0,0.0,0.0,0.0,0.0,0.0,0.0,0.0,0.0,0.0,0.0,0.0,0.0,0.0,0.0,0.0,0.0,0.0,0.0,0.0,0.0,0.0,0.0,0.0,0.0,0.0,0.0,0.0,0.0,0.0,0.0,0.0,0.0,0.0,0.0,0.0,0.0,0.0,0.0,0.0,0.0,0.0,0.0,0.0,0.0,0.0,0.0,0.0,0.0,0.0,0.0,0.0,0.0,0.0,0.0,0.0,0.0,0.0,0.0,0.0,0.0,0.0,0.0,0.0,0.0,0.0,0.0,0.0,0.0,0.0,0.0,0.0,0.0,0.0,0.0,0.0,0.0,0.0,0.0,0.0,0.0,0.0,0.0,0.0,0.0,0.0,0.0,0.0,0.0,0.0,0.0,0.0,0.0,0.0,0.0,0.0,0.0,0.0,0.0,0.0,0.0,0.0,0.0,0.0,0.0,0.0,0.0,0.0,0.0,0.0,0.0,0.0,0.0,0.0,0.0,0.0,0.0,0.0,0.0,0.0,0.0,0.0,0.0,0.0,0.0,0.0,0.0,0.0,0.0,0.0,0.0,0.0,0.0,0.0,0.0,0.0,0.0,0.0,0.0,0.0,0.0,0.0,0.0,0.0,0.0,0.0,0.0,0.0,0.0,0.0,0.0,0.0,0.0,0.0,0.0,0.0,0.0,0.0,0.0,0.0,0.0,0.0,0.0,0.0,0.0,0.0,0.0,0.0,0.0,0.0,0.0,0.0,0.0,0.0,0.0,0.0,0.0,0.0,0.0,0.0,0.0,0.0,0.0,0.0,0.0,0.0,0.0,0.0,0.0,0.0,0.0,0.0,0.0,0.0,0.0,0.0,0.0,0.0,0.0,0.0,0.0,0.0,0.0,0.0,0.0,0.0,0.0,0.0,0.0,0.0,0.0,0.0,0.0,0.0,0.0,0.0,0.0,0.0,0.0,0.0,0.0,0.0,0.0,0.0,0.0,0.0,0.0,0.0,0.0,0.0,0.0,0.0,0.0,0.0,0.0,0.0,0.0,0.0,0.0,0.0,0.0,0.0,0.0,0.0,0.0,0.0,0.0,0.0,0.0,0.0,0.0,0.0,0.0,0.0,0.0,0.0,0.0,0.0,0.0,0.0,0.0,0.0,0.0,0.0,0.0,0.0,0.0,0.0,0.0,0.0,0.0,0.0,0.0,0.0,0.0,0.0,0.0,0.0,0.0,0.0,0.0,0.0,0.0,0.0,0.0,0.0,0.0,0.0,0.0,0.0,0.0,0.0,0.0,0.0,0.0,0.0,0.0,0.0,0.0,0.0,0.0,0.0,0.0,0.0,0.0,0.0,0.0,0.0,0.0,0.0,0.0,0.0,0.0,0.0,0.0,0.0,0.0,0.0,0.0,0.0,0.0,0.0,0.0,0.0,0.0,0.0,0.0,0.0,0.0,0.0,0.0,0.0,0.0,0.0,0.0,0.0,0.0,0.0,0.0,0.0,0.0,0.0,0.0,0.0,0.0,0.0,0.0,0.0,0.0,0.0,0.0,0.0,0.0,0.0,0.0,0.0,0.0,0.0,0.0,0.0,0.0,0.0,0.0,0.0,0.0,0.0,0.0,0.0,0.0,0.0,0.0,0.0,0.0,0.0,0.0,0.0,0.0,0.0,0.0,0.0,0.0,0.0,0.0,0.0,0.0,0.0,0.0,0.0,0.0,0.0,0.0,0.0,0.0,0.0,0.0,0.0,0.0,0.0,0.0,0.0,0.0,0.0,0.0,0.0,0.0,0.0,0.0,0.0,0.0,0.0,0.0,0.0,0.0,0.0,0.0,0.0,0.0,0.0,0.0,0.0,0.0,0.0,0.0,0.0,0.0,0.0,0.0,0.0,0.0,0.0,0.0,0.0,0.0,0.0,0.0,0.0,0.0,0.0,0.0,0.0,0.0,0.0,0.0,0.0,0.0,0.0,0.0,0.0,0.0,0.0,0.0,0.0,0.0,0.0,0.0,0.0,0.0,0.0,0.0,0.0,0.0,0.0,0.0,0.0,0.0,0.0,0.0,0.0,0.0,0.0,0.0,0.0,0.0,0.0,0.0,0.0,0.0,0.0,0.0,0.0,0.0,0.0,0.0,0.0,0.0,0.0,0.0,0.0,0.0,0.0,0.0,0.0,0.0,0.0,0.0,0.0,0.0,0.0,0.0,0.0,0.0,0.0,0.0,0.0,0.0,0.0,0.0,0.0,0.0,0.0,0.0,0.0,0.0,0.0,0.0,0.0,0.0,0.0,0.0,0.0,0.0,0.0,0.0,0.0,0.0,0.0,0.0,0.0,0.0,0.0,0.0,0.0,0.0,0.0,0.0,0.0,0.0,0.0,0.0,0.0,0.0,0.0,0.0,0.0,0.0,0.0,0.0,0.0,0.0,0.0,0.0,0.0,0.0,0.0,0.0,0.0,0.0,0.0,0.0,0.0,0.0,0.0,0.0,0.0,0.0,0.0,0.0,0.0,0.0,0.0,0.0,0.0,0.0,0.0,0.0,0.0,0.0,0.0,0.0,0.0,0.0,0.0,0.0,0.0,0.0,0.0,0.0,0.0,0.0,0.0,0.0,0.0,0.0,0.0,0.0,0.0,0.0,0.0,0.0,0.0,0.0,0.0,0.0,0.0,0.0,0.0,0.0,0.0,0.0,0.0,0.0,0.0,0.0,0.0,0.0,0.0,0.0,0.0,0.0,0.0,0.0,0.0,0.0,0.0,0.0,0.0,0.0,0.0,-0.3841,0.0,0.0,0.0,0.0,0.0,0.0,0.0,0.0,0.0,0.0,0.0,0.0,0.0,0.0,0.0,0.0,0.0,0.0,0.0,0.0,0.0,0.0,0.0,0.0,0.0,0.0,0.0,0.0,0.0,0.0,0.0,0.0,0.0,0.0,0.0,0.0,0.0,0.0,0.0,0.0,0.0,0.0,0.0,0.0,0.0,0.0,0.0,0.0,0.0,0.0,0.0,0.0,0.0,0.0,0.0,0.0,0.0,0.0,0.0,0.0,0.0,0.0,0.0,0.0,0.0,0.0,0.0,0.0,0.0,0.0,0.0,0.0,0.0,0.0,0.0,0.0,0.0,0.0,0.0,0.0,0.0,0.0,0.0,0.0,0.0,0.0,0.0,0.0,0.0,0.0,0.0,0.0,0.0,0.0,0.0,0.0,0.0,0.0,0.0,0.0,0.0,0.0,0.0,0.0,0.0,0.0,0.0,0.0,0.0,0.0,-0.3203,-0.3046,-0.3317,-0.3486,-0.3473,0.0,0.0,0.0,0.0,0.0,0.0,0.0,0.0,0.0,0.0,0.0,0.0,0.0,0.0,0.0,0.0,0.0,0.0,0.0,0.0,0.0,0.0,0.0,0.0,0.0,0.0,0.0,0.0,0.0,0.0,0.0,0.0,0.0,0.0,0.0,0.0,0.0,0.0,0.0,0.0,0.0,0.0,0.0,0.0,0.0,0.0,0.0,0.0,0.0,0.0,0.0,0.0,0.0,0.0,0.0,0.0,0.0,0.0,0.0,0.0,0.0,0.0,0.0,0.0,0.0,0.0,0.0,0.0,0.0,0.0,0.0,0.0,0.0,0.0,0.0,0.0,0.0,0.0,0.0,0.0,0.0,0.0,0.0,0.0,0.0,0.0,0.0,0.0,0.0,0.0,0.0,0.0,0.0,0.0,0.0,0.0,0.0,0.0,0.0,0.0,0.0,0.0,0.0,0.0,0.0,0.0,0.0,0.0,0.0,0.0,0.0,0.0,-0.3811,-0.3893,-0.3857,0.0,0.0,0.0,0.0,0.0,0.0,0.0,0.0,0.0,0.0,0.0,0.0,0.0,0.0,0.0,0.0,0.0,0.0,0.0,0.0,0.0,0.0,0.0,0.0,0.0,0.0,0.0,0.0,0.0,0.0,0.0,0.0,0.0,0.0,0.0,0.0,0.0,0.0,0.0,0.0,0.0,0.0,0.0,0.0,0.0,0.0,0.0,0.0,0.0,0.0,0.0,0.0,0.0,0.0,0.0,0.0,0.0,0.0,0.0,0.0,0.0,0.0,0.0,0.0,0.0,0.0,0.0,0.0,0.0,0.0,0.0,0.0,0.0,0.0,0.0,0.0,0.0,0.0,0.0,0.0,0.0,0.0,0.0,0.0,0.0,0.0,0.0,0.0,0.0,0.0,0.0,0.0,0.0,0.0,0.0,0.0,0.0,0.0,0.0,0.0,0.0,0.0,0.0,0.0,0.0,0.0,0.0,0.0,0.0,0.0,-0.3341,-0.4276,-0.4491,0.0,-0.569,0.0,0.0,0.0,0.0,0.0,0.0,0.0,0.0,0.0,0.0,0.0,0.0,0.0,0.0,0.0,0.0,0.0,0.0,0.0,0.0,0.0,0.0,0.0,0.0,0.0,0.0,0.0,0.0,0.0,0.0,0.0,0.0,0.0,0.0,0.0,0.0,0.0,0.0,0.0,0.0,0.0,0.0,0.0,0.0,0.0,0.0,0.0,0.0,0.0,0.0,0.0,0.0,0.0,0.0,0.0,0.0,0.0,0.0,0.0,0.0,0.0,0.0,0.0,0.0,0.0,0.0,0.0,0.0,0.0,0.0,0.0,0.0,0.0,0.0,0.0,0.0,0.0,0.0,0.0,0.0,0.0,0.0,0.0,0.0,0.0,0.0,0.0,0.0,0.0,0.0,0.0,0.0,0.0,0.0,0.0,0.0,0.0,0.0,0.0,0.0,0.0,0.0,0.0,0.0,0.0,0.0,0.0,0.0,0.0,0.0,-0.288,-0.3805,-0.378,-0.4159,0.0,0.0,0.0,0.0,0.0,0.0,0.0,0.0,0.0,0.0,0.0,0.0,0.0,0.0,0.0,0.0,0.0,0.0,0.0,0.0,0.0,0.0,0.0,0.0,0.0,0.0,0.0,0.0,0.0,0.0,0.0,0.0,0.0,0.0,0.0,0.0,0.0,0.0,0.0,0.0,0.0,0.0,0.0,0.0,0.0,0.0,0.0,0.0,0.0,0.0,0.0,0.0,0.0,0.0,0.0,0.0,0.0,0.0,0.0,0.0,0.0,0.0,0.0,0.0,0.0,0.0,0.0,0.0,0.0,0.0,0.0,0.0,0.0,0.0,0.0,0.0,0.0,0.0,0.0,0.0,0.0,0.0,0.0,0.0,0.0,0.0,0.0,0.0,0.0,0.0,0.0,0.0,0.0,0.0,0.0,0.0,0.0,0.0,0.0,0.0,0.0,0.0,0.0,0.0,0.0,0.0,0.0,0.0,0.0,0.0,-0.2077,-0.2366,-0.3479,-0.3334,-0.3703,-0.4786,0.0,0.0,0.0,0.0,0.0,0.0,0.0,0.0,0.0,0.0,0.0,0.0,0.0,0.0,0.0,0.0,0.0,0.0,0.0,0.0,0.0,0.0,0.0,0.0,0.0,0.0,0.0,0.0,0.0,0.0,0.0,0.0,0.0,0.0,0.0,0.0,0.0,0.0,0.0,0.0,0.0,0.0,0.0,0.0,0.0,0.0,0.0,0.0,0.0,0.0,0.0,0.0,0.0,0.0,0.0,0.0,0.0,0.0,0.0,0.0,0.0,0.0,0.0,0.0,0.0,0.0,0.0,0.0,0.0,0.0,0.0,0.0,0.0,0.0,0.0,0.0,0.0,0.0,0.0,0.0,0.0,0.0,0.0,0.0,0.0,0.0,0.0,0.0,0.0,0.0,0.0,0.0,0.0,0.0,0.0,0.0,0.0,0.0,0.0,0.0,0.0,0.0,0.0,0.0,0.0,0.0,0.0,0.0,-0.1967,-0.1289,-0.1862,-0.38,-0.3625,-0.4304,0.0,0.0,0.0,0.0,0.0,0.0,0.0,0.0,0.0,0.0,0.0,0.0,0.0,0.0,0.0,0.0,0.0,0.0,0.0,0.0,0.0,0.0,0.0,0.0,0.0,0.0,0.0,0.0,0.0,0.0,0.0,0.0,0.0,0.0,0.0,0.0,0.0,0.0,0.0,0.0,0.0,0.0,0.0,0.0,0.0,0.0,0.0,0.0,0.0,0.0,0.0,0.0,0.0,0.0,0.0,0.0,0.0,0.0,0.0,0.0,0.0,0.0,0.0,0.0,0.0,0.0,0.0,0.0,0.0,0.0,0.0,0.0,0.0,0.0,0.0,0.0,0.0,0.0,0.0,0.0,0.0,0.0,0.0,0.0,0.0,0.0,0.0,0.0,0.0,0.0,0.0,0.0,0.0,0.0,0.0,0.0,0.0,0.0,0.0,0.0,0.0,0.0,0.0,0.0,0.0,0.0,0.0,0.0,0.0,-0.0727,-0.1148,-0.1475,-0.1684,-0.3089,-0.4156,0.0,0.0,0.0,0.0,0.0,0.0,0.0,0.0,0.0,0.0,0.0,0.0,0.0,0.0,0.0,0.0,0.0,0.0,0.0,0.0,0.0,0.0,0.0,0.0,0.0,0.0,0.0,0.0,0.0,0.0,0.0,0.0,0.0,0.0,0.0,0.0,0.0,0.0,0.0,0.0,0.0,0.0,0.0,0.0,0.0,0.0,0.0,0.0,0.0,0.0,0.0,0.0,0.0,0.0,0.0,0.0,0.0,0.0,0.0,0.0,0.0,0.0,0.0,0.0,0.0,0.0,0.0,0.0,0.0,0.0,0.0,0.0,0.0,0.0,0.0,0.0,0.0,0.0,0.0,0.0,0.0,0.0,0.0,0.0,0.0,0.0,0.0,0.0,0.0,0.0,0.0,0.0,0.0,0.0,0.0,0.0,0.0,0.0,0.0,0.0,0.0,0.0,0.0,0.0,0.0,0.0,0.0,0.0,0.0,0.0321,0.0,-0.1138,-0.1132,-0.304,-0.4112,0.0,0.0,0.0,0.0,0.0,0.0,0.0,0.0,0.0,0.0,0.0,0.0,0.0,0.0,0.0,0.0,0.0,0.0,0.0,0.0,0.0,0.0,0.0,0.0,0.0,0.0,0.0,0.0,0.0,0.0,0.0,0.0,0.0,0.0,0.0,0.0,0.0,0.0,0.0,0.0,0.0,0.0,0.0,0.0,0.0,0.0,0.0,0.0,0.0,0.0,0.0,0.0,0.0,0.0,0.0,0.0,0.0,0.0,0.0,0.0,0.0,0.0,0.0,0.0,0.0,0.0,0.0,0.0,0.0,0.0,0.0,0.0,0.0,0.0,0.0,0.0,0.0,0.0,0.0,0.0,0.0,0.0,0.0,0.0,0.0,0.0,0.0,0.0,0.0,0.0,0.0,0.0,0.0,0.0,0.0,0.0,0.0,0.0,0.0,0.0,0.0,0.0,0.0,0.0,0.0,0.0,0.0,0.0,0.1204,0.1026,0.0403,-0.0779,-0.253,-0.361,-0.4297,0.0,0.0,0.0,0.0,0.0,0.0,0.0,0.0,0.0,0.0,0.0,0.0,0.0,0.0,0.0,0.0,0.0,0.0,0.0,0.0,0.0,0.0,0.0,0.0,0.0,0.0,0.0,0.0,0.0,0.0,0.0,0.0,0.0,0.0,0.0,0.0,0.0,0.0,0.0,0.0,0.0,0.0,0.0,0.0,0.0,0.0,0.0,0.0,0.0,0.0,0.0,0.0,0.0,0.0,0.0,0.0,0.0,0.0,0.0,0.0,0.0,0.0,0.0,0.0,0.0,0.0,0.0,0.0,0.0,0.0,0.0,0.0,0.0,0.0,0.0,0.0,0.0,0.0,0.0,0.0,0.0,0.0,0.0,0.0,0.0,0.0,0.0,0.0,0.0,0.0,0.0,0.0,0.0,0.0,0.0,0.0,0.0,0.0,0.0,0.0,0.0,0.0,0.0,0.0,0.0,0.0,0.0,0.0,0.0,0.2084,0.0847,-0.0808,-0.2772,-0.3635,-0.4414,0.0,0.0,0.0,0.0,0.0,0.0,0.0,0.0,0.0,0.0,0.0,0.0,0.0,0.0,0.0,0.0,0.0,0.0,0.0,0.0,0.0,0.0,0.0,0.0,0.0,0.0,0.0,0.0,0.0,0.0,0.0,0.0,0.0,0.0,0.0,0.0,0.0,0.0,0.0,0.0,0.0,0.0,0.0,0.0,0.0,0.0,0.0,0.0,0.0,0.0,0.0,0.0,0.0,0.0,0.0,0.0,0.0,0.0,0.0,0.0,0.0,0.0,0.0,0.0,0.0,0.0,0.0,0.0,0.0,0.0,0.0,0.0,0.0,0.0,0.0,0.0,0.0,0.0,0.0,0.0,0.0,0.0,0.0,0.0,0.0,0.0,0.0,0.0,0.0,0.0,0.0,0.0,0.0,0.0,0.0,0.0,0.0,0.0,0.0,0.0,0.0,0.0,0.0,0.0,0.0,0.0,0.0,0.0,0.0,0.205,0.0456,-0.1199,-0.2843,-0.3012,-0.3542,-0.4525,0.0,0.0,0.0,0.0,0.0,0.0,0.0,0.0,0.0,0.0,0.0,0.0,0.0,0.0,0.0,0.0,0.0,0.0,0.0,0.0,0.0,0.0,0.0,0.0,0.0,0.0,0.0,0.0,0.0,0.0,0.0,0.0,0.0,0.0,0.0,0.0,0.0,0.0,0.0,0.0,0.0,0.0,0.0,0.0,0.0,0.0,0.0,0.0,0.0,0.0,0.0,0.0,0.0,0.0,0.0,0.0,0.0,0.0,0.0,0.0,0.0,0.0,0.0,0.0,0.0,0.0,0.0,0.0,0.0,0.0,0.0,0.0,0.0,0.0,0.0,0.0,0.0,0.0,0.0,0.0,0.0,0.0,0.0,0.0,0.0,0.0,0.0,0.0,0.0,0.0,0.0,0.0,0.0,0.0,0.0,0.0,0.0,0.0,0.0,0.0,0.0,0.0,0.0,0.0,0.0,0.0,0.0,0.0,0.1202,-0.0498,-0.1783,-0.2662,-0.19,-0.197,0.0,0.0,0.0,0.0,0.0,0.0,0.0,0.0,0.0,0.0,0.0,0.0,0.0,0.0,0.0,0.0,0.0,0.0,0.0,0.0,0.0,0.0,0.0,0.0,0.0,0.0,0.0,0.0,0.0,0.0,0.0,0.0,0.0,0.0,0.0,0.0,0.0,0.0,0.0,0.0,0.0,0.0,0.0,0.0,0.0,0.0,0.0,0.0,0.0,0.0,0.0,0.0,0.0,0.0,0.0,0.0,0.0,0.0,0.0,0.0,0.0,0.0,0.0,0.0,0.0,0.0,0.0,0.0,0.0,0.0,0.0,0.0,0.0,0.0,0.0,0.0,0.0,0.0,0.0,0.0,0.0,0.0,0.0,0.0,0.0,0.0,0.0,0.0,0.0,0.0,0.0,0.0,0.0,0.0,0.0,0.0,0.0,0.0,0.0,0.0,0.0,0.0,0.0,0.0,0.0,0.0,0.0,0.0,0.0,0.0917,-0.0316,-0.1497,-0.2543,-0.1377,-0.1587,0.0,0.0,0.0,0.0,0.0,0.0,0.0,0.0,0.0,0.0,0.0,0.0,0.0,0.0,0.0,0.0,0.0,0.0,0.0,0.0,0.0,0.0,0.0,0.0,0.0,0.0,0.0,0.0,0.0,0.0,0.0,0.0,0.0,0.0,0.0,0.0,0.0,0.0,0.0,0.0,0.0,0.0,0.0,0.0,0.0,0.0,0.0,0.0,0.0,0.0,0.0,0.0,0.0,0.0,0.0,0.0,0.0,0.0,0.0,0.0,0.0,0.0,0.0,0.0,0.0,0.0,0.0,0.0,0.0,0.0,0.0,0.0,0.0,0.0,0.0,0.0,0.0,0.0,0.0,0.0,0.0,0.0,0.0,0.0,0.0,0.0,0.0,0.0,0.0,0.0,0.0,0.0,0.0,0.0,0.0,0.0,0.0,0.0,0.0,0.0,0.0,0.0,0.0,0.0,0.0,0.0,0.0,0.0,0.2917,0.1476,0.147,0.0789,-0.0674,0.0446,-0.0006,0.0,0.0,0.0,0.0,0.0,0.0,0.0,0.0,0.0,0.0,0.0,0.0,0.0,0.0,0.0,0.0,0.0,0.0,0.0,0.0,0.0,0.0,0.0,0.0,0.0,0.0,0.0,0.0,0.0,0.0,0.0,0.0,0.0,0.0,0.0,0.0,0.0,0.0,0.0,0.0,0.0,0.0,0.0,0.0,0.0,0.0,0.0,0.0,0.0,0.0,0.0,0.0,0.0,0.0,0.0,0.0,0.0,0.0,0.0,0.0,0.0,0.0,0.0,0.0,0.0,0.0,0.0,0.0,0.0,0.0,0.0,0.0,0.0,0.0,0.0,0.0,0.0,0.0,0.0,0.0,0.0,0.0,0.0,0.0,0.0,0.0,0.0,0.0,0.0,0.0,0.0,0.0,0.0,0.0,0.0,0.0,0.0,0.0,0.0,0.0,0.0,0.0,0.0,0.0,0.0,0.0,0.0,0.0,0.4291,0.2643,0.3862,0.3834,0.2485,0.3012,0.2167,0.0,0.0,0.0,0.0,0.0,0.0,0.0,0.0,0.0,0.0,0.0,0.0,0.0,0.0,0.0,0.0,0.0,0.0,0.0,0.0,0.0,0.0,0.0,0.0,0.0,0.0,0.0,0.0,0.0,0.0,0.0,0.0,0.0,0.0,0.0,0.0,0.0,0.0,0.0,0.0,0.0,0.0,0.0,0.0,0.0,0.0,0.0,0.0,0.0,0.0,0.0,0.0,0.0,0.0,0.0,0.0,0.0,0.0,0.0,0.0,0.0,0.0,0.0,0.0,0.0,0.0,0.0,0.0,0.0,0.0,0.0,0.0,0.0,0.0,0.0,0.0,0.0,0.0,0.0,0.0,0.0,0.0,0.0,0.0,0.0,0.0,0.0,0.0,0.0,0.0,0.0,0.0,0.0,0.0,0.0,0.0,0.0,0.0,0.0,0.0,0.0,0.0,0.0,0.0,0.0,0.0,0.0,0.0,0.4097,0.4335,0.4207,0.4611,0.5593,0.5137,0.3469,0.0,0.0,0.0,0.0,0.0,0.0,0.0,0.0,0.0,0.0,0.0,0.0,0.0,0.0,0.0,0.0,0.0,0.0,0.0,0.0,0.0,0.0,0.0,0.0,0.0,0.0,0.0,0.0,0.0,0.0,0.0,0.0,0.0,0.0,0.0,0.0,0.0,0.0,0.0,0.0,0.0,0.0,0.0,0.0,0.0,0.0,0.0,0.0,-0.059,0.0,0.0,0.0,0.0,0.0,0.0,0.0,0.0,0.0,0.0,0.0,0.0,0.0,0.0,0.0,0.0,0.0,0.0,0.0,0.0,0.0,0.0,0.0,0.0,0.0,0.0,0.0,0.0,0.0,0.0,0.0,0.0,0.0,0.0,0.0,0.0,0.0,0.0,0.0,0.0,0.0,0.0,0.0,0.0,0.0,0.0,0.0,0.0,0.0,0.0,0.0,0.0,0.0,0.0,0.0,0.0,0.0,0.0,0.0,0.482,0.4695,0.5226,0.5461,0.5402,0.5567,0.47,0.0,0.0,0.0,0.0,0.0,0.0,0.0,0.0,0.0,0.0,0.0,0.0,0.0,0.0,0.0,0.0,0.0,0.0,0.0,0.0,0.0,0.0,0.0,0.0,0.0,0.0,0.0,0.0,0.0,0.0,0.0,0.0,0.0,0.0,0.0,0.0,0.0,0.0,0.0,0.0,0.0,0.0,0.0,0.0,0.0,0.0,0.0,0.0,0.0,0.0,0.0,0.0,0.0,0.0,0.0,0.0,0.0,0.0,0.0,0.0,0.0,0.0,0.0,0.0,0.0,0.0,0.0,0.0,0.0,0.0,0.0,0.0,0.0,0.0,0.0,0.0,0.0,0.0,0.0,0.0,0.0,0.0,0.0,0.0,0.0,0.0,0.0,0.0,0.0,0.0,0.0,0.0,0.0,0.0,0.0,0.0,0.0,0.0,0.0,0.0,0.0,0.0,0.0,0.0,0.0,0.0,0.0,0.6357,0.5761,0.479,0.6211,0.6208,0.4582,0.5457,0.5719,0.5122,0.0,0.0,0.0,0.0,0.0,0.0,0.0,0.0,0.0,0.0,0.0,0.0,0.0,0.0,0.0,0.0,0.0,0.0,0.0,0.0,0.0,0.0,0.0,0.0,0.0,0.0,0.0,0.0,0.0,0.0,0.0,0.0,0.0,0.0,0.0,0.0,0.0,0.0,-0.5487,-0.2616,0.0,0.0,0.0,0.0,0.0,0.0,0.0,0.0,0.235,0.0,0.0,0.0,0.0,0.0,0.0,0.0,0.0,0.0,0.0,0.0,0.0,0.0,0.0,0.0,0.0,0.0,0.0,0.0,0.0,0.0,0.0,0.0,0.0,0.0,0.0,0.0,0.0,0.0,0.0,0.0,0.0,0.0,0.0,0.0,0.0,0.0,0.0,0.0,0.0,0.0,0.0,0.0,0.0,0.0,0.0,0.0,0.0,0.0,0.0,0.0,0.0,0.0,0.0,0.0,0.0,0.6305,0.6175,0.6093,0.6001,0.6116,0.6341,0.6651,0.6228,0.6017,0.5961,0.0,0.0,0.0,0.0,0.0,0.0,0.0,0.0,0.0,0.0,0.0,0.0,0.0,0.0,0.0,0.0,0.0,0.0,0.0,0.0,0.0,0.0,0.0,0.0,0.0,0.0,0.0,0.0,0.0,0.0,0.0,0.0,0.0,0.0,0.0,0.0,0.0,0.0,0.0,-0.0441,0.0657,0.0,0.0,0.0,0.0,0.0,0.0,0.0,0.0,0.3249,0.0,0.0,0.0,0.0,0.0,0.0,0.0,0.0,0.0,0.0,0.0,0.0,0.0,0.0,0.0,0.0,0.0,0.0,0.0,0.0,0.0,0.0,0.0,0.0,0.0,0.0,0.0,0.0,0.0,0.0,0.0,0.0,0.0,0.0,0.0,0.0,0.0,0.0,0.0,0.0,0.0,0.0,0.0,0.0,0.0,0.0,0.0,0.0,0.0,0.0,0.0,0.0,0.0,0.0,0.0,0.646,0.5695,0.5396,0.5547,0.5366,0.5486,0.5919,0.5432,0.5047,0.0,0.0,0.0,0.0,0.0,0.0,0.0,0.0,0.0,0.0,0.0,0.0,0.0,0.0,0.0,0.0,0.0,0.0,0.0,0.0,0.0,0.0,0.0,0.0,0.0,0.0,0.0,0.0,0.0,0.0,0.0,0.0,0.0,0.0,0.0,0.0,0.0,0.0,0.0,0.0,0.1371,0.2713,0.3394,0.0,0.0,0.0,0.0,0.0,0.0,0.4274,0.4545,0.0,0.0,0.0,0.0,0.0,0.0,0.0,0.0,0.0,0.0,0.0,0.0,0.0,0.0,0.0,0.0,0.0,0.0,0.0,0.0,0.0,0.0,0.0,0.0,0.0,0.0,0.0,0.0,0.0,0.0,0.0,0.0,0.0,0.0,0.0,0.0,0.0,0.0,0.0,0.0,0.0,0.0,0.0,0.0,0.0,0.0,0.0,0.0,0.0,0.0,0.0,0.0,0.0,0.0,0.0,0.657,0.5479,0.4876,0.4841,0.4698,0.4678,0.482,0.4611,0.4204,0.0,0.0,0.0,0.0,0.0,0.0,0.0,0.0,0.0,0.0,0.0,0.0,0.0,0.0,0.0,0.0,0.0,0.0,0.0,0.0,0.0,0.0,0.0,0.0,0.0,0.0,0.0,0.0,0.0,0.0,0.0,0.0,0.0,0.0,0.0,0.0,0.0,0.0,0.0,0.0,0.0,0.4673,0.5125,0.5091,0.0,0.0,0.0,0.0,0.4596,0.5189,0.0,0.0,0.0,0.0,0.0,0.0,0.0,0.0,0.0,0.0,0.0,0.0,0.0,0.0,0.0,0.0,0.0,0.0,0.0,0.0,0.0,0.0,0.0,0.0,0.0,0.0,0.0,0.0,0.0,0.0,0.0,0.0,0.0,0.0,0.0,0.0,0.0,0.0,0.0,0.0,0.0,0.0,0.0,0.0,0.0,0.0,0.0,0.0,0.0,0.0,0.0,0.0,0.0,0.0,0.0,0.0,0.6418,0.6071,0.5515,0.4682,0.4673,0.4763,0.4893,0.4918,0.4582,0.0,0.0,0.0,0.0,0.0,0.0,0.0,0.0,0.0,0.0,0.0,0.0,0.0,0.0,0.0,0.0,0.0,0.0,0.0,0.0,0.0,0.0,0.0,0.0,0.0,0.0,0.0,0.0,0.0,0.0,0.0,0.0,0.0,0.0,0.0,0.0,0.0,0.0,0.0,0.0,0.0,0.6178,0.7723,0.788,0.7759,0.0,0.0,0.0,0.5507,0.5693,0.0,0.0,0.0,0.0,0.0,0.0,0.0,0.0,0.0,0.0,0.0,0.0,0.0,0.0,0.0,0.0,0.0,0.0,0.0,0.0,0.0,0.0,0.0,0.0,0.0,0.0,0.0,0.0,0.0,0.0,0.0,0.0,0.0,0.0,0.0,0.0,0.0,0.0,0.0,0.0,0.0,0.0,0.0,0.0,0.0,0.0,0.0,0.0,0.0,0.0,0.0,0.0,0.0,0.0,0.0,0.7389,0.6469,0.5353,0.4675,0.4443,0.4603,0.4674,0.4618,0.4835,0.4812,0.0,0.0,0.0,0.0,0.0,0.0,0.0,0.0,0.0,0.0,0.0,0.0,0.0,0.0,0.0,0.0,0.0,0.0,0.0,0.0,0.0,0.0,0.0,0.0,0.0,0.0,0.0,0.0,0.0,0.0,0.0,0.0,0.0,0.0,0.0,0.0,0.0,0.0,0.0,0.0,0.0,0.0,0.88,0.9111,0.0,0.0,0.0,0.7263,0.6605,0.0,0.0,0.0,0.0,0.0,0.0,0.0,0.0,0.0,0.0,0.0,0.0,0.0,0.0,0.0,0.0,0.0,0.0,0.0,0.0,0.0,0.0,0.0,0.0,0.0,0.0,0.0,0.0,0.0,0.0,0.0,0.0,0.0,0.0,0.0,0.0,0.0,0.0,0.0,0.0,0.0,0.0,0.0,0.0,0.0,0.0,0.0,0.0,0.0,0.0,0.0,0.0,0.0,0.0,0.0,0.0,0.0,0.6234,0.4602,0.3876,0.4161,0.4397,0.4457,0.43,0.4614,0.0,0.0,0.0,0.0,0.0,0.0,0.0,0.0,0.0,0.0,0.0,0.0,0.0,0.0,0.0,0.0,0.0,0.0,0.0,0.0,0.0,0.0,0.0,0.0,0.0,0.0,0.0,0.9566,0.0,0.0,0.0,0.0,0.0,0.0,0.0,0.0,0.0,0.0,0.0,0.0,0.0,0.0,0.8139,0.9354,0.9994,1.0245,0.0,0.0,0.8177,0.7482,0.7218,0.7048,0.0,0.0,0.0,0.0,0.0,0.0,0.0,0.0,0.0,0.0,0.0,0.0,0.0,0.0,0.0,0.0,0.0,0.0,0.0,0.0,0.0,0.0,0.0,0.0,0.0,0.0,0.0,0.0,0.0,0.0,0.0,0.0,0.0,0.0,0.0,0.0,0.0,0.0,0.0,0.0,0.0,0.0,0.0,0.0,0.0,0.0,0.0,0.0,0.0,0.0,0.0,0.0,0.0,0.0,0.0,0.5357,0.416,0.3623,0.3825,0.3975,0.4052,0.403,0.4298,0.4795,0.0,0.0,0.0,0.0,0.0,0.0,0.0,0.0,0.0,0.0,0.0,0.0,0.0,0.0,0.0,0.0,0.0,0.0,0.0,0.0,0.0,0.0,0.0,0.0,0.0,0.0,0.0,0.0,0.0,0.0,0.0,0.0,0.0,0.0,0.0,0.0,0.0,0.0,0.0,0.0,0.0,0.9181,0.9553,1.0736,1.1344,0.0,0.0,0.8279,0.7919,0.7423,0.711,0.7089,0.0,0.0,0.0,0.0,0.0,0.0,0.0,0.0,0.0,0.0,0.0,0.0,0.0,0.0,0.0,0.0,0.0,0.0,0.0,0.0,0.0,0.0,0.0,0.0,0.0,0.0,0.0,0.0,0.0,0.0,0.0,0.0,0.0,0.0,0.0,0.0,0.0,0.0,0.0,0.0,0.0,0.0,0.0,0.0,0.0,0.0,0.0,0.0,0.0,0.0,0.0,0.0,0.0,0.4827,0.5259,0.3457,0.2785,0.3276,0.3506,0.3535,0.3319,0.3741,0.4333,0.0,0.0,0.0,0.0,0.0,0.0,0.0,0.0,0.0,0.0,0.0,0.0,0.0,0.0,0.0,0.0,0.0,0.0,0.0,0.0,0.0,0.0,0.0,0.0,0.0,0.0,0.0,0.0,1.1667,1.1644,1.0366,0.0,0.0,0.0,0.0,0.0,0.0,0.0,0.0,0.0,0.0,1.0641,1.0931,1.0643,0.0,0.0,0.8561,0.722,0.8459,0.7317,0.6431,0.6831,0.6873,0.0,0.0,0.0,0.0,0.0,0.0,0.0,0.0,0.0,0.0,0.0,0.0,0.0,0.0,0.0,0.0,0.0,0.0,0.0,0.0,0.0,0.0,0.0,0.0,0.0,0.0,0.0,0.0,0.0,0.0,0.0,0.0,0.0,0.0,0.0,0.0,0.0,0.0,0.0,0.0,0.0,0.0,0.0,0.0,0.0,0.0,0.0,0.0,0.0,0.0,0.0,0.0,0.4416,0.4935,0.3134,0.2469,0.2994,0.3076,0.3036,0.2847,0.3315,0.3988,0.0,0.0,0.0,0.0,0.0,0.0,0.0,0.0,0.0,0.0,0.0,0.0,0.0,0.0,0.0,0.0,0.0,0.0,0.0,0.0,0.0,0.0,0.0,0.0,0.0,0.0,0.0,0.0,1.3436,1.2818,1.0798,0.0,0.0,0.0,0.0,0.0,0.0,0.0,0.0,0.0,0.0,1.0852,1.0801,1.0218,0.9852,0.9951,0.7765,0.6581,0.7983,0.6744,0.5827,0.652,0.0,0.0,0.0,0.0,0.0,0.0,0.0,0.0,0.0,0.0,0.0,0.0,0.0,0.0,0.0,0.0,0.0,0.0,0.0,0.0,0.0,0.0,0.0,0.0,0.0,0.0,0.0,0.0,0.0,0.0,0.0,0.0,0.0,0.0,0.0,0.0,0.0,0.0,0.0,0.0,0.0,0.0,0.0,0.0,0.0,0.0,0.0,0.0,0.0,0.0,0.0,0.0,0.0,0.0,0.4162,0.3318,0.293,0.2985,0.2689,0.2587,0.2709,0.3032,0.3835,0.5155,0.0,0.0,0.0,0.0,0.0,0.0,0.0,0.0,0.0,0.0,0.0,0.0,0.0,0.0,0.0,0.0,0.0,0.0,0.0,0.0,0.0,0.0,0.0,0.0,0.0,0.0,1.4541,1.3868,1.3018,0.0,0.0,0.0,0.0,0.0,0.0,0.0,0.0,0.0,0.0,0.9245,0.9401,0.8747,0.9528,0.9617,0.8047,0.7163,0.6592,0.6344,0.5692,0.5449,0.0,0.0,0.0,0.0,0.0,0.0,0.0,0.0,0.0,0.0,0.0,0.0,0.0,0.0,0.0,0.0,0.0,0.0,0.0,0.0,0.0,0.0,0.0,0.0,0.0,0.0,0.0,0.0,1.1361,0.0,0.0,0.0,0.0,0.0,0.0,0.0,0.0,0.0,0.0,0.0,0.5607,0.7117,0.0,0.0,0.0,0.0,0.0,0.0,0.0,0.0,0.0,0.0,0.0,0.0,0.6219,0.5357,0.4085,0.3278,0.3014,0.2635,0.2423,0.2433,0.285,0.3836,0.5475,0.0,0.0,0.0,0.0,0.0,0.0,0.0,0.0,0.0,0.0,0.0,0.0,0.0,0.0,0.0,0.0,0.0,0.0,0.0,0.0,0.0,0.0,0.0,0.0,0.0,1.5725,0.0,0.0,0.0,0.0,0.0,0.0,0.0,0.0,0.0,0.0,0.0,0.9311,0.9115,1.0054,1.0521,0.9906,0.9158,0.8984,0.0,0.0,0.0,0.0,0.0,0.0,0.0,0.0,0.0,0.0,0.0,0.0,0.0,0.0,-0.7517,-0.4251,-0.6645,-0.9439,-1.0275,0.0,0.0,0.0,0.0,0.0,0.0,0.0,0.0,0.0,0.0,0.0,0.0,0.0,0.0,0.0,0.0,1.2008,0.0,0.0,0.0,0.0,0.0,0.0,0.0,0.0,0.5109,0.5445,0.5396,0.663,0.7857,0.0,1.139,1.168,0.0,0.0,0.0,0.0,0.0,0.0,0.0,0.0,0.7105,0.5968,0.48,0.3883,0.3292,0.2723,0.2491,0.2616,0.3184,0.4196,0.573,0.7848,0.9118,0.0,0.0,0.0,0.0,0.0,0.0,0.0,0.0,0.0,0.0,0.0,0.0,0.0,0.0,0.0,0.0,0.0,0.0,0.0,0.0,0.0,0.0,0.0,1.5683,0.0,0.0,0.0,0.0,0.0,0.0,0.0,0.0,0.0,1.085,1.0801,1.086,1.0582,1.0868,1.1011,1.0696,0.0,0.0,0.0,0.0,0.0,0.0,0.0,0.7653,0.6501,0.6129,0.5791,0.512,0.3025,0.0237,-0.3468,0.0,0.0,-0.8586,-1.1278,-1.3749,-1.4562,-1.3006,-1.2399,-1.5129,-1.5213,-1.5052,0.0,0.0,0.0,0.0,0.0,0.0,0.0,0.0,0.9403,1.0141,0.0,1.2282,0.0,0.0,0.0,0.0,0.0,0.0,0.0,0.0,0.1394,0.2208,0.5768,0.6296,0.7468,0.9323,1.1077,1.2038,1.2175,1.2239,0.0,0.0,0.0,0.0,0.0,0.0,0.808,0.6045,0.5431,0.4716,0.3855,0.3009,0.2774,0.3222,0.4064,0.495,0.5881,0.7018,0.8406,1.0094,1.1642,0.0,0.0,0.0,0.0,0.0,0.0,0.0,0.0,0.0,0.0,0.0,0.0,0.0,0.0,0.0,0.0,0.0,0.0,0.0,0.0,1.4504,0.0,0.0,0.0,0.0,0.0,0.0,0.0,0.0,0.0,0.0,1.4046,1.2009,1.1203,1.2705,0.0,0.0,0.0,0.0,1.1913,1.1477,1.1889,1.1886,1.0793,1.0064,0.9509,0.9132,0.0,0.0,0.8775,0.8662,0.7427,0.4876,0.2275,-0.1416,-1.005,-1.412,-1.6869,-1.7029,-1.6906,-1.7708,-1.7902,-1.7547,-1.7317,0.8136,0.0,0.0,0.0,0.0,1.2178,1.1825,1.1694,0.947,0.9855,1.1995,1.0364,0.0,0.0,0.0,0.0,0.0,0.0,0.7953,0.3985,0.4777,0.494,0.4411,0.559,0.6412,0.7011,0.984,1.1278,1.1377,1.1405,1.2441,1.427,0.0,0.0,0.0,0.0,0.8767,0.7438,0.656,0.5682,0.483,0.4042,0.3707,0.3843,0.5496,0.6237,0.5937,0.7988,0.9321,0.9779,1.0543,0.0,0.0,0.0,0.0,0.0,0.0,0.0,0.0,0.0,0.0,0.0,0.0,0.0,0.0,0.0,0.0,0.0,0.0,0.0,1.4574,1.4203,1.4327,0.0,0.0,0.0,0.0,0.0,0.0,0.0,0.0,0.0,1.7056,1.5058,1.3801,0.0,0.0,1.2716,1.4341,1.4433,1.4711,1.5603,0.0,0.0,0.0,1.2383,1.1443,0.9613,1.0016,0.982,0.7324,0.7367,0.6505,0.2752,0.1997,0.0912,-0.1935,-0.3995,-0.6635,-1.0495,-1.1774,-1.3356,-1.7303,-1.8341,-1.7887,0.7024,1.0651,1.1736,1.218,1.2195,1.2193,1.1727,1.0904,0.9771,1.0116,1.1436,1.0271,1.0936,1.291,1.2796,0.0,0.0,0.0,0.9008,0.6276,0.6763,0.6621,0.6053,0.6907,0.7302,0.7316,0.9618,1.0793,1.0881,1.0922,1.1908,1.3683,0.0,0.0,1.1439,1.0233,0.9019,0.7872,0.6999,0.6225,0.5556,0.5254,0.5127,0.5244,0.6583,0.721,0.7002,0.8375,0.9274,0.9482,0.9941,1.0659,0.0,0.0,0.0,0.0,0.0,0.0,0.0,0.0,0.0,0.0,0.0,1.421,0.0,0.0,0.0,0.0,1.4514,1.4775,1.4253,1.4403,0.0,0.0,0.0,0.0,0.0,0.0,0.0,1.9152,1.99,2.0235,1.9806,1.8301,1.6829,1.5648,1.4766,1.4859,1.6567,0.0,1.7662,1.8626,1.895,1.8426,1.6585,1.5646,1.4654,1.322,1.4314,1.4677,1.2745,1.343,1.3234,1.0489,0.9863,0.9892,0.9003,0.786,0.4219,-0.3792,-0.6115,-0.7837,-1.1426,-1.2162,-1.1951,0.5998,0.7739,1.0245,1.1284,1.1304,1.1272,1.0863,1.0189,1.0021,1.0489,1.1357,1.1134,1.206,1.3709,1.3602,0.0,0.0,0.9256,0.8706,0.978,0.7623,0.7628,0.943,0.9367,0.9311,0.9206,1.0029,1.0483,1.0584,1.0594,1.1092,1.2004,1.0896,1.0332,1.035,0.9797,0.8865,0.7614,0.6953,0.652,0.6297,0.6503,0.6772,0.701,0.74,0.7914,0.8494,0.8367,0.8573,0.9224,0.967,1.0408,1.1544,0.0,0.0,0.0,0.0,0.0,0.0,0.0,0.0,0.0,0.0,0.0,0.0,0.0,0.0,0.0,1.4424,0.0,1.3597,1.4738,0.0,0.0,0.0,1.8575,1.9226,2.0801,2.1813,2.1714,0.0,0.0,0.0,0.0,2.0086,1.7806,1.723,1.7346,1.8358,1.9653,2.0579,2.0591,2.1053,2.1071,1.9781,1.8753,1.7969,1.8037,2.0127,2.0855,2.0919,2.2622,2.3877,2.1856,2.2168,2.1421,2.0589,1.8162,1.439,0.3868,0.0048,-0.1636,-0.254,-0.3015,-0.3084,0.7892,0.9552,1.0095,1.0366,1.0417,1.0362,1.0219,0.9914,0.8484,0.8745,1.0175,0.8638,0.9277,1.1508,1.2029,1.2113,1.1828,1.0437,1.0341,1.1145,0.9328,0.9071,1.0107,0.949,0.9146,0.913,0.9437,0.961,0.9636,0.973,0.9873,0.9996,0.9758,0.9845,1.0184,0.9043,0.8199,0.7696,0.7128,0.7185,0.7879,0.7332,0.7338,0.8023,0.8381,0.8399,0.8087,0.8548,0.8805,0.885,0.8943,0.9574,1.08,1.1871,0.0,0.0,0.0,0.0,0.0,0.0,0.0,0.0,0.0,1.5455,1.3301,0.0,1.4787,0.0,1.3436,1.313,1.1473,1.3516,0.0,0.0,1.7247,1.9254,2.16,2.274,2.313,2.2713,2.3309,2.3674,2.3468,2.3132,2.2684,2.1937,2.0523,2.0318,2.2201,2.2023,2.1789,2.1837,2.1636,2.1016,1.9854,1.8791,1.8511,1.9251,2.0022,2.0593,2.1112,2.1768,2.2103,2.1536,2.1438,2.1159,2.061,1.983,1.8551,1.5046,0.9725,0.3873,-0.0033,-0.0775,-0.0514,0.7979,0.8914,0.9619,0.9941,0.9952,0.9952,0.9962,0.987,0.8803,0.8935,0.9863,0.9384,0.9894,1.1165,1.1865,1.1979,1.1565,1.0667,1.0573,1.1021,1.0079,1.0052,1.0767,0.9967,0.961,0.9594,0.9686,0.9724,0.9732,1.0101,1.0091,0.9666,0.9662,0.9552,0.9344,0.8703,0.8611,0.9074,0.8788,0.8977,0.9607,0.9314,0.9437,1.0072,1.0289,1.0162,0.975,0.9981,0.999,0.9738,0.9605,1.0286,1.1918,1.2653,1.343,0.0,0.0,0.0,0.0,0.0,0.0,0.0,0.0,0.0,0.0,0.0,1.441,0.0,1.425,0.0,1.3524,1.5354,1.691,1.7578,1.9231,2.1147,2.3213,2.406,2.4414,2.4156,2.446,2.4618,2.4455,2.4319,2.4227,2.4138,2.3187,2.2818,2.3596,2.3335,2.2902,2.2557,2.1971,2.1227,2.0184,2.0154,2.0348,2.0768,2.112,2.1378,2.143,2.1828,2.1973,2.1453,2.1659,2.1795,2.1292,2.0714,2.0219,1.9198,1.6072,1.1752,0.7915,0.7081,0.7315,0.7571,0.7666,0.9133,0.9754,0.9754,0.9825,0.985,0.9863,0.9875,0.9844,0.9887,1.1306,1.1765,1.1541,1.2345,1.2282,1.1438,1.0672,1.0361,1.0394,1.0369,1.065,1.1165,1.0548,1.0267,1.0259,1.0281,1.0295,1.0301,1.0937,1.0864,1.0207,1.0149,0.9679,0.8828,0.9018,0.9622,1.0577,1.0903,1.1118,1.1252,1.1583,1.1921,1.2258,1.223,1.2084,1.1864,1.1569,1.126,1.0939,1.0762,1.1614,1.3608,1.3878,1.4749,0.0,1.6507,0.0,0.0,0.0,0.0,0.0,0.0,0.0,0.0,1.3898,1.4159,1.5198,1.5803,1.6326,1.6773,1.8154,1.9369,2.0219,2.1903,2.3339,2.4251,2.4978,2.5434,2.5485,2.5446,2.5344,2.5153,2.5135,2.5099,2.5,2.4879,2.4512,2.3871,2.3688,2.3375,2.2756,2.1963,2.1192,2.1066,2.1736,2.2183,2.2159,2.2154,2.2352,2.1636,2.2146,2.2415,2.1726,2.1888,2.2226,2.1959,2.1135,2.05,1.9937,1.9215,1.8274,1.6799,1.6058,1.7099,0.9344,0.924,0.9463,0.9542,0.9482,0.9555,0.9594,0.9658,0.9665,0.9542,0.9465,1.0859,1.1092,1.0588,1.252,1.2863,1.1885,1.172,1.1559,1.1384,1.0812,1.0616,1.0697,1.0536,1.0503,1.0592,1.044,1.0445,1.0625,1.0863,1.0831,1.0595,1.0793,1.1023,1.1294,0.0,0.0,0.0,1.1367,1.2273,1.2151,1.212,1.2292,1.2644,1.2252,0.0,1.1213,1.0973,1.0751,1.0543,1.0835,0.0,0.0,0.0,0.0,0.0,0.0,0.0,0.0,0.0,0.0,0.0,1.5875,1.5028,1.416,1.4933,1.5579,1.5764,1.6458,1.6491,1.5527,1.8064,1.9873,2.012,2.2308,2.422,2.507,2.5356,2.5473,2.5496,2.5485,2.5454,2.5356,2.5339,2.5322,2.5253,2.529,2.4841,2.3746,2.3166,2.2563,2.1901,2.1121,2.0837,2.1399,2.114,2.1219,2.1475,2.118,2.0919,2.0848,2.084,2.0901,2.0554,2.0527,2.0555,2.0339,2.0063,1.9886,1.9654,1.9625,1.9457,1.8815,1.8998,1.9385,0.9698,0.0,0.9453,0.9385,0.0,0.9349,0.9385,0.9465,0.9525,0.9439,0.9312,1.0713,1.1084,1.0743,1.247,1.2757,1.1893,1.1793,1.1725,1.1675,1.1351,1.135,1.1607,1.1233,1.1182,1.1486,1.149,1.1694,1.2086,1.2281,1.2143,1.1691,1.1498,1.1545,1.1877,1.3071,1.3037,1.1728,1.3338,1.4124,1.4021,1.4018,1.4014,1.3935,0.0,0.0,0.0,0.0,0.0,0.0,0.0,0.0,0.0,0.0,0.0,1.626,1.6251,1.5958,1.5391,1.6208,1.6872,1.7226,1.7159,1.649,1.5106,1.5592,1.6456,1.753,1.7766,1.7881,1.8017,1.9246,2.0246,2.0765,2.1982,2.3124,2.402,2.449,2.4734,2.4805,2.5175,2.5424,2.5395,2.5428,2.543,2.5343,2.4999,2.4412,2.343,2.2949,2.2372,2.1242,2.0662,2.0496,2.0898,2.0785,2.0582,2.0958,2.0753,2.0543,2.0559,2.0526,2.0446,2.0351,2.0239,2.0111,1.9945,1.9884,1.9809,1.9656,1.9762,1.9829,1.9639,1.9812,2.0084,0.9534,0.9359,0.9285,0.9263,0.9224,0.9222,0.9243,0.9312,0.0,0.0,0.0,1.0665,1.1182,1.1076,1.239,1.2549,1.1757,1.1749,1.1775,1.1809,1.1831,1.2137,1.2575,1.1939,1.1923,1.2493,1.2618,1.3029,1.3685,1.3778,1.3484,1.2825,1.2221,1.1966,1.2209,1.408,1.4903,1.4599,1.5494,1.5799,1.5424,1.5793,1.5697,1.5012,1.4904,1.4504,1.3742,1.3429,1.3209,1.3029,1.3759,1.468,1.5691,1.6373,1.6867,1.7135,1.6978,1.6778,1.6608,1.7205,1.7659,1.78,1.8325,1.809,1.6745,1.6647,1.7426,1.933,1.9049,1.9419,2.0913,2.0626,2.0642,2.1496,2.1615,2.1951,2.2625,2.3456,2.4028,2.4088,2.4877,2.5431,2.5405,2.5467,2.549,2.5368,2.4911,2.3946,2.3033,2.2564,2.19,2.0718,2.039,2.0361,2.0486,2.0547,2.0581,2.0612,2.0607,2.0591,2.0597,2.0599,2.0585,2.05,2.0402,2.0254,2.0087,2.0056,1.9992,1.9847,1.9973,2.0146,2.0143,2.01,2.0149,0.9368,0.9224,0.9095,0.905,0.9056,0.9143,0.9241,0.931,0.9271,0.9212,0.9206,1.0599,1.0828,1.0271,1.2384,1.2705,1.1684,1.2375,1.252,0.0,1.2151,1.2178,1.2235,1.1854,1.2237,1.3174,1.3041,1.3482,1.4302,1.3867,1.3488,1.3352,1.2874,1.2921,1.3529,1.4281,1.4938,1.5424,1.6574,1.621,1.4327,1.5711,1.5852,1.4569,1.4377,1.4267,1.4105,1.3135,1.2915,1.3702,1.4082,1.4886,1.6192,1.6656,1.6788,1.6627,1.642,1.6499,1.6914,1.7073,1.7945,1.9613,2.0191,2.0048,1.9206,1.9143,1.9369,1.9805,1.9654,2.002,2.1168,2.1138,2.1092,2.1426,2.2075,2.2344,2.1854,2.3068,2.3956,2.4028,2.4949,2.5492,2.5437,2.5506,2.5562,2.5565,2.5233,2.469,2.2965,2.1623,2.0764,2.0418,2.0372,2.0425,2.0471,2.0501,2.0523,2.0508,2.056,2.0591,2.0593,2.0601,2.0566,2.0516,2.0444,2.0352,2.0276,2.0258,2.0222,2.0167,2.0219,2.0288,2.0318,2.0337,2.0361,0.9741,0.9438,0.9134,0.8974,0.8953,0.9081,0.9415,0.9813,0.9736,0.945,0.9306,1.1097,1.1428,1.0839,1.2503,1.2939,1.2376,1.2738,1.2735,1.2403,1.2383,1.2241,1.2091,1.2405,1.2924,1.3619,1.4283,1.477,1.5066,1.4638,1.4149,1.37,1.3323,1.3282,1.3547,1.4243,1.4742,1.5019,1.6007,1.6019,1.501,1.5474,1.5255,1.4217,1.4148,1.3927,1.3507,1.3346,1.3444,1.3812,1.471,1.5563,1.6254,1.667,1.6881,1.6844,1.6249,1.6483,1.7889,1.8762,1.9785,2.1062,2.1623,2.126,1.9863,1.9729,1.9988,2.062,2.0202,2.0039,2.0604,2.0241,1.9898,1.9831,2.025,2.0528,2.0716,2.1739,2.2776,2.3349,2.4251,2.4992,2.5403,2.5499,2.5573,2.5559,2.5176,2.407,2.2361,2.1402,2.0716,2.0346,2.0296,2.0371,2.0449,2.0482,2.0503,2.0508,2.0562,2.0572,2.0562,2.0575,2.0582,2.0526,2.048,2.0432,2.0357,2.034,2.0339,2.0315,2.0325,2.0359,2.0394,2.0429,2.0464,1.0191,0.9659,0.9357,0.91,0.8891,0.9151,0.9537,1.0008,1.0271,1.0013,0.9692,1.1544,1.2087,1.1627,1.2705,1.3158,1.3031,1.2922,1.277,1.2522,1.2479,1.238,1.2341,1.3016,1.3667,1.4322,1.5264,1.5685,1.571,1.5247,1.4588,1.386,1.3457,1.3388,1.3653,1.4316,1.4607,1.4593,1.5216,1.5526,1.5388,1.5123,1.4653,1.4071,1.3985,1.372,1.3192,1.3612,1.397,1.4149,1.5364,1.6229,1.6575,1.7067,1.742,1.7519,1.6802,1.7376,1.972,2.0845,2.1528,2.1841,2.2399,2.2163,2.0903,2.0486,2.0426,2.0709,2.023,1.9846,1.9564,1.9267,1.8738,1.8252,1.8584,1.9103,1.9438,2.0683,2.1876,2.2733,2.3758,2.4813,2.5313,2.5512,2.5532,2.5424,2.4667,2.3389,2.201,2.1483,2.1034,2.0444,2.0255,2.0338,2.039,2.046,2.0503,2.0507,2.0564,2.0555,2.0527,2.0534,2.0539,2.05,2.0486,2.0447,2.0395,2.0371,2.0354,2.0332,2.0372,2.0383,2.0398,2.0458,2.0514,1.0575,0.9801,0.9865,0.9438,0.8893,0.9476,0.9525,0.9372,1.0672,1.088,1.0392,1.167,1.2321,1.2385,1.3039,1.3278,1.3086,1.2906,1.2754,1.262,1.2407,1.2692,1.3304,1.3414,1.4285,1.5593,1.5369,1.56,1.6221,1.5038,1.4209,1.38,1.3031,1.3367,1.4521,1.4735,1.4722,1.4599,1.4844,1.4719,1.4235,1.4659,1.4616,1.4038,1.3762,1.3705,1.3722,1.3647,1.4015,1.5018,1.5856,1.6785,1.7757,1.8352,1.8728,1.8903,1.8616,1.9866,2.2923,2.2933,2.2297,2.16,2.2186,2.2745,2.3042,2.2634,2.1368,1.9944,1.9735,1.9487,1.8132,1.8774,1.8776,1.7662,1.8516,1.913,1.8958,2.0904,2.2614,2.2671,2.4165,2.542,2.5453,2.5538,2.5493,2.5302,2.4576,2.3525,2.2361,2.1692,2.1053,2.0383,2.0211,2.0308,2.038,2.0467,2.0508,2.0498,2.0547,2.0542,2.0505,2.0448,2.043,2.0448,2.0445,2.0402,2.038,2.036,2.0341,2.0354,2.0386,2.0396,2.0413,2.0457,2.0494,1.1441,1.0911,1.0679,1.0413,1.0192,1.0541,1.0825,1.1114,1.1713,1.2117,1.2366,1.2824,1.2781,1.2389,1.3169,1.3429,1.3311,1.3696,1.3698,1.3541,1.3836,1.4105,1.4243,1.4902,1.5556,1.6075,1.6108,1.6315,1.6475,1.6075,1.5927,1.6092,1.5265,1.5022,1.5342,1.5089,1.4879,1.4764,1.4508,1.4337,1.4211,1.3779,1.3444,1.319,1.3079,1.3118,1.3374,1.3677,1.4615,1.62,1.6969,1.81,1.9672,1.9642,1.9828,2.0362,2.08,2.1883,2.3889,2.3297,2.2937,2.3094,2.2993,2.3343,2.4377,2.4268,2.3092,2.0939,2.0661,2.0308,1.9192,1.9065,1.8708,1.8029,1.8466,1.8958,1.9076,2.0698,2.2058,2.2705,2.391,2.4955,2.5369,2.549,2.5197,2.4707,2.4139,2.3388,2.2037,2.1434,2.0942,2.0308,2.0144,2.0246,2.0365,2.0458,2.0506,2.0516,2.0519,2.0507,2.0488,2.0467,2.0463,2.0396,2.0363,2.0302,2.0237,2.0219,2.0196,2.0268,2.0372,2.039,2.0371,2.0439,2.0487,1.2124,1.176,1.1531,1.1292,1.1133,1.1448,1.1803,1.2224,1.245,1.2924,1.352,1.3868,1.3669,1.3192,1.3499,1.3796,1.4161,1.4452,1.4582,1.4596,1.5078,1.5267,1.5365,1.6198,1.6851,1.7105,1.7181,1.7124,1.7045,1.7188,1.7552,1.794,1.7138,1.6687,1.6751,1.6189,1.5817,1.5752,1.5441,1.523,1.4871,1.4133,1.3423,1.2897,1.2937,1.3108,1.3326,1.446,1.5768,1.7225,1.8315,1.9514,2.0856,2.0767,2.0938,2.1679,2.238,2.3189,2.4105,2.3613,2.3635,2.4264,2.3906,2.3878,2.4381,2.4629,2.4066,2.2762,2.1958,2.124,2.0115,1.9817,1.9496,1.8994,1.9207,1.9701,2.0231,2.1294,2.2403,2.3083,2.4075,2.4606,2.5004,2.5007,2.4639,2.3774,2.3541,2.3048,2.1643,2.1199,2.0948,2.0222,2.0135,2.0227,2.0385,2.0459,2.0526,2.0857,2.095,2.1025,2.0813,2.0837,2.0555,2.0526,2.0369,2.0225,2.0177,2.0122,2.0096,2.0175,2.0253,2.0334,2.0296,2.0392,2.0446,1.2465,1.1853,1.2297,1.1991,1.1195,1.2009,1.2044,1.194,1.2674,1.3015,1.3302,1.4602,1.5196,1.492,1.4299,1.4611,1.5679,1.5038,1.507,1.5688,1.5714,1.5979,1.6629,1.7146,1.8162,1.9209,1.8342,1.7787,1.7719,1.7982,1.8431,1.9081,1.8014,1.7946,1.8835,1.8283,1.7896,1.7764,1.8109,1.7803,1.6398,1.6366,1.5426,1.3799,1.3785,1.4038,1.4311,1.6336,1.7669,1.7793,1.9682,2.0891,2.1107,2.1595,2.217,2.2728,2.308,2.3549,2.4153,2.4248,2.4364,2.4629,2.4662,2.4257,2.3335,2.3586,2.401,2.4752,2.3296,2.1867,2.0728,2.1166,2.1341,2.0681,2.122,2.1652,2.1886,2.279,2.3734,2.4041,2.4617,2.4888,2.4341,2.4091,2.3707,2.3065,2.2728,2.2244,2.1415,2.12,2.088,2.0384,2.0164,2.0238,2.0385,2.0438,2.0813,2.1223,2.15,2.1862,2.1808,2.1619,2.1094,2.0578,2.0308,2.0137,2.0115,2.0107,2.0088,2.0142,2.0215,2.0253,2.0246,2.0327,2.0366,1.2795,1.2633,1.2953,1.2891,1.27,1.3711,1.4018,1.3902,1.4876,1.5242,1.5286,1.5926,1.6439,1.6713,1.6164,1.6059,1.6348,1.6427,1.6642,1.6923,1.7323,1.7631,1.7832,1.8657,1.9307,1.972,1.9577,1.9577,1.9915,2.0406,2.0935,2.1137,2.0424,1.9968,1.9798,1.9545,1.9142,1.8715,1.8915,1.8733,1.8206,1.7969,1.7437,1.6634,1.5421,1.5131,1.5814,1.6631,1.7859,1.969,2.0569,2.1505,2.2579,2.2797,2.2876,2.3025,2.3252,2.3603,2.4107,2.4303,2.4454,2.4572,2.4775,2.4742,2.4372,2.4341,2.4581,2.4829,2.4524,2.3651,2.3145,2.2639,2.2096,2.1848,2.1981,2.2224,2.2399,2.3163,2.3872,2.4004,2.4368,2.4568,2.4533,2.3847,2.3004,2.2661,2.2092,2.1388,2.0679,2.041,2.0329,2.0183,2.0087,2.0145,2.0308,2.0396,2.0662,2.1297,2.1696,2.1731,2.1718,2.1776,2.1378,2.0539,2.0192,2.0078,2.006,2.0049,2.004,2.0069,2.0143,2.0211,2.0195,2.0292,2.0353,1.3034,1.3173,1.3346,1.3479,1.3679,1.4763,1.5238,1.5315,1.6284,1.6711,1.6751,1.7026,1.7479,1.7939,1.7918,1.7749,1.7478,1.7661,1.7818,1.8004,1.8484,1.8763,1.9023,1.9775,2.0426,2.0786,2.0971,2.1005,2.0751,2.1391,2.1797,2.1832,2.1541,2.108,2.0516,2.06,2.0447,2.0102,2.0152,2.0117,1.9694,1.9338,1.9061,1.8598,1.7065,1.6486,1.7309,1.7675,1.8555,2.0223,2.0956,2.1976,2.328,2.2817,2.2517,2.2687,2.2888,2.3182,2.3549,2.3988,2.4338,2.4526,2.477,2.494,2.4955,2.4902,2.4926,2.4921,2.4601,2.444,2.4486,2.3685,2.306,2.3088,2.3098,2.3112,2.3175,2.3708,2.4112,2.4178,2.38,2.3973,2.4373,2.3343,2.2547,2.2159,2.1514,2.0854,2.0138,1.99,1.9881,2.0029,2.0078,2.0143,2.0284,2.0366,2.1111,2.1789,2.2119,2.2004,2.1843,2.1888,2.1507,2.0648,2.018,2.0069,2.0001,1.9998,1.9996,2.0004,2.0107,2.0199,2.0205,2.025,2.0327,1.3192,1.3312,1.3428,1.3658,1.4003,1.5024,1.545,1.5735,1.667,1.7267,1.7428,1.7918,1.8371,1.8688,1.9126,1.9423,1.9129,1.8456,1.8385,1.8839,1.895,1.9253,1.9694,2.0317,2.1223,2.2279,2.2472,2.1592,2.0261,2.0798,2.108,2.0888,2.125,2.1318,2.1182,2.1617,2.1898,2.1773,2.1979,2.1711,2.0625,2.042,2.0144,1.9534,1.8599,1.8201,1.8403,1.9608,1.9998,1.9782,2.1101,2.2347,2.2634,2.1651,2.1045,2.1902,2.2183,2.2362,2.2608,2.3456,2.4058,2.4155,2.4632,2.4631,2.4151,2.4515,2.476,2.4557,2.4114,2.383,2.4484,2.4428,2.4401,2.4719,2.4475,2.4482,2.4554,2.4639,2.4662,2.4426,2.3477,2.2899,2.3173,2.2908,2.2218,2.1696,2.1243,2.0859,2.0181,1.9948,1.9896,1.9988,2.0057,2.0127,2.0249,2.0476,2.1514,2.2396,2.2616,2.2668,2.2359,2.2256,2.1669,2.0874,2.0227,2.0078,2.0009,1.9985,1.9988,2.0017,2.0098,2.0173,2.0222,2.0272,2.0334,1.3227,1.3446,1.3592,1.3982,1.4599,1.5704,1.645,1.7075,1.8126,1.8633,1.8795,1.9053,1.9264,1.9418,1.965,1.9669,1.9545,1.917,1.9062,1.9155,1.956,1.956,1.9542,2.0517,2.1352,2.2008,2.3085,2.2851,2.1722,2.1988,2.224,2.2133,2.2073,2.19,2.1498,2.2051,2.2038,2.1152,2.1725,2.159,2.0765,2.0767,2.0714,2.0604,2.0217,1.984,1.9442,1.9639,1.9965,2.0275,2.0921,2.1344,2.1452,2.1458,2.1563,2.1885,2.2535,2.3041,2.3246,2.3146,2.2809,2.2538,2.3492,2.3538,2.2622,2.3677,2.4253,2.3992,2.3998,2.4307,2.4403,2.4459,2.453,2.4666,2.4663,2.442,2.3911,2.3385,2.3101,2.3069,2.2674,2.2759,2.3201,2.2871,2.2388,2.2467,2.1744,2.0896,2.0596,2.0001,1.977,1.9854,1.9952,2.0164,2.0376,2.0648,2.1372,2.2262,2.2707,2.3068,2.2843,2.252,2.1888,2.1074,2.0435,2.0124,2.0039,2.0007,2.0009,2.001,2.0079,2.0152,2.0235,2.0301,2.0359,1.3565,1.4035,1.3821,1.4214,1.503,1.6027,1.6729,1.7389,1.8692,1.9335,1.9452,1.9532,1.967,1.9839,1.9862,1.9816,1.9701,1.9638,1.9582,1.9547,1.9595,1.9669,1.9864,2.1292,2.1693,2.1619,2.2768,2.2764,2.1608,2.1972,2.2052,2.1799,2.203,2.1935,2.1627,2.2184,2.2005,2.1146,2.1479,2.1307,2.049,2.0332,2.0417,2.0442,2.0191,1.9938,1.9688,1.9293,1.929,1.9745,1.9868,2.021,2.0998,2.1005,2.0958,2.1364,2.1993,2.2522,2.2428,2.2335,2.1952,2.1254,2.2008,2.2318,2.1445,2.2537,2.2847,2.2822,2.3251,2.3768,2.3804,2.4118,2.4431,2.489,2.4701,2.4128,2.3243,2.2525,2.2574,2.2762,2.2528,2.2769,2.3238,2.3135,2.257,2.2757,2.2065,2.097,2.0666,1.9974,1.9957,1.9982,2.0089,2.0307,2.0557,2.0897,2.1287,2.1985,2.2656,2.3062,2.3211,2.292,2.241,2.1114,2.0265,2.0211,2.0126,2.0108,2.0098,2.0088,2.0097,2.0203,2.0325,2.0334,2.0365,1.4036,1.4783,1.4121,1.4344,1.5296,1.6065,1.6543,1.6915,1.8415,1.9277,1.9394,1.9518,1.9707,1.996,2.0093,2.0118,2.0004,2.0057,2.0224,2.0211,1.9902,1.9882,2.0904,2.2131,2.2064,2.1337,2.2159,2.1927,2.0953,2.1197,2.0721,2.0831,2.1395,2.1524,2.1644,2.2211,2.2065,2.1409,2.1403,2.0703,1.9491,1.9408,1.9475,1.951,1.8971,1.8883,1.9269,1.8839,1.8435,1.8342,1.8391,1.9216,2.0726,2.0027,1.9613,2.0196,2.0965,2.1,2.0634,2.1236,2.1374,2.0611,2.0457,2.0336,2.0608,2.0897,2.1261,2.1462,2.2185,2.2672,2.2955,2.3631,2.4476,2.5277,2.4745,2.3805,2.285,2.2148,2.2184,2.307,2.274,2.2319,2.3617,2.338,2.2989,2.2541,2.2287,2.1552,2.0653,2.0364,2.0337,2.0389,2.0496,2.0873,2.1243,2.1493,2.1918,2.257,2.3055,2.3263,2.3417,2.3112,2.2854,2.1559,2.0559,2.045,2.0318,2.0352,2.0258,2.018,2.023,2.0318,2.0353,2.036,2.0396,1.3679,1.4009,1.3802,1.4531,1.5714,1.6046,1.687,1.8002,1.8765,1.9227,1.9409,1.9641,1.988,2.0115,2.057,2.0774,2.0899,2.117,2.1395,2.141,2.0916,2.0621,2.0888,2.1521,2.167,2.1295,2.2475,2.2714,2.1761,2.1903,2.1996,2.1969,2.1868,2.2021,2.2129,2.1769,2.1242,2.0638,2.0171,1.9756,1.9089,1.8708,1.8685,1.8982,1.8531,1.8426,1.87,1.8481,1.8322,1.827,1.7975,1.818,1.9269,1.9275,1.9413,1.986,2.0442,2.0859,2.0802,2.0904,2.0761,2.0187,1.9832,1.9572,1.9609,2.021,2.0499,2.0825,2.1596,2.241,2.2632,2.3674,2.4918,2.5793,2.4566,2.3252,2.2667,2.1457,2.106,2.1953,2.2483,2.2888,2.3233,2.3676,2.3785,2.3613,2.3159,2.2539,2.141,2.1094,2.1194,2.1067,2.1166,2.1618,2.1952,2.2182,2.2611,2.3322,2.362,2.3605,2.3514,2.3137,2.2926,2.2346,2.1571,2.127,2.0927,2.0762,2.0568,2.043,2.0443,2.0552,2.0405,2.0353,2.0424,1.3968,1.467,1.4293,1.5038,1.6409,1.6457,1.7092,1.8108,1.877,1.9164,1.9468,2.0028,2.0363,2.0576,2.1289,2.1684,2.1855,2.1966,2.2136,2.2291,2.178,2.1242,2.1079,2.1622,2.1929,2.156,2.2887,2.3066,2.257,2.2599,2.2634,2.2446,2.2293,2.2113,2.1807,2.1851,2.0994,2.0078,1.9889,1.9732,1.8667,1.8965,1.8833,1.8831,1.8484,1.846,1.8146,1.8245,1.8432,1.8473,1.8237,1.8332,1.9143,1.9509,1.9872,2.0217,2.0632,2.0793,2.0504,2.0477,2.0102,1.9506,1.9257,1.9239,1.9072,1.9564,2.0023,2.0386,2.1572,2.2494,2.3189,2.4295,2.5205,2.5444,2.4364,2.362,2.3951,2.2867,2.2318,2.2763,2.3205,2.3422,2.3437,2.3934,2.4081,2.3945,2.3421,2.2789,2.2086,2.2089,2.207,2.194,2.1863,2.2237,2.2665,2.2937,2.312,2.3792,2.4291,2.4237,2.3909,2.35,2.3269,2.305,2.2494,2.2079,2.183,2.149,2.1132,2.1012,2.0892,2.0713,2.0611,2.0669,2.0701,1.4706,1.5976,1.5159,1.5711,1.698,1.706,1.7248,1.7754,1.8609,1.9206,1.9696,2.0537,2.0985,2.1266,2.2135,2.2639,2.2751,2.2619,2.2699,2.2795,2.2452,2.1859,2.1429,2.2326,2.2625,2.2362,2.3173,2.3287,2.3028,2.289,2.266,2.247,2.231,2.1922,2.1701,2.1898,2.1105,2.0041,2.0421,2.0175,1.9239,1.9596,1.959,1.8961,1.878,1.8359,1.7919,1.8063,1.8584,1.8931,1.8628,1.9194,2.0258,2.0454,2.0601,2.0858,2.1003,2.0874,2.0152,2.0356,2.0076,1.9295,1.9545,1.9503,1.9189,1.9543,2.0015,2.077,2.185,2.3101,2.4243,2.5235,2.5464,2.5393,2.4931,2.5287,2.5743,2.4998,2.4275,2.4747,2.4417,2.4142,2.4113,2.4155,2.4136,2.4079,2.3668,2.3275,2.2885,2.2794,2.2813,2.2831,2.2808,2.2821,2.326,2.3696,2.3846,2.4194,2.4803,2.4935,2.4645,2.4277,2.3961,2.3612,2.3359,2.3158,2.2977,2.2557,2.1963,2.1751,2.177,2.132,2.0927,2.1153,2.1247,1.5002,1.5757,1.5507,1.5965,1.6812,1.6981,1.7489,1.8317,1.8875,1.9506,2.0295,2.0835,2.1418,2.2035,2.2841,2.3302,2.3383,2.3524,2.3712,2.3275,2.3347,2.3,2.2547,2.2721,2.2825,2.3123,2.345,2.3531,2.3348,2.2985,2.2721,2.2552,2.236,2.2209,2.1995,2.1589,2.1288,2.0815,2.062,2.0345,2.0067,2.0047,2.011,1.9651,1.9009,1.8143,1.7535,1.7964,1.8499,1.8793,1.9391,2.0028,2.0412,2.0511,2.0618,2.0862,2.1268,2.1165,2.0662,2.116,2.1617,2.0556,2.0325,2.0396,2.088,2.0319,2.0869,2.1919,2.2911,2.4024,2.5357,2.5322,2.5675,2.6133,2.6292,2.6473,2.675,2.5279,2.4486,2.4549,2.4368,2.3933,2.4014,2.4037,2.4062,2.4063,2.3968,2.3759,2.3626,2.3496,2.3512,2.3566,2.3644,2.3622,2.3766,2.4148,2.4313,2.4467,2.5003,2.5367,2.5105,2.5026,2.467,2.4522,2.4432,2.4212,2.3939,2.3332,2.2685,2.2661,2.2571,2.2042,2.1694,2.1804,2.1391,1.5615,1.6206,1.6123,1.6605,1.7304,1.7538,1.7986,1.8626,1.8929,1.9381,2.0073,2.0901,2.1641,2.2181,2.3319,2.3948,2.3977,2.4025,2.3819,2.3422,2.3412,2.3348,2.3259,2.301,2.3129,2.3535,2.3576,2.3549,2.3319,2.3028,2.2738,2.2623,2.2415,2.2078,2.1921,2.163,2.1269,2.0839,2.0998,2.084,2.0313,2.0969,2.0898,2.0295,1.9104,1.7957,1.7852,1.835,1.8914,1.9487,2.0364,2.102,2.0997,2.1011,2.1174,2.1539,2.1353,2.1352,2.1181,2.1518,2.1602,2.0572,2.1068,2.0716,2.078,2.0592,2.1989,2.2988,2.3892,2.4896,2.6296,2.5954,2.6199,2.6774,2.683,2.6904,2.725,2.6388,2.5435,2.5451,2.5074,2.4533,2.4298,2.4034,2.4078,2.4137,2.4137,2.4005,2.4279,2.4148,2.4166,2.4225,2.4348,2.4403,2.4418,2.457,2.4681,2.4835,2.5057,2.5312,2.529,2.5324,2.5376,2.5151,2.4914,2.4965,2.4652,2.4026,2.3581,2.355,2.3318,2.2762,2.2357,2.2223,2.1514,1.6365,1.6986,1.6919,1.7322,1.7967,1.8111,1.8395,1.8753,1.8877,1.9249,1.9746,2.1111,2.1854,2.2458,2.3599,2.4281,2.4247,2.4044,2.3671,2.3336,2.3407,2.3365,2.333,2.3341,2.3346,2.3407,2.3458,2.3389,2.3241,2.2995,2.2816,2.2649,2.2569,2.2238,2.1739,2.186,2.1832,2.1191,2.1765,2.1876,2.1172,2.2079,2.2067,2.0748,1.9523,1.8469,1.8525,1.8879,1.945,2.0148,2.1321,2.1765,2.1815,2.2004,2.2107,2.2685,2.2317,2.2173,2.1983,2.2144,2.1943,2.0054,2.1516,2.1933,2.0736,2.1481,2.2651,2.3718,2.458,2.5664,2.6852,2.6585,2.6582,2.6999,2.672,2.6919,2.7511,2.7759,2.7197,2.6139,2.5081,2.4269,2.4087,2.3899,2.4039,2.4173,2.4173,2.4266,2.451,2.4692,2.462,2.4532,2.4564,2.4647,2.4657,2.4734,2.4893,2.5057,2.5184,2.5269,2.537,2.537,2.5387,2.5429,2.5302,2.5302,2.5224,2.4772,2.4471,2.442,2.4192,2.3802,2.3269,2.2661,2.1784,1.7134,1.7881,1.7735,1.782,1.8031,1.8187,1.833,1.8432,1.8699,1.9651,2.0843,2.1352,2.2245,2.3231,2.3646,2.3878,2.384,2.3756,2.3602,2.3342,2.3394,2.3445,2.3295,2.3463,2.3486,2.3342,2.3295,2.3265,2.3265,2.3168,2.2944,2.2764,2.2833,2.2573,2.2252,2.2282,2.2562,2.2348,2.2718,2.2748,2.2911,2.2883,2.257,2.1129,2.0159,1.9467,1.8921,1.9217,1.972,2.0213,2.1012,2.1483,2.1869,2.2626,2.2911,2.285,2.3536,2.3523,2.3013,2.3811,2.4133,2.3654,2.3062,2.3621,2.3699,2.3592,2.3622,2.4246,2.5186,2.62,2.6891,2.6664,2.6833,2.706,2.7195,2.7338,2.7584,2.7483,2.736,2.6242,2.4933,2.3898,2.3894,2.3801,2.3756,2.386,2.3961,2.4136,2.4425,2.4669,2.4789,2.4717,2.4629,2.4719,2.4799,2.4902,2.5006,2.5168,2.5282,2.5271,2.5341,2.5312,2.5332,2.5378,2.5432,2.5421,2.5343,2.5228,2.517,2.4949,2.4894,2.4838,2.3981,2.3133,2.248,1.7849,1.813,1.7922,1.7966,1.81,1.8149,1.8293,1.8469,1.8623,1.9358,2.038,2.103,2.1839,2.2848,2.3498,2.362,2.3646,2.3576,2.3463,2.3365,2.3417,2.3371,2.3193,2.3417,2.3394,2.3289,2.3168,2.3144,2.3193,2.3241,2.3045,2.292,2.3172,2.3081,2.2671,2.3034,2.3143,2.3335,2.335,2.3457,2.3551,2.3288,2.2422,2.1819,2.0883,2.0149,1.9743,1.9403,1.9825,2.0321,2.0847,2.1181,2.1689,2.2368,2.2975,2.2654,2.3452,2.3942,2.3536,2.4248,2.4728,2.4646,2.4063,2.4251,2.4794,2.4409,2.426,2.4846,2.5287,2.6101,2.674,2.6311,2.6085,2.6382,2.6661,2.6876,2.6806,2.6186,2.6065,2.6108,2.5522,2.4694,2.3932,2.3789,2.3539,2.3562,2.3732,2.4037,2.4394,2.4867,2.5227,2.5311,2.5239,2.5103,2.5158,2.5139,2.5113,2.5241,2.5322,2.5331,2.5302,2.5292,2.5312,2.5341,2.5397,2.5462,2.5415,2.5309,2.5387,2.5425,2.5253,2.4937,2.4293,2.3592,2.293,1.8239,1.8108,1.79,1.7949,1.8103,1.8125,1.8249,1.8448,1.8645,1.925,2.0073,2.087,2.1693,2.2451,2.3169,2.362,2.3671,2.3531,2.3481,2.3383,2.3389,2.3295,2.3217,2.3265,2.3336,2.3271,2.3241,2.3095,2.3144,2.3217,2.3045,2.2946,2.3484,2.3295,2.2649,2.3009,2.3304,2.3518,2.3506,2.3617,2.3538,2.3232,2.2869,2.2607,2.1425,2.0856,2.0833,2.0366,2.0356,2.0709,2.1017,2.1101,2.1151,2.1907,2.2221,2.2046,2.2617,2.3091,2.3419,2.4397,2.505,2.4788,2.5386,2.5114,2.4772,2.4757,2.5082,2.5496,2.5438,2.5647,2.6117,2.5618,2.5306,2.5493,2.5802,2.592,2.5998,2.5823,2.5805,2.5826,2.587,2.5384,2.4468,2.3854,2.3618,2.3737,2.3922,2.4309,2.4723,2.556,2.5928,2.6083,2.5998,2.568,2.5556,2.545,2.5347,2.525,2.5292,2.5311,2.5282,2.5282,2.5293,2.5322,2.537,2.5416,2.5398,2.5379,2.5388,2.5379,2.538,2.513,2.4619,2.4017,2.3378,1.7905,1.7856,1.7878,1.7922,1.7971,1.8113,1.8113,1.8233,1.8957,1.986,2.0813,2.1578,2.2456,2.3235,2.3581,2.3671,2.3649,2.3667,2.3571,2.3383,2.3383,2.3313,2.3217,2.3401,2.3383,2.3336,2.336,2.3271,2.3239,2.3263,2.3045,2.2886,2.2981,2.2745,2.2327,2.2748,2.2765,2.3506,2.3719,2.4045,2.4426,2.4295,2.3801,2.3087,2.2523,2.1999,2.1905,2.142,2.1374,2.1437,2.149,2.124,2.0917,2.0824,2.1134,2.194,2.3194,2.4448,2.3851,2.4693,2.5187,2.485,2.511,2.4909,2.4682,2.4902,2.5416,2.5832,2.525,2.5094,2.5597,2.5456,2.5212,2.5274,2.5484,2.5624,2.5662,2.5676,2.5667,2.5547,2.5596,2.5335,2.475,2.4219,2.3777,2.3929,2.4169,2.459,2.5184,2.6053,2.673,2.6912,2.6933,2.6635,2.6119,2.5996,2.5746,2.5472,2.5318,2.5318,2.5261,2.5241,2.5273,2.5303,2.5351,2.5398,2.5398,2.5379,2.5379,2.5341,2.5332,2.5222,2.505,2.4441,2.3822,1.812,1.7917,1.7816,1.7856,1.7961,1.7983,1.8261,1.8748,1.9317,2.0311,2.1428,2.2028,2.2761,2.3502,2.3671,2.3692,2.3692,2.3707,2.3598,2.343,2.336,2.3271,2.3223,2.3313,2.3378,2.3478,2.3431,2.3601,2.3478,2.327,2.3003,2.2929,2.3118,2.2918,2.2404,2.2856,2.332,2.3801,2.4123,2.4455,2.4578,2.443,2.3866,2.2825,2.2833,2.2559,2.218,2.2118,2.2068,2.2006,2.1763,2.1377,2.1108,2.0944,2.0907,2.1327,2.2704,2.3407,2.3373,2.4527,2.4582,2.441,2.4435,2.4611,2.4561,2.5084,2.5619,2.5897,2.4939,2.4713,2.4844,2.4298,2.4367,2.4577,2.5316,2.5782,2.5842,2.5612,2.5575,2.5447,2.5342,2.5247,2.5034,2.4522,2.413,2.4216,2.4603,2.5194,2.5868,2.6778,2.7377,2.7811,2.7783,2.7667,2.7048,2.6625,2.6316,2.599,2.5431,2.5393,2.5258,2.5231,2.5329,2.5331,2.5361,2.5379,2.5379,2.5379,2.5379,2.5322,2.5273,2.5138,2.5024,2.4974,2.4397,1.8373,1.8093,1.8088,1.8242,1.8484,1.8489,1.8927,1.9589,2.0174,2.105,2.2028,2.2671,2.3208,2.3605,2.3753,2.3795,2.3795,2.3642,2.3549,2.3435,2.3336,2.3265,2.3289,2.3336,2.3572,2.3789,2.3454,2.3654,2.3776,2.3466,2.2929,2.3041,2.3378,2.3107,2.2845,2.3281,2.3935,2.3939,2.443,2.461,2.4492,2.4143,2.3625,2.3148,2.2894,2.2762,2.2379,2.2415,2.2646,2.23,2.198,2.1683,2.1518,2.1023,2.1163,2.1536,2.2443,2.2489,2.2848,2.3506,2.3533,2.3275,2.3692,2.4193,2.4077,2.499,2.5484,2.5245,2.4381,2.4231,2.4309,2.3358,2.368,2.4391,2.524,2.585,2.6543,2.6881,2.6746,2.6392,2.617,2.5593,2.5305,2.4781,2.4545,2.4547,2.5014,2.5755,2.6655,2.7574,2.8015,2.8501,2.8612,2.8442,2.7875,2.7338,2.7002,2.6512,2.5953,2.549,2.5382,2.5466,2.5625,2.5562,2.5457,2.5379,2.5388,2.5388,2.5389,2.5273,2.5138,2.5043,2.4955,2.4929,2.4728,1.8585,1.8323,1.8946,1.9406,1.9748,2.0235,2.0436,2.067,2.1647,2.2219,2.2779,2.3541,2.3908,2.3998,2.3958,2.3896,2.3795,2.3642,2.3481,2.3336,2.3193,2.3241,2.3289,2.349,2.3802,2.4247,2.3679,2.3658,2.3944,2.3237,2.3106,2.3403,2.351,2.3253,2.326,2.3686,2.4112,2.416,2.4453,2.4533,2.4215,2.3846,2.3458,2.3702,2.318,2.2995,2.4101,2.3621,2.3141,2.2707,2.2348,2.2136,2.192,2.1155,2.1266,2.1906,2.1682,2.1775,2.221,2.2671,2.2096,2.1449,2.1957,2.3577,2.3443,2.393,2.4236,2.4229,2.3753,2.3433,2.3457,2.3351,2.3608,2.467,2.5833,2.6933,2.7897,2.9008,2.8775,2.7784,2.7028,2.6365,2.6225,2.5865,2.5444,2.5422,2.6136,2.6872,2.7601,2.8439,2.8728,2.9072,2.9326,2.9141,2.8593,2.8083,2.7485,2.7031,2.6553,2.5983,2.5545,2.571,2.6194,2.5791,2.5669,2.5524,2.5369,2.5332,2.5264,2.5138,2.5,2.485,2.4579,2.4418,2.4246,1.9032,1.919,2.0209,2.0439,2.015,2.039,2.0928,2.1635,2.2291,2.2946,2.356,2.3966,2.4036,2.3937,2.3917,2.3834,2.3664,2.3526,2.3407,2.3313,2.3241,2.3193,2.3265,2.3342,2.3525,2.3726,2.332,2.3632,2.4424,2.338,2.3802,2.4031,2.3653,2.3351,2.3473,2.393,2.4172,2.4175,2.4335,2.4441,2.4153,2.3539,2.3224,2.3396,2.3329,2.3102,2.3563,2.383,2.3641,2.3386,2.2958,2.2763,2.2499,2.1579,2.1572,2.2128,2.16,2.1472,2.163,2.2102,2.1668,2.1435,2.1923,2.2692,2.2766,2.3159,2.3576,2.3621,2.3686,2.3385,2.329,2.3507,2.3961,2.5262,2.6584,2.7877,2.9005,3.0109,3.0172,2.8943,2.7874,2.6986,2.7013,2.7105,2.6673,2.6398,2.7191,2.7941,2.8463,2.8887,2.9048,2.9163,2.9358,2.9494,2.8978,2.8452,2.7922,2.754,2.7157,2.6666,2.6227,2.6667,2.6931,2.6416,2.5955,2.5878,2.5686,2.5349,2.5143,2.5038,2.482,2.4576,2.4298,2.3946,2.3663,1.905,1.9435,2.0689,2.1167,2.0959,2.1184,2.1807,2.2583,2.296,2.3411,2.4074,2.4054,2.3955,2.3795,2.3732,2.3642,2.3526,2.3453,2.336,2.3265,2.3217,2.3193,2.3214,2.3443,2.3766,2.356,2.3354,2.3788,2.503,2.3752,2.3864,2.41,2.3933,2.3666,2.3943,2.4184,2.4322,2.4186,2.402,2.4066,2.3762,2.331,2.3036,2.3147,2.3151,2.335,2.3677,2.4025,2.3974,2.3697,2.3457,2.3488,2.3075,2.2601,2.2243,2.2188,2.2011,2.1644,2.1548,2.1438,2.1286,2.1058,2.1476,2.1945,2.2141,2.2396,2.3045,2.2932,2.3291,2.3601,2.3374,2.3866,2.4834,2.6182,2.78,2.9076,2.9849,3.0783,3.0542,2.9967,2.9027,2.8334,2.8727,2.8898,2.8411,2.8091,2.8416,2.8706,2.8535,2.8834,2.8923,2.9067,2.9166,2.927,2.9277,2.8838,2.8426,2.8106,2.7734,2.7433,2.7257,2.7645,2.7571,2.6982,2.6586,2.6335,2.5994,2.5622,2.5278,2.495,2.4565,2.4059,2.3699,2.3302,2.3029,1.85,1.8691,2.0108,2.1295,2.2163,2.3003,2.3401,2.3527,2.3769,2.3903,2.3958,2.3899,2.3816,2.3689,2.3598,2.3481,2.3383,2.3424,2.3383,2.3241,2.3393,2.3263,2.3453,2.3762,2.4251,2.4828,2.4268,2.4137,2.5575,2.3875,2.3685,2.4132,2.4184,2.4047,2.4655,2.4492,2.4358,2.4184,2.3634,2.3345,2.3061,2.2793,2.2844,2.3117,2.3207,2.3477,2.3958,2.4384,2.4287,2.3716,2.4142,2.4343,2.4302,2.3529,2.3538,2.4471,2.3351,2.2382,2.1512,2.108,2.1117,2.1058,2.1541,2.1483,2.1365,2.1825,2.2475,2.2345,2.27,2.3089,2.3641,2.4613,2.5866,2.7264,2.8877,2.9942,3.0683,3.1282,3.1096,3.0838,3.0449,3.0152,3.0597,3.0791,3.0284,2.9999,2.9981,2.9673,2.9113,2.8828,2.89,2.8923,2.9007,2.903,2.9093,2.9181,2.8931,2.86,2.8251,2.7881,2.8091,2.8604,2.8304,2.7585,2.7262,2.7089,2.6508,2.591,2.5142,2.4314,2.3873,2.34,2.3035,2.2685,2.239,1.856,1.866,1.9807,2.0848,2.1841,2.2935,2.35,2.3732,2.3896,2.3917,2.3798,2.3774,2.3602,2.344,2.3389,2.3313,2.3168,2.3289,2.3289,2.3197,2.3555,2.3771,2.3894,2.4187,2.4672,2.4487,2.396,2.4096,2.5346,2.3786,2.4088,2.4654,2.4225,2.4215,2.4175,2.4035,2.3849,2.322,2.2862,2.2596,2.2379,2.2309,2.2531,2.3127,2.3341,2.3752,2.4271,2.4655,2.4542,2.4223,2.4806,2.5029,2.5124,2.4444,2.4071,2.4351,2.3382,2.2598,2.2342,2.2386,2.2493,2.2126,2.1521,2.1463,2.1655,2.1399,2.163,2.2232,2.3013,2.3538,2.41,2.5593,2.6971,2.8457,2.9793,3.0554,3.1236,3.1742,3.1847,3.1498,3.1115,3.1097,3.1381,3.1611,3.131,3.0876,3.0713,3.0209,2.9637,2.9095,2.8881,2.8834,2.8863,2.8821,2.8845,2.8855,2.8874,2.8622,2.8352,2.814,2.8582,2.9158,2.8911,2.8154,2.8004,2.7801,2.6701,2.5578,2.4393,2.3543,2.3015,2.2569,2.2192,2.1922,2.1694,1.8394,1.8488,1.9333,2.0252,2.1229,2.2424,2.32,2.361,2.3834,2.3813,2.3664,2.358,2.3463,2.3247,2.3168,2.3095,2.2944,2.3095,2.3144,2.3047,2.3533,2.3554,2.3744,2.4396,2.4599,2.4309,2.3911,2.3935,2.4825,2.3738,2.3681,2.4017,2.4048,2.3447,2.3288,2.3113,2.3213,2.2715,2.2467,2.2241,2.2259,2.24,2.261,2.32,2.3677,2.4153,2.4505,2.4773,2.4979,2.5045,2.5201,2.5452,2.5529,2.515,2.46,2.4422,2.3891,2.339,2.3535,2.3674,2.3733,2.3623,2.2284,2.1873,2.2191,2.203,2.2391,2.2988,2.3851,2.4505,2.5193,2.6739,2.8063,2.9532,3.0137,3.0883,3.1303,3.1771,3.2038,3.1722,3.1706,3.1787,3.1833,3.2091,3.2128,3.1735,3.1342,3.0721,3.0063,2.9412,2.8834,2.8718,2.8694,2.8651,2.8572,2.8456,2.8485,2.8533,2.8408,2.8257,2.8613,2.9084,2.8909,2.8783,2.8503,2.7905,2.6456,2.5217,2.3834,2.2723,2.1956,2.1589,2.1321,2.1038,2.0782,1.8014,1.8085,1.8653,1.96,2.0657,2.1756,2.2711,2.3522,2.3707,2.3664,2.3517,2.3453,2.3319,2.3193,2.307,2.2919,2.2816,2.2944,2.2944,2.2989,2.325,2.3154,2.3601,2.424,2.4774,2.4475,2.4017,2.3813,2.4304,2.3415,2.3051,2.3096,2.3039,2.2678,2.2509,2.2498,2.2655,2.2439,2.2221,2.2243,2.2525,2.2819,2.3136,2.3699,2.4293,2.4726,2.5082,2.5362,2.5161,2.515,2.5265,2.5617,2.5666,2.5303,2.5591,2.5435,2.4755,2.4533,2.4601,2.4672,2.4768,2.4556,2.3689,2.3175,2.3043,2.3158,2.3745,2.4191,2.4915,2.5707,2.6578,2.781,2.9031,2.9811,3.0337,3.0835,3.1176,3.1521,3.1783,3.1793,3.191,3.1977,3.1974,3.2203,3.2647,3.2391,3.1835,3.0901,3.0173,2.9345,2.8834,2.8533,2.85,2.85,2.835,2.8192,2.8244,2.8326,2.8417,2.8385,2.8735,2.8856,2.8587,2.8524,2.8716,2.7962,2.6231,2.4609,2.311,2.2126,2.1261,2.0626,2.033,1.9958,1.9656,1.818,1.809,1.8881,1.9589,2.0263,2.1653,2.2765,2.3562,2.3594,2.3499,2.3494,2.3383,2.3265,2.3119,2.3045,2.2842,2.279,2.2816,2.2816,2.2911,2.3162,2.3829,2.4373,2.4791,2.5423,2.5096,2.4475,2.3787,2.4363,2.3498,2.2725,2.2831,2.248,2.2287,2.2283,2.2366,2.2357,2.2249,2.2134,2.2503,2.2888,2.3188,2.3573,2.4182,2.5011,2.5375,2.5494,2.6149,2.6129,2.6219,2.6497,2.6704,2.6255,2.5818,2.5591,2.4747,2.4487,2.4565,2.5093,2.4998,2.5017,2.5331,2.4695,2.4202,2.4185,2.4664,2.5298,2.5584,2.5871,2.6598,2.7281,2.8362,2.9181,2.9609,3.0211,3.0751,3.114,3.1504,3.1728,3.1949,3.2051,3.2067,3.2092,3.2588,3.2939,3.2838,3.2301,3.132,3.0252,2.9388,2.8685,2.837,2.8272,2.8254,2.8065,2.788,2.802,2.8129,2.8244,2.8395,2.8579,2.8552,2.8282,2.7922,2.7614,2.6871,2.5728,2.419,2.2677,2.1596,2.0717,1.9995,1.9332,1.8907,1.8636,1.8103,1.7951,1.8399,1.9134,2.0221,2.1761,2.2875,2.3353,2.3342,2.336,2.3407,2.3336,2.3217,2.307,2.2859,2.2651,2.2515,2.249,2.249,2.2689,2.3141,2.3409,2.4053,2.4594,2.4757,2.458,2.4039,2.3158,2.3665,2.3035,2.2124,2.2328,2.2077,2.2183,2.2348,2.2609,2.2714,2.2586,2.2596,2.2915,2.3275,2.3502,2.3909,2.4679,2.5559,2.5582,2.562,2.6404,2.6344,2.611,2.6145,2.5984,2.5691,2.541,2.5304,2.463,2.474,2.5176,2.5691,2.5699,2.5815,2.58,2.5439,2.5134,2.5507,2.6097,2.6392,2.6656,2.6994,2.7422,2.8013,2.8618,2.8936,2.9286,2.998,3.068,3.1128,3.1545,3.1819,3.2,3.2089,3.2148,3.2401,3.2938,3.3122,3.2793,3.2374,3.1693,3.0481,2.9332,2.8569,2.8037,2.8031,2.8004,2.7823,2.7799,2.7877,2.8014,2.8094,2.8226,2.8413,2.7978,2.7411,2.6734,2.6096,2.5452,2.4952,2.3752,2.2388,2.1231,1.9846,1.8759,1.8084,1.7787,1.7572,1.7958,1.7704,1.7545,1.8682,2.0381,2.1876,2.2669,2.302,2.3193,2.3265,2.3336,2.3319,2.3265,2.3109,2.2798,2.2517,2.2343,2.2271,2.2271,2.231,2.2562,2.2911,2.3209,2.3236,2.3966,2.343,2.2844,2.2574,2.214,2.1929,2.1875,2.1874,2.1935,2.2197,2.2701,2.3094,2.3348,2.3477,2.3178,2.3197,2.3984,2.4079,2.3951,2.491,2.5179,2.514,2.5235,2.5235,2.5037,2.4704,2.4629,2.477,2.4656,2.4807,2.4806,2.5045,2.5144,2.5751,2.6238,2.6326,2.6551,2.6324,2.5762,2.5911,2.6498,2.715,2.7442,2.7506,2.7747,2.811,2.8627,2.8828,2.9074,2.9475,3.0061,3.0625,3.11,3.1487,3.1839,3.2018,3.2074,3.214,3.2419,3.2895,3.2995,3.2637,3.2087,3.1589,3.0879,2.9526,2.8877,2.8217,2.8357,2.8428,2.8058,2.7976,2.7853,2.7924,2.8032,2.8094,2.8288,2.7494,2.6446,2.5622,2.4865,2.4654,2.4129,2.2923,2.1652,2.0294,1.8906,1.7463,1.6797,1.6479,1.6617,1.8018,1.7817,1.7996,1.9235,2.1011,2.1317,2.2022,2.3003,2.3265,2.3371,2.3522,2.3476,2.343,2.3301,2.2917,2.2615,2.2388,2.2203,2.2175,2.2248,2.2377,2.2666,2.3158,2.3229,2.357,2.3474,2.2948,2.2111,2.1917,2.1875,2.2112,2.2543,2.254,2.274,2.3281,2.3674,2.387,2.4173,2.3906,2.3849,2.4614,2.493,2.5013,2.539,2.5497,2.5444,2.5627,2.6036,2.5858,2.5586,2.5687,2.5273,2.449,2.4521,2.4642,2.4911,2.5499,2.6229,2.6811,2.6994,2.7038,2.733,2.7055,2.7101,2.7378,2.7994,2.8302,2.8302,2.8399,2.8745,2.8966,2.9074,2.9212,2.9645,3.0081,3.0535,3.1015,3.1411,3.1858,3.1913,3.1967,3.2144,3.2376,3.2517,3.2688,3.2309,3.1625,3.1137,3.0916,3.0064,2.9772,2.9271,2.9228,2.9131,2.8641,2.8304,2.8247,2.8025,2.8062,2.8145,2.8129,2.678,2.5408,2.4423,2.3698,2.3523,2.3051,2.2026,2.0724,1.9196,1.7852,1.641,1.5441,1.496,1.5389,1.78,1.7649,1.7976,1.8871,1.9984,2.0424,2.1113,2.1941,2.2622,2.2986,2.3185,2.3396,2.3553,2.344,2.3042,2.2773,2.2497,2.2243,2.226,2.2304,2.231,2.2572,2.2898,2.3096,2.306,2.3003,2.2492,2.1891,2.1875,2.1935,2.2235,2.2844,2.3008,2.3303,2.3806,2.3964,2.4166,2.4467,2.4223,2.438,2.4817,2.4704,2.4876,2.5201,2.529,2.5331,2.5326,2.5612,2.5346,2.4937,2.4655,2.4343,2.379,2.3866,2.4477,2.5108,2.5849,2.6596,2.7287,2.7612,2.7504,2.7783,2.786,2.7704,2.7626,2.8077,2.7952,2.7967,2.8076,2.8384,2.8653,2.8842,2.9059,2.9422,2.9968,3.0468,3.0908,3.1308,3.1439,3.1321,3.1393,3.15,3.1662,3.1669,3.1847,3.2019,3.1324,3.1185,3.0889,3.0491,3.0229,3.004,2.9864,2.952,2.8938,2.8711,2.8677,2.8459,2.8117,2.7583,2.711,2.5661,2.4364,2.3586,2.2891,2.2363,2.1771,2.0824,1.9339,1.7715,1.6505,1.5336,1.446,1.3748,1.4227,1.7526,1.7371,1.7656,1.8068,1.856,1.9504,2.0213,2.0807,2.1812,2.2404,2.2674,2.3404,2.3588,2.3405,2.308,2.2867,2.2607,2.2281,2.2298,2.2338,2.2199,2.2465,2.2505,2.2469,2.257,2.2468,2.2019,2.2034,2.2165,2.231,2.2572,2.3009,2.3319,2.3612,2.3919,2.4146,2.4333,2.4337,2.4181,2.3952,2.3925,2.3867,2.4359,2.4589,2.4679,2.4574,2.4589,2.4441,2.425,2.4,2.3732,2.3524,2.3639,2.3924,2.4835,2.5619,2.6396,2.7147,2.7842,2.8198,2.8247,2.8356,2.8194,2.8112,2.8003,2.7728,2.7599,2.7425,2.753,2.7929,2.8201,2.8523,2.8764,2.9104,2.9705,3.0199,3.0623,3.0997,3.0915,3.0761,3.0898,3.0998,3.0912,3.092,3.1031,3.1264,3.1291,3.1308,3.1153,3.0653,3.0272,3.0137,3.0041,2.9624,2.9302,2.8786,2.8631,2.8437,2.7946,2.7074,2.6141,2.4962,2.3915,2.302,2.2347,2.1654,2.0628,1.9637,1.8012,1.6362,1.4909,1.3876,1.3559,1.3015,1.3301,1.7618,1.7313,1.733,1.7848,1.8689,1.9235,1.9883,2.0788,2.1763,2.2389,2.2677,2.3376,2.3753,2.3562,2.3265,2.3017,2.2747,2.2364,2.2271,2.2338,2.2338,2.2485,2.2637,2.2671,2.2517,2.2248,2.2058,2.2207,2.2342,2.2709,2.329,2.3867,2.4094,2.4276,2.4395,2.4517,2.4472,2.4296,2.387,2.3537,2.3709,2.3837,2.4147,2.4313,2.441,2.4599,2.4719,2.4492,2.4354,2.4063,2.3596,2.3435,2.3695,2.4244,2.5079,2.5956,2.6736,2.7137,2.7677,2.8003,2.799,2.7948,2.7878,2.8061,2.7765,2.7189,2.682,2.6159,2.6431,2.71,2.7494,2.7745,2.7997,2.8465,2.898,2.9403,2.9805,3.0179,3.0356,3.0426,3.0615,3.0527,3.0248,3.0243,3.0278,3.0282,2.9888,2.9928,3.0213,3.0183,3.0136,3.0082,2.9951,3.0233,3.0102,2.8679,2.8236,2.8125,2.7754,2.6791,2.5728,2.4567,2.3569,2.272,2.171,2.0871,1.9787,1.8534,1.691,1.5228,1.3422,1.2299,1.2204,1.24,1.2681]},{"header":{"parameterUnit":"m.s-1","parameterCategory":1,"la1":31.0,"la2":29.5877,"lo1":-88.7671,"lo2":-86.6584,"dx":0.0162,"dy":0.0185,"nx":115,"ny":88,"refTime":"2023-01-30T18:00:00:Z","depth":0,"parameterNumber":3,"parameterNumberName":"V-component_of_WINDS"},"data":[0.0,0.0,0.0,0.0,0.0,0.0,0.0,0.0,0.0,0.0,0.0,0.0,0.0,0.0,0.0,0.0,0.0,0.0,0.0,0.0,0.0,0.0,0.0,0.0,0.0,0.0,0.0,0.0,0.0,0.0,0.0,0.0,0.0,0.0,0.0,0.0,0.0,0.0,0.0,0.0,0.0,0.0,0.0,0.0,0.0,0.0,0.0,0.0,0.0,0.0,0.0,0.0,0.0,0.0,0.0,0.0,0.0,0.0,0.0,0.0,0.0,0.0,0.0,0.0,0.0,0.0,0.0,0.0,0.0,0.0,0.0,0.0,0.0,0.0,0.0,0.0,0.0,0.0,0.0,0.0,0.0,0.0,0.0,0.0,0.0,0.0,0.0,0.0,0.0,0.0,0.0,0.0,0.0,0.0,0.0,0.0,0.0,0.0,0.0,0.0,0.0,0.0,0.0,0.0,0.0,0.0,0.0,0.0,0.0,0.0,0.0,0.0,0.0,0.0,0.0,0.0,0.0,0.0,0.0,0.0,0.0,0.0,0.0,0.0,0.0,0.0,0.0,0.0,0.0,0.0,0.0,0.0,0.0,0.0,0.0,0.0,0.0,0.0,0.0,0.0,0.0,0.0,0.0,0.0,0.0,0.0,0.0,0.0,0.0,0.0,0.0,0.0,0.0,0.0,0.0,0.0,0.0,0.0,0.0,0.0,0.0,0.0,0.0,0.0,0.0,0.0,0.0,0.0,0.0,0.0,0.0,0.0,0.0,0.0,0.0,0.0,0.0,0.0,0.0,0.0,0.0,0.0,0.0,0.0,0.0,0.0,0.0,0.0,0.0,0.0,0.0,0.0,0.0,0.0,0.0,0.0,0.0,0.0,0.0,0.0,0.0,0.0,0.0,0.0,0.0,0.0,0.0,0.0,0.0,0.0,0.0,0.0,0.0,0.0,0.0,0.0,0.0,0.0,0.0,0.0,0.0,0.0,0.0,0.0,0.0,0.0,0.0,0.0,0.0,0.0,0.0,0.0,0.0,0.0,0.0,0.0,0.0,0.0,0.0,0.0,0.0,0.0,0.0,0.0,0.0,0.0,0.0,0.0,0.0,0.0,0.0,0.0,0.0,0.0,0.0,0.0,0.0,0.0,0.0,0.0,0.0,0.0,0.0,0.0,0.0,0.0,0.0,0.0,0.0,0.0,0.0,0.0,0.0,0.0,0.0,0.0,0.0,0.0,0.0,0.0,0.0,0.0,0.0,0.0,0.0,0.0,0.0,0.0,0.0,0.0,0.0,0.0,0.0,0.0,0.0,0.0,0.0,0.0,0.0,0.0,0.0,0.0,0.0,0.0,0.0,0.0,0.0,0.0,0.0,0.0,0.0,0.0,0.0,0.0,0.0,0.0,0.0,0.0,0.0,0.0,0.0,0.0,0.0,0.0,0.0,0.0,0.0,0.0,0.0,0.0,0.0,0.0,0.0,0.0,0.0,0.0,0.0,0.0,0.0,0.0,0.0,0.0,0.0,0.0,0.0,0.0,0.0,0.0,0.0,0.0,0.0,0.0,0.0,0.0,0.0,0.0,0.0,0.0,0.0,0.0,0.0,0.0,0.0,0.0,0.0,0.0,0.0,0.0,0.0,0.0,0.0,0.0,0.0,0.0,0.0,0.0,0.0,0.0,0.0,0.0,0.0,0.0,0.0,0.0,0.0,0.0,0.0,0.0,0.0,0.0,0.0,0.0,0.0,0.0,0.0,0.0,0.0,0.0,0.0,0.0,0.0,0.0,0.0,0.0,0.0,0.0,0.0,0.0,0.0,0.0,0.0,0.0,0.0,0.0,0.0,0.0,0.0,0.0,0.0,0.0,0.0,0.0,0.0,0.0,0.0,0.0,0.0,0.0,0.0,0.0,0.0,0.0,0.0,0.0,0.0,0.0,0.0,0.0,0.0,0.0,0.0,0.0,0.0,0.0,0.0,0.0,0.0,0.0,0.0,0.0,0.0,0.0,0.0,0.0,0.0,0.0,0.0,0.0,0.0,0.0,0.0,0.0,0.0,0.0,0.0,0.0,0.0,0.0,0.0,0.0,0.0,0.0,0.0,0.0,0.0,0.0,0.0,0.0,0.0,0.0,0.0,0.0,0.0,0.0,0.0,0.0,0.0,0.0,0.0,0.0,0.0,0.0,0.0,0.0,0.0,0.0,0.0,0.0,0.0,0.0,0.0,0.0,0.0,0.0,0.0,0.0,0.0,0.0,0.0,0.0,0.0,0.0,0.0,0.0,0.0,0.0,0.0,0.0,0.0,0.0,0.0,0.0,0.0,0.0,0.0,0.0,0.0,0.0,0.0,0.0,0.0,0.0,0.0,0.0,0.0,0.0,0.0,0.0,0.0,0.0,0.0,0.0,0.0,0.0,0.0,0.0,0.0,0.0,0.0,0.0,0.0,0.0,0.0,0.0,0.0,0.0,0.0,0.0,0.0,0.0,0.0,0.0,0.0,0.0,0.0,0.0,0.0,0.0,0.0,0.0,0.0,0.0,0.0,0.0,0.0,0.0,0.0,0.0,0.0,0.0,0.0,0.0,0.0,0.0,0.0,0.0,0.0,0.0,0.0,0.0,0.0,0.0,0.0,0.0,0.0,0.0,0.0,0.0,0.0,0.0,0.0,0.0,0.0,0.0,0.0,0.0,0.0,0.0,0.0,0.0,0.0,0.0,0.0,0.0,0.0,0.0,0.0,0.0,0.0,0.0,0.0,0.0,0.0,0.0,0.0,0.0,0.0,0.0,0.0,0.0,0.0,0.0,0.0,0.0,0.0,0.0,0.0,0.0,0.0,0.0,0.0,0.0,0.0,0.0,0.0,0.0,0.0,0.0,0.0,0.0,0.0,0.0,0.0,0.0,0.0,0.0,0.0,0.0,0.0,0.0,0.0,0.0,0.0,0.0,0.0,0.0,0.0,0.0,0.0,0.0,0.0,0.0,0.0,0.0,0.0,0.0,0.0,0.0,0.0,0.0,0.0,0.0,0.0,0.0,0.0,0.0,0.0,0.0,0.0,0.0,0.0,0.0,0.0,0.0,0.0,0.0,0.0,0.0,0.0,0.0,0.0,0.0,0.0,0.0,0.0,0.0,0.0,0.0,0.0,0.0,0.0,0.0,0.0,0.0,0.0,0.0,0.0,0.0,0.0,0.0,0.0,0.0,0.0,0.0,0.0,0.0,0.0,0.0,0.0,0.0,0.0,0.0,0.0,0.0,0.0,0.0,0.0,0.0,0.0,0.0,0.0,0.0,0.0,0.0,0.0,0.0,0.0,0.0,0.0,0.0,0.0,0.0,0.0,0.0,0.0,0.0,0.0,0.0,0.0,0.0,0.0,0.0,0.0,0.0,0.0,0.0,0.0,0.0,0.0,0.0,0.0,0.0,0.0,0.0,0.0,0.0,0.0,0.0,0.0,0.0,0.0,0.0,0.0,0.0,0.0,0.0,0.0,0.0,0.0,0.0,0.0,0.0,0.0,0.0,0.0,0.0,0.0,0.0,0.0,0.0,0.0,0.0,0.0,0.0,0.0,0.0,0.0,0.0,0.0,0.0,0.0,0.0,0.0,0.0,0.0,0.0,0.0,0.0,0.0,0.0,0.0,0.0,0.0,0.0,0.0,0.0,0.0,0.0,0.0,0.0,0.0,0.0,0.0,0.0,0.0,0.0,0.0,0.0,0.0,0.0,0.0,0.0,0.0,0.0,0.0,0.0,0.0,0.0,0.0,0.0,0.0,0.0,0.0,0.0,0.0,0.0,0.0,0.0,0.0,0.0,0.0,0.0,0.0,0.0,0.0,0.0,0.0,0.0,0.0,0.0,0.0,0.0,0.0,0.0,0.0,0.0,0.0,0.0,0.0,0.0,0.0,0.0,0.0,0.0,0.0,0.0,0.0,0.0,0.0,0.0,0.0,0.0,0.0,0.0,0.0,0.0,0.0,0.0,0.0,0.0,0.0,0.0,0.0,0.0,0.0,0.0,0.0,0.0,0.0,0.0,0.0,0.0,0.0,0.0,0.0,0.0,0.0,0.0,0.0,0.0,0.0,0.0,0.0,0.0,0.0,0.0,0.0,0.0,0.0,0.0,0.0,0.0,0.0,0.0,0.0,0.0,0.0,0.0,0.0,0.0,0.0,0.0,0.0,0.0,0.0,0.0,0.0,0.0,0.0,0.0,0.0,0.0,0.0,0.0,0.0,0.0,0.0,0.0,0.0,0.0,0.0,0.0,0.0,0.0,0.0,0.0,-0.9507,0.0,0.0,0.0,0.0,0.0,0.0,0.0,0.0,0.0,0.0,0.0,0.0,0.0,0.0,0.0,0.0,0.0,0.0,0.0,0.0,0.0,0.0,0.0,0.0,0.0,0.0,0.0,0.0,0.0,0.0,0.0,0.0,0.0,0.0,0.0,0.0,0.0,0.0,0.0,0.0,0.0,0.0,0.0,0.0,0.0,0.0,0.0,0.0,0.0,0.0,0.0,0.0,0.0,0.0,0.0,0.0,0.0,0.0,0.0,0.0,0.0,0.0,0.0,0.0,0.0,0.0,0.0,0.0,0.0,0.0,0.0,0.0,0.0,0.0,0.0,0.0,0.0,0.0,0.0,0.0,0.0,0.0,0.0,0.0,0.0,0.0,0.0,0.0,0.0,0.0,0.0,0.0,0.0,0.0,0.0,0.0,0.0,0.0,0.0,0.0,0.0,0.0,0.0,0.0,0.0,0.0,0.0,0.0,0.0,0.0,-1.0315,-0.9811,-0.9702,-0.9643,-0.9606,0.0,0.0,0.0,0.0,0.0,0.0,0.0,0.0,0.0,0.0,0.0,0.0,0.0,0.0,0.0,0.0,0.0,0.0,0.0,0.0,0.0,0.0,0.0,0.0,0.0,0.0,0.0,0.0,0.0,0.0,0.0,0.0,0.0,0.0,0.0,0.0,0.0,0.0,0.0,0.0,0.0,0.0,0.0,0.0,0.0,0.0,0.0,0.0,0.0,0.0,0.0,0.0,0.0,0.0,0.0,0.0,0.0,0.0,0.0,0.0,0.0,0.0,0.0,0.0,0.0,0.0,0.0,0.0,0.0,0.0,0.0,0.0,0.0,0.0,0.0,0.0,0.0,0.0,0.0,0.0,0.0,0.0,0.0,0.0,0.0,0.0,0.0,0.0,0.0,0.0,0.0,0.0,0.0,0.0,0.0,0.0,0.0,0.0,0.0,0.0,0.0,0.0,0.0,0.0,0.0,0.0,0.0,0.0,0.0,0.0,0.0,0.0,-1.0127,-1.0075,-1.0047,0.0,0.0,0.0,0.0,0.0,0.0,0.0,0.0,0.0,0.0,0.0,0.0,0.0,0.0,0.0,0.0,0.0,0.0,0.0,0.0,0.0,0.0,0.0,0.0,0.0,0.0,0.0,0.0,0.0,0.0,0.0,0.0,0.0,0.0,0.0,0.0,0.0,0.0,0.0,0.0,0.0,0.0,0.0,0.0,0.0,0.0,0.0,0.0,0.0,0.0,0.0,0.0,0.0,0.0,0.0,0.0,0.0,0.0,0.0,0.0,0.0,0.0,0.0,0.0,0.0,0.0,0.0,0.0,0.0,0.0,0.0,0.0,0.0,0.0,0.0,0.0,0.0,0.0,0.0,0.0,0.0,0.0,0.0,0.0,0.0,0.0,0.0,0.0,0.0,0.0,0.0,0.0,0.0,0.0,0.0,0.0,0.0,0.0,0.0,0.0,0.0,0.0,0.0,0.0,0.0,0.0,0.0,0.0,0.0,0.0,-1.0517,-1.1829,-1.1623,0.0,-1.1108,0.0,0.0,0.0,0.0,0.0,0.0,0.0,0.0,0.0,0.0,0.0,0.0,0.0,0.0,0.0,0.0,0.0,0.0,0.0,0.0,0.0,0.0,0.0,0.0,0.0,0.0,0.0,0.0,0.0,0.0,0.0,0.0,0.0,0.0,0.0,0.0,0.0,0.0,0.0,0.0,0.0,0.0,0.0,0.0,0.0,0.0,0.0,0.0,0.0,0.0,0.0,0.0,0.0,0.0,0.0,0.0,0.0,0.0,0.0,0.0,0.0,0.0,0.0,0.0,0.0,0.0,0.0,0.0,0.0,0.0,0.0,0.0,0.0,0.0,0.0,0.0,0.0,0.0,0.0,0.0,0.0,0.0,0.0,0.0,0.0,0.0,0.0,0.0,0.0,0.0,0.0,0.0,0.0,0.0,0.0,0.0,0.0,0.0,0.0,0.0,0.0,0.0,0.0,0.0,0.0,0.0,0.0,0.0,0.0,0.0,-1.1339,-1.1455,-1.1381,-1.0977,0.0,0.0,0.0,0.0,0.0,0.0,0.0,0.0,0.0,0.0,0.0,0.0,0.0,0.0,0.0,0.0,0.0,0.0,0.0,0.0,0.0,0.0,0.0,0.0,0.0,0.0,0.0,0.0,0.0,0.0,0.0,0.0,0.0,0.0,0.0,0.0,0.0,0.0,0.0,0.0,0.0,0.0,0.0,0.0,0.0,0.0,0.0,0.0,0.0,0.0,0.0,0.0,0.0,0.0,0.0,0.0,0.0,0.0,0.0,0.0,0.0,0.0,0.0,0.0,0.0,0.0,0.0,0.0,0.0,0.0,0.0,0.0,0.0,0.0,0.0,0.0,0.0,0.0,0.0,0.0,0.0,0.0,0.0,0.0,0.0,0.0,0.0,0.0,0.0,0.0,0.0,0.0,0.0,0.0,0.0,0.0,0.0,0.0,0.0,0.0,0.0,0.0,0.0,0.0,0.0,0.0,0.0,0.0,0.0,0.0,-1.2088,-1.1896,-1.1558,-1.099,-1.0457,-0.9922,0.0,0.0,0.0,0.0,0.0,0.0,0.0,0.0,0.0,0.0,0.0,0.0,0.0,0.0,0.0,0.0,0.0,0.0,0.0,0.0,0.0,0.0,0.0,0.0,0.0,0.0,0.0,0.0,0.0,0.0,0.0,0.0,0.0,0.0,0.0,0.0,0.0,0.0,0.0,0.0,0.0,0.0,0.0,0.0,0.0,0.0,0.0,0.0,0.0,0.0,0.0,0.0,0.0,0.0,0.0,0.0,0.0,0.0,0.0,0.0,0.0,0.0,0.0,0.0,0.0,0.0,0.0,0.0,0.0,0.0,0.0,0.0,0.0,0.0,0.0,0.0,0.0,0.0,0.0,0.0,0.0,0.0,0.0,0.0,0.0,0.0,0.0,0.0,0.0,0.0,0.0,0.0,0.0,0.0,0.0,0.0,0.0,0.0,0.0,0.0,0.0,0.0,0.0,0.0,0.0,0.0,0.0,0.0,-1.4457,-1.2531,-1.1926,-1.2828,-1.0835,-1.014,0.0,0.0,0.0,0.0,0.0,0.0,0.0,0.0,0.0,0.0,0.0,0.0,0.0,0.0,0.0,0.0,0.0,0.0,0.0,0.0,0.0,0.0,0.0,0.0,0.0,0.0,0.0,0.0,0.0,0.0,0.0,0.0,0.0,0.0,0.0,0.0,0.0,0.0,0.0,0.0,0.0,0.0,0.0,0.0,0.0,0.0,0.0,0.0,0.0,0.0,0.0,0.0,0.0,0.0,0.0,0.0,0.0,0.0,0.0,0.0,0.0,0.0,0.0,0.0,0.0,0.0,0.0,0.0,0.0,0.0,0.0,0.0,0.0,0.0,0.0,0.0,0.0,0.0,0.0,0.0,0.0,0.0,0.0,0.0,0.0,0.0,0.0,0.0,0.0,0.0,0.0,0.0,0.0,0.0,0.0,0.0,0.0,0.0,0.0,0.0,0.0,0.0,0.0,0.0,0.0,0.0,0.0,0.0,0.0,-1.332,-1.1918,-1.1015,-1.0787,-1.0513,-1.0286,0.0,0.0,0.0,0.0,0.0,0.0,0.0,0.0,0.0,0.0,0.0,0.0,0.0,0.0,0.0,0.0,0.0,0.0,0.0,0.0,0.0,0.0,0.0,0.0,0.0,0.0,0.0,0.0,0.0,0.0,0.0,0.0,0.0,0.0,0.0,0.0,0.0,0.0,0.0,0.0,0.0,0.0,0.0,0.0,0.0,0.0,0.0,0.0,0.0,0.0,0.0,0.0,0.0,0.0,0.0,0.0,0.0,0.0,0.0,0.0,0.0,0.0,0.0,0.0,0.0,0.0,0.0,0.0,0.0,0.0,0.0,0.0,0.0,0.0,0.0,0.0,0.0,0.0,0.0,0.0,0.0,0.0,0.0,0.0,0.0,0.0,0.0,0.0,0.0,0.0,0.0,0.0,0.0,0.0,0.0,0.0,0.0,0.0,0.0,0.0,0.0,0.0,0.0,0.0,0.0,0.0,0.0,0.0,0.0,-1.2261,0.0,-1.0603,-0.9936,-1.0181,-1.0051,0.0,0.0,0.0,0.0,0.0,0.0,0.0,0.0,0.0,0.0,0.0,0.0,0.0,0.0,0.0,0.0,0.0,0.0,0.0,0.0,0.0,0.0,0.0,0.0,0.0,0.0,0.0,0.0,0.0,0.0,0.0,0.0,0.0,0.0,0.0,0.0,0.0,0.0,0.0,0.0,0.0,0.0,0.0,0.0,0.0,0.0,0.0,0.0,0.0,0.0,0.0,0.0,0.0,0.0,0.0,0.0,0.0,0.0,0.0,0.0,0.0,0.0,0.0,0.0,0.0,0.0,0.0,0.0,0.0,0.0,0.0,0.0,0.0,0.0,0.0,0.0,0.0,0.0,0.0,0.0,0.0,0.0,0.0,0.0,0.0,0.0,0.0,0.0,0.0,0.0,0.0,0.0,0.0,0.0,0.0,0.0,0.0,0.0,0.0,0.0,0.0,0.0,0.0,0.0,0.0,0.0,0.0,0.0,-1.2226,-1.1438,-1.0871,-1.0479,-1.0641,-0.9785,-0.9267,0.0,0.0,0.0,0.0,0.0,0.0,0.0,0.0,0.0,0.0,0.0,0.0,0.0,0.0,0.0,0.0,0.0,0.0,0.0,0.0,0.0,0.0,0.0,0.0,0.0,0.0,0.0,0.0,0.0,0.0,0.0,0.0,0.0,0.0,0.0,0.0,0.0,0.0,0.0,0.0,0.0,0.0,0.0,0.0,0.0,0.0,0.0,0.0,0.0,0.0,0.0,0.0,0.0,0.0,0.0,0.0,0.0,0.0,0.0,0.0,0.0,0.0,0.0,0.0,0.0,0.0,0.0,0.0,0.0,0.0,0.0,0.0,0.0,0.0,0.0,0.0,0.0,0.0,0.0,0.0,0.0,0.0,0.0,0.0,0.0,0.0,0.0,0.0,0.0,0.0,0.0,0.0,0.0,0.0,0.0,0.0,0.0,0.0,0.0,0.0,0.0,0.0,0.0,0.0,0.0,0.0,0.0,0.0,0.0,-0.7712,-0.5423,-0.6138,-0.9913,-0.8023,-0.7803,0.0,0.0,0.0,0.0,0.0,0.0,0.0,0.0,0.0,0.0,0.0,0.0,0.0,0.0,0.0,0.0,0.0,0.0,0.0,0.0,0.0,0.0,0.0,0.0,0.0,0.0,0.0,0.0,0.0,0.0,0.0,0.0,0.0,0.0,0.0,0.0,0.0,0.0,0.0,0.0,0.0,0.0,0.0,0.0,0.0,0.0,0.0,0.0,0.0,0.0,0.0,0.0,0.0,0.0,0.0,0.0,0.0,0.0,0.0,0.0,0.0,0.0,0.0,0.0,0.0,0.0,0.0,0.0,0.0,0.0,0.0,0.0,0.0,0.0,0.0,0.0,0.0,0.0,0.0,0.0,0.0,0.0,0.0,0.0,0.0,0.0,0.0,0.0,0.0,0.0,0.0,0.0,0.0,0.0,0.0,0.0,0.0,0.0,0.0,0.0,0.0,0.0,0.0,0.0,0.0,0.0,0.0,0.0,0.0,-0.3642,-0.2079,-0.2949,-0.6538,-0.482,-0.5455,-0.8786,0.0,0.0,0.0,0.0,0.0,0.0,0.0,0.0,0.0,0.0,0.0,0.0,0.0,0.0,0.0,0.0,0.0,0.0,0.0,0.0,0.0,0.0,0.0,0.0,0.0,0.0,0.0,0.0,0.0,0.0,0.0,0.0,0.0,0.0,0.0,0.0,0.0,0.0,0.0,0.0,0.0,0.0,0.0,0.0,0.0,0.0,0.0,0.0,0.0,0.0,0.0,0.0,0.0,0.0,0.0,0.0,0.0,0.0,0.0,0.0,0.0,0.0,0.0,0.0,0.0,0.0,0.0,0.0,0.0,0.0,0.0,0.0,0.0,0.0,0.0,0.0,0.0,0.0,0.0,0.0,0.0,0.0,0.0,0.0,0.0,0.0,0.0,0.0,0.0,0.0,0.0,0.0,0.0,0.0,0.0,0.0,0.0,0.0,0.0,0.0,0.0,0.0,0.0,0.0,0.0,0.0,0.0,0.0,0.0345,-0.0377,-0.064,-0.0627,-0.0531,-0.2476,0.0,0.0,0.0,0.0,0.0,0.0,0.0,0.0,0.0,0.0,0.0,0.0,0.0,0.0,0.0,0.0,0.0,0.0,0.0,0.0,0.0,0.0,0.0,0.0,0.0,0.0,0.0,0.0,0.0,0.0,0.0,0.0,0.0,0.0,0.0,0.0,0.0,0.0,0.0,0.0,0.0,0.0,0.0,0.0,0.0,0.0,0.0,0.0,0.0,0.0,0.0,0.0,0.0,0.0,0.0,0.0,0.0,0.0,0.0,0.0,0.0,0.0,0.0,0.0,0.0,0.0,0.0,0.0,0.0,0.0,0.0,0.0,0.0,0.0,0.0,0.0,0.0,0.0,0.0,0.0,0.0,0.0,0.0,0.0,0.0,0.0,0.0,0.0,0.0,0.0,0.0,0.0,0.0,0.0,0.0,0.0,0.0,0.0,0.0,0.0,0.0,0.0,0.0,0.0,0.0,0.0,0.0,0.0,0.0,0.0988,0.4246,0.5443,0.4191,0.2935,-0.0213,0.0,0.0,0.0,0.0,0.0,0.0,0.0,0.0,0.0,0.0,0.0,0.0,0.0,0.0,0.0,0.0,0.0,0.0,0.0,0.0,0.0,0.0,0.0,0.0,0.0,0.0,0.0,0.0,0.0,0.0,0.0,0.0,0.0,0.0,0.0,0.0,0.0,0.0,0.0,0.0,0.0,0.0,0.0,0.0,0.0,0.0,0.0,0.0,0.0,0.0,0.0,0.0,0.0,0.0,0.0,0.0,0.0,0.0,0.0,0.0,0.0,0.0,0.0,0.0,0.0,0.0,0.0,0.0,0.0,0.0,0.0,0.0,0.0,0.0,0.0,0.0,0.0,0.0,0.0,0.0,0.0,0.0,0.0,0.0,0.0,0.0,0.0,0.0,0.0,0.0,0.0,0.0,0.0,0.0,0.0,0.0,0.0,0.0,0.0,0.0,0.0,0.0,0.0,0.0,0.0,0.0,0.0,0.0,-0.0647,0.2209,0.5085,0.7065,0.8117,0.6802,0.2891,0.0,0.0,0.0,0.0,0.0,0.0,0.0,0.0,0.0,0.0,0.0,0.0,0.0,0.0,0.0,0.0,0.0,0.0,0.0,0.0,0.0,0.0,0.0,0.0,0.0,0.0,0.0,0.0,0.0,0.0,0.0,0.0,0.0,0.0,0.0,0.0,0.0,0.0,0.0,0.0,0.0,0.0,0.0,0.0,0.0,0.0,0.0,0.0,0.0,0.0,0.0,0.0,0.0,0.0,0.0,0.0,0.0,0.0,0.0,0.0,0.0,0.0,0.0,0.0,0.0,0.0,0.0,0.0,0.0,0.0,0.0,0.0,0.0,0.0,0.0,0.0,0.0,0.0,0.0,0.0,0.0,0.0,0.0,0.0,0.0,0.0,0.0,0.0,0.0,0.0,0.0,0.0,0.0,0.0,0.0,0.0,0.0,0.0,0.0,0.0,0.0,0.0,0.0,0.0,0.0,0.0,0.0,0.0,-0.0225,0.3263,0.3648,0.5847,0.9968,0.9699,0.5758,0.0,0.0,0.0,0.0,0.0,0.0,0.0,0.0,0.0,0.0,0.0,0.0,0.0,0.0,0.0,0.0,0.0,0.0,0.0,0.0,0.0,0.0,0.0,0.0,0.0,0.0,0.0,0.0,0.0,0.0,0.0,0.0,0.0,0.0,0.0,0.0,0.0,0.0,0.0,0.0,0.0,0.0,0.0,0.0,0.0,0.0,0.0,0.0,0.0,0.0,0.0,0.0,0.0,0.0,0.0,0.0,0.0,0.0,0.0,0.0,0.0,0.0,0.0,0.0,0.0,0.0,0.0,0.0,0.0,0.0,0.0,0.0,0.0,0.0,0.0,0.0,0.0,0.0,0.0,0.0,0.0,0.0,0.0,0.0,0.0,0.0,0.0,0.0,0.0,0.0,0.0,0.0,0.0,0.0,0.0,0.0,0.0,0.0,0.0,0.0,0.0,0.0,0.0,0.0,0.0,0.0,0.0,0.0,-0.0188,0.1021,0.2878,0.4044,0.4389,0.573,0.4227,0.0,0.0,0.0,0.0,0.0,0.0,0.0,0.0,0.0,0.0,0.0,0.0,0.0,0.0,0.0,0.0,0.0,0.0,0.0,0.0,0.0,0.0,0.0,0.0,0.0,0.0,0.0,0.0,0.0,0.0,0.0,0.0,0.0,0.0,0.0,0.0,0.0,0.0,0.0,0.0,0.0,0.0,0.0,0.0,0.0,0.0,0.0,0.0,-1.5027,0.0,0.0,0.0,0.0,0.0,0.0,0.0,0.0,0.0,0.0,0.0,0.0,0.0,0.0,0.0,0.0,0.0,0.0,0.0,0.0,0.0,0.0,0.0,0.0,0.0,0.0,0.0,0.0,0.0,0.0,0.0,0.0,0.0,0.0,0.0,0.0,0.0,0.0,0.0,0.0,0.0,0.0,0.0,0.0,0.0,0.0,0.0,0.0,0.0,0.0,0.0,0.0,0.0,0.0,0.0,0.0,0.0,0.0,0.0,-0.0475,0.1269,0.14,0.2015,0.3182,0.2883,0.146,0.0,0.0,0.0,0.0,0.0,0.0,0.0,0.0,0.0,0.0,0.0,0.0,0.0,0.0,0.0,0.0,0.0,0.0,0.0,0.0,0.0,0.0,0.0,0.0,0.0,0.0,0.0,0.0,0.0,0.0,0.0,0.0,0.0,0.0,0.0,0.0,0.0,0.0,0.0,0.0,0.0,0.0,0.0,0.0,0.0,0.0,0.0,0.0,0.0,0.0,0.0,0.0,0.0,0.0,0.0,0.0,0.0,0.0,0.0,0.0,0.0,0.0,0.0,0.0,0.0,0.0,0.0,0.0,0.0,0.0,0.0,0.0,0.0,0.0,0.0,0.0,0.0,0.0,0.0,0.0,0.0,0.0,0.0,0.0,0.0,0.0,0.0,0.0,0.0,0.0,0.0,0.0,0.0,0.0,0.0,0.0,0.0,0.0,0.0,0.0,0.0,0.0,0.0,0.0,0.0,0.0,0.0,-0.2864,-0.0682,0.1743,-0.0068,0.019,0.2877,0.0586,-0.136,-0.2638,0.0,0.0,0.0,0.0,0.0,0.0,0.0,0.0,0.0,0.0,0.0,0.0,0.0,0.0,0.0,0.0,0.0,0.0,0.0,0.0,0.0,0.0,0.0,0.0,0.0,0.0,0.0,0.0,0.0,0.0,0.0,0.0,0.0,0.0,0.0,0.0,0.0,0.0,-1.2927,-1.4115,0.0,0.0,0.0,0.0,0.0,0.0,0.0,0.0,-1.5052,0.0,0.0,0.0,0.0,0.0,0.0,0.0,0.0,0.0,0.0,0.0,0.0,0.0,0.0,0.0,0.0,0.0,0.0,0.0,0.0,0.0,0.0,0.0,0.0,0.0,0.0,0.0,0.0,0.0,0.0,0.0,0.0,0.0,0.0,0.0,0.0,0.0,0.0,0.0,0.0,0.0,0.0,0.0,0.0,0.0,0.0,0.0,0.0,0.0,0.0,0.0,0.0,0.0,0.0,0.0,0.0,-0.4134,-0.1383,-0.012,-0.042,-0.0454,-0.0765,-0.1399,-0.1582,-0.2416,-0.3945,0.0,0.0,0.0,0.0,0.0,0.0,0.0,0.0,0.0,0.0,0.0,0.0,0.0,0.0,0.0,0.0,0.0,0.0,0.0,0.0,0.0,0.0,0.0,0.0,0.0,0.0,0.0,0.0,0.0,0.0,0.0,0.0,0.0,0.0,0.0,0.0,0.0,0.0,0.0,-1.3469,-1.3676,0.0,0.0,0.0,0.0,0.0,0.0,0.0,0.0,-1.5124,0.0,0.0,0.0,0.0,0.0,0.0,0.0,0.0,0.0,0.0,0.0,0.0,0.0,0.0,0.0,0.0,0.0,0.0,0.0,0.0,0.0,0.0,0.0,0.0,0.0,0.0,0.0,0.0,0.0,0.0,0.0,0.0,0.0,0.0,0.0,0.0,0.0,0.0,0.0,0.0,0.0,0.0,0.0,0.0,0.0,0.0,0.0,0.0,0.0,0.0,0.0,0.0,0.0,0.0,0.0,-0.3239,-0.0737,0.0389,0.0061,0.0223,-0.0168,-0.1177,-0.1674,-0.2899,0.0,0.0,0.0,0.0,0.0,0.0,0.0,0.0,0.0,0.0,0.0,0.0,0.0,0.0,0.0,0.0,0.0,0.0,0.0,0.0,0.0,0.0,0.0,0.0,0.0,0.0,0.0,0.0,0.0,0.0,0.0,0.0,0.0,0.0,0.0,0.0,0.0,0.0,0.0,0.0,-1.3917,-1.3957,-1.3244,0.0,0.0,0.0,0.0,0.0,0.0,-1.4663,-1.4868,0.0,0.0,0.0,0.0,0.0,0.0,0.0,0.0,0.0,0.0,0.0,0.0,0.0,0.0,0.0,0.0,0.0,0.0,0.0,0.0,0.0,0.0,0.0,0.0,0.0,0.0,0.0,0.0,0.0,0.0,0.0,0.0,0.0,0.0,0.0,0.0,0.0,0.0,0.0,0.0,0.0,0.0,0.0,0.0,0.0,0.0,0.0,0.0,0.0,0.0,0.0,0.0,0.0,0.0,0.0,-0.2505,-0.0311,0.0915,0.1084,0.1095,0.0804,0.02,-0.0844,-0.2743,0.0,0.0,0.0,0.0,0.0,0.0,0.0,0.0,0.0,0.0,0.0,0.0,0.0,0.0,0.0,0.0,0.0,0.0,0.0,0.0,0.0,0.0,0.0,0.0,0.0,0.0,0.0,0.0,0.0,0.0,0.0,0.0,0.0,0.0,0.0,0.0,0.0,0.0,0.0,0.0,0.0,-1.4171,-1.3179,-1.3527,0.0,0.0,0.0,0.0,-1.4688,-1.4552,0.0,0.0,0.0,0.0,0.0,0.0,0.0,0.0,0.0,0.0,0.0,0.0,0.0,0.0,0.0,0.0,0.0,0.0,0.0,0.0,0.0,0.0,0.0,0.0,0.0,0.0,0.0,0.0,0.0,0.0,0.0,0.0,0.0,0.0,0.0,0.0,0.0,0.0,0.0,0.0,0.0,0.0,0.0,0.0,0.0,0.0,0.0,0.0,0.0,0.0,0.0,0.0,0.0,0.0,0.0,0.0,-0.2464,0.0199,0.1529,0.1454,0.1666,0.1456,0.0819,0.0648,-0.1511,0.0,0.0,0.0,0.0,0.0,0.0,0.0,0.0,0.0,0.0,0.0,0.0,0.0,0.0,0.0,0.0,0.0,0.0,0.0,0.0,0.0,0.0,0.0,0.0,0.0,0.0,0.0,0.0,0.0,0.0,0.0,0.0,0.0,0.0,0.0,0.0,0.0,0.0,0.0,0.0,0.0,-1.3174,-1.279,-1.2672,-1.2723,0.0,0.0,0.0,-1.4162,-1.4928,0.0,0.0,0.0,0.0,0.0,0.0,0.0,0.0,0.0,0.0,0.0,0.0,0.0,0.0,0.0,0.0,0.0,0.0,0.0,0.0,0.0,0.0,0.0,0.0,0.0,0.0,0.0,0.0,0.0,0.0,0.0,0.0,0.0,0.0,0.0,0.0,0.0,0.0,0.0,0.0,0.0,0.0,0.0,0.0,0.0,0.0,0.0,0.0,0.0,0.0,0.0,0.0,0.0,0.0,0.0,-0.3137,-0.2149,0.0634,0.2081,0.2072,0.1954,0.1829,0.1704,0.0918,-0.1122,0.0,0.0,0.0,0.0,0.0,0.0,0.0,0.0,0.0,0.0,0.0,0.0,0.0,0.0,0.0,0.0,0.0,0.0,0.0,0.0,0.0,0.0,0.0,0.0,0.0,0.0,0.0,0.0,0.0,0.0,0.0,0.0,0.0,0.0,0.0,0.0,0.0,0.0,0.0,0.0,0.0,0.0,-1.2002,-1.1768,0.0,0.0,0.0,-1.3102,-1.3468,0.0,0.0,0.0,0.0,0.0,0.0,0.0,0.0,0.0,0.0,0.0,0.0,0.0,0.0,0.0,0.0,0.0,0.0,0.0,0.0,0.0,0.0,0.0,0.0,0.0,0.0,0.0,0.0,0.0,0.0,0.0,0.0,0.0,0.0,0.0,0.0,0.0,0.0,0.0,0.0,0.0,0.0,0.0,0.0,0.0,0.0,0.0,0.0,0.0,0.0,0.0,0.0,0.0,0.0,0.0,0.0,0.0,-0.1921,0.0989,0.2566,0.2702,0.2338,0.2222,0.2396,0.1269,0.0,0.0,0.0,0.0,0.0,0.0,0.0,0.0,0.0,0.0,0.0,0.0,0.0,0.0,0.0,0.0,0.0,0.0,0.0,0.0,0.0,0.0,0.0,0.0,0.0,0.0,0.0,-0.9157,0.0,0.0,0.0,0.0,0.0,0.0,0.0,0.0,0.0,0.0,0.0,0.0,0.0,0.0,-1.1203,-1.15,-1.1002,-1.0796,0.0,0.0,-1.2295,-1.3091,-1.4166,-1.4945,0.0,0.0,0.0,0.0,0.0,0.0,0.0,0.0,0.0,0.0,0.0,0.0,0.0,0.0,0.0,0.0,0.0,0.0,0.0,0.0,0.0,0.0,0.0,0.0,0.0,0.0,0.0,0.0,0.0,0.0,0.0,0.0,0.0,0.0,0.0,0.0,0.0,0.0,0.0,0.0,0.0,0.0,0.0,0.0,0.0,0.0,0.0,0.0,0.0,0.0,0.0,0.0,0.0,0.0,0.0,-0.1779,0.1222,0.2974,0.331,0.2968,0.2759,0.2757,0.219,0.0685,0.0,0.0,0.0,0.0,0.0,0.0,0.0,0.0,0.0,0.0,0.0,0.0,0.0,0.0,0.0,0.0,0.0,0.0,0.0,0.0,0.0,0.0,0.0,0.0,0.0,0.0,0.0,0.0,0.0,0.0,0.0,0.0,0.0,0.0,0.0,0.0,0.0,0.0,0.0,0.0,0.0,-1.1389,-1.164,-1.0643,-1.0169,0.0,0.0,-1.1823,-1.3311,-1.522,-1.5969,-1.4296,0.0,0.0,0.0,0.0,0.0,0.0,0.0,0.0,0.0,0.0,0.0,0.0,0.0,0.0,0.0,0.0,0.0,0.0,0.0,0.0,0.0,0.0,0.0,0.0,0.0,0.0,0.0,0.0,0.0,0.0,0.0,0.0,0.0,0.0,0.0,0.0,0.0,0.0,0.0,0.0,0.0,0.0,0.0,0.0,0.0,0.0,0.0,0.0,0.0,0.0,0.0,0.0,0.0,-0.2486,-0.1824,0.1819,0.3746,0.3752,0.3371,0.3254,0.3392,0.2693,0.1325,0.0,0.0,0.0,0.0,0.0,0.0,0.0,0.0,0.0,0.0,0.0,0.0,0.0,0.0,0.0,0.0,0.0,0.0,0.0,0.0,0.0,0.0,0.0,0.0,0.0,0.0,0.0,0.0,-0.6976,-0.6588,-0.7158,0.0,0.0,0.0,0.0,0.0,0.0,0.0,0.0,0.0,0.0,-1.0321,-1.0556,-1.0459,0.0,0.0,-1.1157,-1.1725,-1.2482,-1.3982,-1.5242,-1.5899,-1.5348,0.0,0.0,0.0,0.0,0.0,0.0,0.0,0.0,0.0,0.0,0.0,0.0,0.0,0.0,0.0,0.0,0.0,0.0,0.0,0.0,0.0,0.0,0.0,0.0,0.0,0.0,0.0,0.0,0.0,0.0,0.0,0.0,0.0,0.0,0.0,0.0,0.0,0.0,0.0,0.0,0.0,0.0,0.0,0.0,0.0,0.0,0.0,0.0,0.0,0.0,0.0,0.0,-0.2385,-0.207,0.1987,0.4213,0.4459,0.3991,0.3799,0.3919,0.3258,0.2109,0.0,0.0,0.0,0.0,0.0,0.0,0.0,0.0,0.0,0.0,0.0,0.0,0.0,0.0,0.0,0.0,0.0,0.0,0.0,0.0,0.0,0.0,0.0,0.0,0.0,0.0,0.0,0.0,-0.5326,-0.564,-0.7147,0.0,0.0,0.0,0.0,0.0,0.0,0.0,0.0,0.0,0.0,-1.0298,-1.066,-1.0767,-1.0893,-1.1198,-1.1513,-1.1872,-1.2352,-1.4138,-1.5795,-1.6765,0.0,0.0,0.0,0.0,0.0,0.0,0.0,0.0,0.0,0.0,0.0,0.0,0.0,0.0,0.0,0.0,0.0,0.0,0.0,0.0,0.0,0.0,0.0,0.0,0.0,0.0,0.0,0.0,0.0,0.0,0.0,0.0,0.0,0.0,0.0,0.0,0.0,0.0,0.0,0.0,0.0,0.0,0.0,0.0,0.0,0.0,0.0,0.0,0.0,0.0,0.0,0.0,0.0,0.0,-0.2439,0.1574,0.4243,0.5469,0.4851,0.4392,0.4272,0.3951,0.3147,0.1826,0.0,0.0,0.0,0.0,0.0,0.0,0.0,0.0,0.0,0.0,0.0,0.0,0.0,0.0,0.0,0.0,0.0,0.0,0.0,0.0,0.0,0.0,0.0,0.0,0.0,0.0,-0.4411,-0.4273,-0.4835,0.0,0.0,0.0,0.0,0.0,0.0,0.0,0.0,0.0,0.0,-1.2158,-1.1713,-1.2377,-1.1661,-1.1461,-1.245,-1.2283,-1.2333,-1.3225,-1.63,-1.8104,0.0,0.0,0.0,0.0,0.0,0.0,0.0,0.0,0.0,0.0,0.0,0.0,0.0,0.0,0.0,0.0,0.0,0.0,0.0,0.0,0.0,0.0,0.0,0.0,0.0,0.0,0.0,0.0,-0.5118,0.0,0.0,0.0,0.0,0.0,0.0,0.0,0.0,0.0,0.0,0.0,0.2124,0.2768,0.0,0.0,0.0,0.0,0.0,0.0,0.0,0.0,0.0,0.0,0.0,0.0,-0.2884,-0.1779,0.1916,0.445,0.5609,0.4903,0.4485,0.4435,0.4108,0.2957,0.0892,0.0,0.0,0.0,0.0,0.0,0.0,0.0,0.0,0.0,0.0,0.0,0.0,0.0,0.0,0.0,0.0,0.0,0.0,0.0,0.0,0.0,0.0,0.0,0.0,0.0,-0.3235,0.0,0.0,0.0,0.0,0.0,0.0,0.0,0.0,0.0,0.0,0.0,-1.3175,-1.2546,-1.2088,-1.1736,-1.1548,-1.249,-1.2951,0.0,0.0,0.0,0.0,0.0,0.0,0.0,0.0,0.0,0.0,0.0,0.0,0.0,0.0,-1.2573,-1.0521,-1.0634,-1.115,-1.1563,0.0,0.0,0.0,0.0,0.0,0.0,0.0,0.0,0.0,0.0,0.0,0.0,0.0,0.0,0.0,0.0,-0.3873,0.0,0.0,0.0,0.0,0.0,0.0,0.0,0.0,0.46,0.4692,0.4568,0.4929,0.4933,0.0,0.2919,-0.0051,0.0,0.0,0.0,0.0,0.0,0.0,0.0,0.0,-0.2692,-0.1133,0.1988,0.4388,0.5879,0.4989,0.4358,0.4146,0.3598,0.2497,0.0767,-0.06,-0.1059,0.0,0.0,0.0,0.0,0.0,0.0,0.0,0.0,0.0,0.0,0.0,0.0,0.0,0.0,0.0,0.0,0.0,0.0,0.0,0.0,0.0,0.0,0.0,-0.2942,0.0,0.0,0.0,0.0,0.0,0.0,0.0,0.0,0.0,-1.0386,-1.1532,-1.1956,-1.1549,-1.1604,-1.1603,-1.147,0.0,0.0,0.0,0.0,0.0,0.0,0.0,-1.8139,-1.8748,-1.8586,-1.8366,-1.8463,-1.7157,-1.5545,-1.391,0.0,0.0,-0.8511,-0.9132,-0.9717,-0.9915,-1.0721,-1.1562,-1.2197,-1.2155,-1.176,0.0,0.0,0.0,0.0,0.0,0.0,0.0,0.0,0.1301,0.1223,0.0,-0.1726,0.0,0.0,0.0,0.0,0.0,0.0,0.0,0.0,0.8678,0.7961,0.5355,0.5167,0.4781,0.4175,0.4224,0.397,0.3234,-0.1747,0.0,0.0,0.0,0.0,0.0,0.0,-0.3203,-0.0343,0.1923,0.419,0.6479,0.5186,0.4113,0.3485,0.2527,0.1875,0.1521,0.0862,0.0441,0.0286,-0.0942,0.0,0.0,0.0,0.0,0.0,0.0,0.0,0.0,0.0,0.0,0.0,0.0,0.0,0.0,0.0,0.0,0.0,0.0,0.0,0.0,-0.4193,0.0,0.0,0.0,0.0,0.0,0.0,0.0,0.0,0.0,0.0,-0.844,-0.9595,-1.0266,-1.0473,0.0,0.0,0.0,0.0,-1.0586,-1.1477,-1.2974,-1.3554,-1.2253,-1.5797,-1.817,-1.6733,0.0,0.0,-1.5276,-1.2603,-1.0607,-0.9834,-0.5632,-0.3641,-0.9413,-0.8695,-0.7821,-0.8031,-0.8154,-0.8781,-0.972,-1.0233,-1.0354,0.2237,0.0,0.0,0.0,0.0,0.1092,0.0853,-0.0332,0.2383,0.2457,0.0629,0.148,0.0,0.0,0.0,0.0,0.0,0.0,0.4545,0.7614,0.7049,0.6646,0.6448,0.5788,0.5333,0.507,0.4407,0.4245,0.4424,0.2424,0.0136,-0.2292,0.0,0.0,0.0,0.0,-0.021,0.1345,0.3636,0.5559,0.7061,0.5513,0.41,0.2883,0.2347,0.2102,0.2132,0.1589,0.1455,0.179,-0.0276,0.0,0.0,0.0,0.0,0.0,0.0,0.0,0.0,0.0,0.0,0.0,0.0,0.0,0.0,0.0,0.0,0.0,0.0,0.0,-0.3465,-0.3739,-0.3572,0.0,0.0,0.0,0.0,0.0,0.0,0.0,0.0,0.0,-0.6633,-0.8606,-1.0212,0.0,0.0,-1.0765,-1.1927,-1.1378,-1.0688,-1.0327,0.0,0.0,0.0,-1.3396,-1.5465,-1.5687,-1.6425,-1.6588,-1.5441,-1.3088,-1.026,-0.7123,-0.5238,-0.3798,-0.182,-0.0624,-0.0261,-0.1382,-0.2745,-0.434,-0.6255,-0.7975,-0.9163,0.3238,0.2215,0.1676,0.1066,0.0532,0.0906,0.0846,0.0548,0.2032,0.2104,0.1252,0.2561,0.1978,0.0056,0.0643,0.0,0.0,0.0,0.4297,0.5956,0.5675,0.563,0.5794,0.5276,0.5065,0.5147,0.4562,0.4361,0.4507,0.4138,0.2941,0.0867,0.0,0.0,-0.1812,-0.0134,0.1489,0.2982,0.4677,0.6038,0.6985,0.5186,0.3776,0.2907,0.2299,0.2136,0.2462,0.2323,0.2442,0.2854,0.1397,0.0722,0.0,0.0,0.0,0.0,0.0,0.0,0.0,0.0,0.0,0.0,0.0,-0.3941,0.0,0.0,0.0,0.0,-0.3019,-0.3547,-0.2513,-0.3826,0.0,0.0,0.0,0.0,0.0,0.0,0.0,-0.2013,-0.2355,-0.3568,-0.6292,-0.7721,-0.8995,-1.0505,-1.0101,-0.9929,-1.0708,0.0,-0.8519,-0.7906,-0.8338,-0.8641,-0.845,-1.116,-1.3725,-1.5008,-1.4439,-1.3928,-1.3431,-1.1219,-0.827,-0.5003,-0.3205,-0.1171,0.2882,0.5252,0.5625,0.2655,0.0468,-0.1206,-0.2118,-0.3776,-0.5135,0.4338,0.3691,0.2507,0.1914,0.179,0.1609,0.1575,0.1591,0.1075,0.1102,0.1571,0.2291,0.2536,0.2448,0.3645,0.0,0.0,0.4974,0.4678,0.3391,0.4717,0.493,0.4174,0.4171,0.4342,0.4691,0.465,0.4396,0.3983,0.4067,0.3901,0.3414,0.0953,0.0023,0.0656,0.1138,0.2458,0.462,0.5311,0.5923,0.6436,0.4469,0.3358,0.3269,0.2316,0.2084,0.2678,0.3108,0.3442,0.3657,0.3639,0.384,0.4202,0.0,0.0,0.0,0.0,0.0,0.0,0.0,0.0,0.0,0.0,0.0,0.0,0.0,0.0,0.0,-0.2967,0.0,-0.1911,-0.4366,0.0,0.0,0.0,-0.3192,-0.2831,-0.0,0.1,-0.1376,0.0,0.0,0.0,0.0,-0.7113,-0.8398,-0.8732,-0.8934,-0.9053,-0.6815,-0.4893,-0.4754,-0.4475,-0.4575,-0.5486,-0.9045,-1.2407,-1.3903,-1.1856,-0.9947,-0.981,-0.7789,-0.5184,-0.2442,0.0048,0.263,0.5565,0.8421,0.9434,0.4884,0.2753,0.1732,0.2169,0.1082,-0.0108,0.4043,0.203,0.2008,0.1945,0.1884,0.1967,0.1986,0.2017,0.313,0.327,0.2702,0.3982,0.4228,0.3767,0.4468,0.4741,0.4719,0.4839,0.4767,0.4531,0.4753,0.4823,0.4713,0.4603,0.4635,0.4753,0.4301,0.4153,0.424,0.3808,0.3765,0.4039,0.3336,0.3199,0.3656,0.4314,0.5049,0.5852,0.6676,0.6555,0.5466,0.4739,0.3963,0.308,0.2148,0.231,0.3685,0.4216,0.4657,0.4982,0.473,0.4516,0.4446,0.2388,0.0,0.0,0.0,0.0,0.0,0.0,0.0,0.0,0.0,0.1284,0.2286,0.0,0.1685,0.0,0.0176,-0.2463,-0.3811,-0.4953,0.0,0.0,-0.5314,-0.3612,-0.1321,-0.0794,-0.0808,-0.0992,-0.2039,-0.3591,-0.5743,-0.6036,-0.6344,-0.7128,-0.7571,-0.8261,-0.9481,-0.6315,-0.3256,-0.2055,-0.1893,-0.2395,-0.359,-0.7073,-1.0155,-1.1227,-0.881,-0.684,-0.7013,-0.5126,-0.2518,0.0564,0.1687,0.3493,0.6597,0.8113,0.865,0.8469,0.8872,0.8258,0.5039,0.2724,0.0737,0.4,0.264,0.251,0.2433,0.2389,0.2389,0.2346,0.2392,0.3335,0.343,0.2945,0.4277,0.4799,0.4739,0.5283,0.5459,0.5331,0.5174,0.51,0.511,0.4998,0.5094,0.5368,0.5133,0.5056,0.5128,0.4414,0.433,0.4773,0.4444,0.4466,0.4819,0.487,0.4999,0.5179,0.5385,0.5781,0.6383,0.6835,0.6552,0.5547,0.5031,0.4301,0.3321,0.2878,0.3034,0.3865,0.4707,0.5424,0.5939,0.5857,0.5614,0.5213,0.3838,0.2763,0.0,0.0,0.0,0.0,0.0,0.0,0.0,0.0,0.0,0.0,0.0,0.4234,0.0,0.1372,0.0,-0.269,-0.3971,-0.5009,-0.5627,-0.4973,-0.3681,-0.1776,-0.1419,-0.1386,-0.1742,-0.1871,-0.2696,-0.4698,-0.5447,-0.5928,-0.6355,-0.6649,-0.7195,-0.7838,-0.5013,-0.1752,0.0246,0.0959,0.0371,-0.1677,-0.456,-0.6957,-0.7972,-0.6407,-0.4544,-0.3875,-0.215,-0.0,0.1971,0.2611,0.3598,0.6307,0.7031,0.766,0.9157,0.9657,0.91,0.7577,0.5994,0.4244,0.3899,0.3969,0.3347,0.3099,0.3099,0.2864,0.2778,0.2805,0.2832,0.2869,0.2999,0.4115,0.4873,0.5382,0.6055,0.6224,0.5986,0.5885,0.5802,0.5702,0.5543,0.5722,0.6125,0.5787,0.5691,0.5745,0.4849,0.4773,0.5506,0.5724,0.5777,0.5716,0.5859,0.596,0.5983,0.5581,0.5753,0.6513,0.6616,0.6484,0.6046,0.5432,0.4696,0.3924,0.3885,0.3955,0.3998,0.5181,0.6114,0.6671,0.6989,0.6875,0.631,0.5537,0.4792,0.0,0.3209,0.0,0.0,0.0,0.0,0.0,0.0,0.0,0.0,0.6334,0.623,0.4179,0.1905,0.0285,-0.0366,-0.2149,-0.3415,-0.3656,-0.342,-0.3176,-0.2978,-0.1747,-0.1333,-0.2679,-0.1779,-0.1828,-0.3871,-0.4886,-0.5449,-0.5714,-0.5801,-0.5828,-0.5566,-0.3224,-0.0408,0.2091,0.3282,0.2227,-0.0598,-0.2285,-0.3762,-0.5167,-0.4356,-0.2744,-0.1371,0.029,0.1715,0.2379,0.2979,0.3969,0.5577,0.601,0.681,0.8566,0.7812,0.743,0.8885,0.8448,0.8293,0.2969,0.3159,0.3468,0.3591,0.364,0.3668,0.3563,0.3444,0.3541,0.3807,0.4239,0.518,0.5591,0.563,0.6657,0.713,0.7106,0.7077,0.7153,0.7322,0.7055,0.6927,0.698,0.6941,0.6886,0.6748,0.5493,0.5525,0.6769,0.7607,0.7584,0.6815,0.6421,0.6493,0.6989,0.0,0.0,0.0,0.7667,0.7521,0.6393,0.6242,0.5896,0.5302,0.407,0.0,0.5868,0.7058,0.7563,0.7383,0.7981,0.0,0.0,0.0,0.0,0.0,0.0,0.0,0.0,0.0,0.0,0.0,0.9681,0.8852,0.8011,0.7691,0.7306,0.6651,0.4065,0.1733,0.0135,-0.0315,-0.187,-0.4877,-0.2443,-0.0952,-0.2304,-0.1329,-0.089,-0.1895,-0.1782,-0.2171,-0.3564,-0.407,-0.4294,-0.468,-0.4802,-0.4324,-0.3232,-0.1315,0.0837,0.2883,0.2968,0.1594,-0.1075,-0.1478,-0.195,-0.2827,-0.2507,-0.1555,-0.0682,0.0045,0.1233,0.2478,0.3481,0.4182,0.5213,0.5564,0.6032,0.7105,0.6471,0.6228,0.7602,0.6495,0.4923,0.3081,0.0,0.3819,0.4032,0.0,0.4211,0.413,0.3945,0.3848,0.4055,0.4567,0.5518,0.5987,0.6078,0.7345,0.7779,0.7613,0.7732,0.7834,0.7875,0.7656,0.7692,0.794,0.7793,0.7866,0.808,0.6701,0.6854,0.8345,0.868,0.8503,0.7885,0.736,0.7249,0.7603,0.8088,0.8107,0.7653,0.8214,0.8154,0.7494,0.7375,0.6911,0.6059,0.0,0.0,0.0,0.0,0.0,0.0,0.0,0.0,0.0,0.0,0.0,0.7367,0.6649,0.723,0.9386,0.931,0.9643,1.0764,1.0007,0.9047,0.8074,0.7816,0.7456,0.6817,0.4471,0.2712,0.1973,0.1093,-0.0574,-0.3103,-0.1152,0.0151,-0.0419,0.0321,0.0756,0.0,-0.011,-0.0555,-0.1664,-0.301,-0.3461,-0.3224,-0.3291,-0.2781,-0.1125,-0.005,0.1172,0.2797,0.272,0.1703,-0.0091,-0.0817,-0.0989,-0.1557,-0.1406,-0.0987,-0.0538,-0.0224,0.0357,0.1557,0.2485,0.3365,0.4239,0.4774,0.5308,0.5916,0.548,0.4669,0.4624,0.4302,0.3949,0.3612,0.4045,0.4305,0.4443,0.4524,0.4573,0.4483,0.4293,0.0,0.0,0.0,0.5611,0.6134,0.6363,0.7667,0.811,0.7893,0.8112,0.8245,0.8231,0.8131,0.8341,0.8805,0.8555,0.8743,0.9287,0.8431,0.8624,0.9807,0.947,0.9138,0.8856,0.8321,0.8071,0.8235,0.9231,0.954,0.9034,0.8945,0.8803,0.8594,0.853,0.7912,0.6762,0.7269,0.7793,0.8339,0.791,0.7937,0.8624,0.8935,0.8864,0.8431,0.9216,0.9253,0.8219,0.8838,0.9493,0.9979,1.0236,1.035,1.038,0.8987,0.7866,0.7238,0.7412,0.7129,0.6048,0.4486,0.3687,0.3876,0.2533,0.0946,-0.0563,0.0519,0.1343,0.1186,0.2155,0.2525,0.2107,0.1794,0.1388,0.0499,-0.1446,-0.2623,-0.1774,-0.1578,-0.0941,0.0804,0.1232,0.1531,0.259,0.2684,0.2095,0.0939,0.009,-0.0449,-0.072,-0.0855,-0.0764,-0.0584,-0.0494,-0.018,0.0582,0.1382,0.2352,0.3271,0.3989,0.457,0.5087,0.4565,0.3507,0.2117,0.2646,0.3372,0.4122,0.4524,0.4735,0.4863,0.4892,0.4684,0.4532,0.4391,0.4472,0.4593,0.4818,0.5815,0.6126,0.596,0.7222,0.79,0.8068,0.8268,0.8645,0.0,0.9157,0.9218,0.9304,0.96,0.9778,0.9973,1.0894,1.1065,1.0486,1.0121,0.9845,0.9568,0.8889,0.8716,0.9212,1.0046,1.0606,1.09,1.0661,1.0031,0.8953,0.9347,0.9106,0.8201,0.8301,0.8488,0.8644,0.8818,0.9001,0.9199,1.0091,1.0375,0.9874,1.0714,1.0798,0.9794,1.0062,1.0562,1.1142,1.0565,0.9642,0.8477,0.7399,0.6805,0.6848,0.6967,0.6434,0.5168,0.5129,0.5038,0.4403,0.4157,0.3293,0.1827,0.2906,0.324,0.1624,0.2679,0.3687,0.3859,0.2898,0.195,0.1277,0.0278,-0.0446,-0.0279,0.022,0.1348,0.2718,0.2895,0.2688,0.3051,0.2818,0.2237,0.1521,0.103,0.0403,-0.0045,-0.0494,-0.0764,-0.0719,-0.0405,-0.0,0.0672,0.134,0.2184,0.294,0.3435,0.3748,0.3829,0.3656,0.3123,0.2135,0.2138,0.2095,0.5017,0.5449,0.5115,0.5,0.5039,0.4803,0.4797,0.4919,0.5068,0.5025,0.4922,0.5963,0.6335,0.6226,0.7328,0.7968,0.8231,0.8391,0.8712,0.9178,0.9205,0.9393,0.9617,0.9912,1.0326,1.0833,1.1159,1.1231,1.0896,0.9873,0.9409,0.9548,0.9372,0.943,0.9797,1.0301,1.0711,1.0962,1.095,1.0653,1.0124,0.9953,0.9532,0.8798,0.8798,0.8745,0.8605,0.8959,0.9197,0.9316,1.0252,1.0597,1.0255,1.1086,1.1333,1.0783,1.1012,1.1223,1.1287,1.0346,0.9331,0.8296,0.7393,0.6551,0.5837,0.6079,0.5826,0.4713,0.5037,0.5043,0.4427,0.4441,0.4457,0.4396,0.4582,0.441,0.4074,0.4029,0.4221,0.4012,0.3139,0.2296,0.1832,0.156,0.1284,0.1172,0.1981,0.3169,0.3993,0.3918,0.3653,0.3496,0.2943,0.2366,0.1789,0.1029,0.0447,0.0045,-0.0404,-0.0763,-0.0988,-0.0674,-0.0404,-0.0269,0.0581,0.1518,0.214,0.2768,0.3176,0.3445,0.3265,0.2771,0.1964,0.1563,0.1341,0.5825,0.6213,0.5512,0.5175,0.5185,0.5125,0.5152,0.5265,0.5519,0.538,0.5153,0.6203,0.6597,0.6578,0.7447,0.7984,0.8262,0.8432,0.8695,0.9015,0.9108,0.9372,0.9773,0.9987,1.0487,1.114,1.0788,1.073,1.0797,0.9435,0.894,0.9349,0.9555,0.9817,1.0149,1.0401,1.0564,1.0651,1.0754,1.072,1.0576,1.0201,0.9745,0.9138,0.9126,0.8995,0.8732,0.9053,0.9291,0.9409,1.0121,1.0439,1.0257,1.0978,1.1367,1.1214,1.1656,1.1611,1.0875,0.9831,0.8862,0.8004,0.7224,0.6251,0.5212,0.5346,0.5187,0.4496,0.467,0.4765,0.4337,0.4581,0.5153,0.6019,0.5549,0.5298,0.5896,0.5205,0.4451,0.3906,0.3286,0.2717,0.2437,0.24,0.2402,0.2504,0.3412,0.4124,0.4378,0.4517,0.4279,0.3835,0.3208,0.2632,0.2008,0.1072,0.0447,0.0179,-0.0314,-0.0673,-0.0896,-0.0717,-0.0583,-0.0582,0.0268,0.1295,0.1739,0.2366,0.2951,0.322,0.309,0.2593,0.1695,0.1431,0.1165,0.6291,0.6244,0.5957,0.5643,0.5449,0.5807,0.5611,0.5169,0.5555,0.5664,0.5584,0.6502,0.69,0.6865,0.7415,0.786,0.8138,0.8421,0.8684,0.8878,0.9139,0.9477,0.9799,0.9881,1.0142,1.0518,1.0221,1.0082,1.0087,0.9215,0.8922,0.9264,0.921,0.9579,1.0215,1.0318,1.0404,1.051,1.0298,0.9928,0.9422,0.9841,0.9766,0.9116,0.9459,0.9507,0.9169,0.9556,0.9677,0.9614,0.986,0.9986,0.9944,1.0596,1.0922,1.0695,1.1746,1.176,1.0266,0.9034,0.795,0.6707,0.5945,0.5408,0.5161,0.5018,0.4591,0.4148,0.4466,0.4499,0.3937,0.4943,0.5517,0.5358,0.5705,0.6032,0.5661,0.4874,0.4344,0.4458,0.3612,0.3234,0.3125,0.291,0.2961,0.3387,0.3893,0.4466,0.4804,0.466,0.4379,0.4147,0.37,0.3126,0.2457,0.1566,0.0895,0.0626,-0.009,-0.0448,-0.0313,-0.0178,-0.0045,0.0178,0.0982,0.1875,0.2457,0.2907,0.2904,0.2951,0.2865,0.264,0.1966,0.17,0.1478,0.7011,0.7153,0.6608,0.6257,0.6094,0.6117,0.6093,0.5972,0.6261,0.6375,0.6403,0.6999,0.7158,0.6938,0.7262,0.7559,0.7841,0.8189,0.8559,0.8878,0.9245,0.9649,1.0066,1.0005,1.015,1.039,0.9823,0.9515,0.9512,0.9188,0.9288,0.9813,0.9772,1.0037,1.0643,1.0322,1.0178,1.0242,0.9786,0.9266,0.888,0.912,0.9197,0.8981,0.9073,0.9016,0.881,0.9096,0.9266,0.9166,0.9552,0.9725,0.9701,1.0609,1.1161,1.1287,1.2252,1.213,1.0449,0.9177,0.7954,0.6896,0.5947,0.5336,0.5182,0.4937,0.4646,0.4355,0.4439,0.4502,0.4299,0.4753,0.5188,0.5426,0.5602,0.5661,0.5878,0.5065,0.4338,0.3953,0.3467,0.3175,0.3171,0.3299,0.371,0.4301,0.4583,0.4758,0.5088,0.5096,0.4883,0.4409,0.4144,0.3615,0.2726,0.2105,0.1569,0.112,0.0582,0.0224,0.0045,0.0268,0.0491,0.0757,0.1647,0.2448,0.307,0.3429,0.3561,0.3255,0.2818,0.2684,0.2366,0.2284,0.2018,0.765,0.7747,0.7417,0.6954,0.646,0.6379,0.6342,0.6296,0.6412,0.6514,0.6631,0.7028,0.7116,0.7015,0.7102,0.7335,0.7689,0.8011,0.8376,0.8814,0.9149,0.9586,0.9978,0.9637,0.968,0.9826,0.9039,0.8725,0.892,0.9235,0.9629,1.0254,1.0348,1.0631,1.1035,1.0715,1.0569,1.0525,0.9932,0.9425,0.9113,0.9004,0.8843,0.8577,0.8726,0.8717,0.849,0.9036,0.9288,0.9207,0.9484,0.9623,0.967,1.0524,1.1251,1.1771,1.2278,1.1879,1.0294,0.9064,0.7966,0.7072,0.6238,0.5623,0.5349,0.5123,0.4951,0.489,0.4818,0.4806,0.4644,0.4803,0.5269,0.5943,0.5781,0.5836,0.6041,0.526,0.4405,0.3708,0.3276,0.313,0.3403,0.3793,0.4234,0.4621,0.4789,0.4952,0.5146,0.5236,0.5029,0.4437,0.4188,0.3612,0.2729,0.2286,0.2022,0.1596,0.1052,0.0642,0.0545,0.0955,0.1437,0.2022,0.2546,0.3023,0.3558,0.3957,0.4089,0.3785,0.3344,0.2948,0.2943,0.2821,0.2556,0.8095,0.7995,0.8452,0.775,0.6431,0.6657,0.6303,0.5727,0.5676,0.5727,0.5992,0.6387,0.6686,0.6918,0.6859,0.7245,0.7817,0.7954,0.8183,0.8518,0.8755,0.9041,0.936,0.8595,0.8421,0.8856,0.8071,0.778,0.8075,0.9063,0.9851,1.0414,1.0824,1.116,1.1429,1.176,1.1958,1.1591,1.1043,1.0644,1.0246,0.9737,0.8906,0.8129,0.853,0.89,0.8942,0.9671,1.0099,1.0118,0.9813,0.9686,0.9731,1.03,1.0993,1.158,1.1444,1.0732,0.9453,0.8468,0.7682,0.7004,0.6436,0.6048,0.571,0.5499,0.5488,0.5658,0.5539,0.53,0.5024,0.5523,0.6069,0.6372,0.6742,0.6671,0.6224,0.5471,0.4721,0.4023,0.335,0.3387,0.4457,0.4519,0.434,0.4379,0.4572,0.4881,0.5092,0.4894,0.4629,0.4333,0.3737,0.2934,0.2729,0.2464,0.2096,0.1903,0.1645,0.1194,0.1716,0.2272,0.273,0.3167,0.349,0.3778,0.4092,0.4228,0.4224,0.3961,0.3565,0.3344,0.3388,0.3129,0.2862,0.8269,0.8087,0.8094,0.7746,0.7222,0.6948,0.6724,0.6557,0.6391,0.6431,0.6528,0.6515,0.6809,0.7311,0.6286,0.6447,0.7364,0.766,0.7982,0.8254,0.859,0.8935,0.9184,0.87,0.8545,0.8575,0.7959,0.8009,0.8763,0.957,1.0495,1.1417,1.1497,1.1587,1.1837,1.1802,1.1788,1.1808,1.1142,1.0599,1.03,0.9554,0.8885,0.8567,0.8993,0.9137,0.8856,0.9554,1.0001,1.0141,0.9866,0.98,0.9935,1.0449,1.0972,1.1292,1.1091,1.0324,0.9194,0.8368,0.7593,0.6988,0.6696,0.6284,0.5739,0.5788,0.5958,0.5846,0.5944,0.5897,0.5986,0.6066,0.6128,0.6213,0.6459,0.653,0.6054,0.5507,0.502,0.4666,0.4078,0.3946,0.4602,0.4852,0.4785,0.461,0.4847,0.5036,0.506,0.5089,0.4928,0.4521,0.4132,0.3734,0.299,0.264,0.24,0.2521,0.2472,0.2332,0.2619,0.2626,0.2957,0.3161,0.3697,0.4176,0.4355,0.4583,0.4535,0.4495,0.4052,0.37,0.3788,0.335,0.3087,0.8184,0.8033,0.7744,0.751,0.7388,0.6884,0.6784,0.6899,0.662,0.6498,0.6556,0.6493,0.6622,0.6618,0.5909,0.5982,0.6841,0.7225,0.7609,0.8063,0.8375,0.8749,0.9023,0.8547,0.8461,0.8663,0.8419,0.8594,0.9239,0.9861,1.069,1.1608,1.1696,1.1805,1.1965,1.2014,1.2044,1.1782,1.1343,1.0922,1.0471,0.98,0.9348,0.9273,0.9459,0.9375,0.8963,0.9647,1.0074,1.0083,1.0052,1.0131,1.0426,1.064,1.0861,1.1004,1.0856,1.0261,0.9336,0.8672,0.8143,0.7557,0.722,0.6683,0.5991,0.6209,0.6273,0.6213,0.6362,0.6663,0.6791,0.668,0.6449,0.6349,0.646,0.641,0.6101,0.5911,0.5567,0.5084,0.4788,0.4823,0.5292,0.5336,0.5309,0.5167,0.5264,0.5248,0.5208,0.5193,0.5188,0.467,0.4543,0.4052,0.3394,0.2862,0.2592,0.2675,0.2716,0.2848,0.3021,0.2979,0.3023,0.3224,0.3649,0.422,0.4618,0.4801,0.4893,0.4941,0.4504,0.3972,0.3836,0.348,0.3129,0.7927,0.7763,0.752,0.7262,0.702,0.6689,0.6439,0.6518,0.6109,0.5945,0.5958,0.6213,0.5969,0.5403,0.5711,0.6077,0.6354,0.6626,0.715,0.7852,0.8142,0.8522,0.8923,0.8054,0.8041,0.8776,0.9136,0.9165,0.9233,0.9976,1.051,1.0758,1.1658,1.1939,1.1741,1.248,1.2579,1.1883,1.1748,1.1544,1.0967,1.0517,1.0154,0.9846,0.9785,0.9576,0.9226,1.0045,1.0355,1.0134,1.0291,1.0719,1.0978,1.0854,1.0665,1.0742,1.07,1.0368,0.9771,0.9358,0.8935,0.8554,0.8063,0.7413,0.6755,0.6684,0.675,0.6753,0.7029,0.7229,0.7427,0.741,0.7228,0.6972,0.6903,0.6732,0.6464,0.6602,0.6436,0.5415,0.5366,0.5922,0.6481,0.6192,0.5746,0.5813,0.5692,0.554,0.5502,0.5392,0.5053,0.4845,0.4723,0.4324,0.3707,0.306,0.2832,0.27,0.2677,0.2733,0.2993,0.3029,0.2997,0.3166,0.3612,0.4176,0.4757,0.4937,0.4845,0.4806,0.4456,0.4104,0.3748,0.3347,0.2948,0.783,0.7569,0.7303,0.7317,0.7399,0.7033,0.6983,0.716,0.6732,0.6416,0.6243,0.6145,0.5798,0.5477,0.5588,0.5873,0.6209,0.6414,0.6844,0.7594,0.8102,0.8353,0.8396,0.8446,0.8465,0.8558,0.8804,0.9291,0.9842,1.0429,1.1028,1.1583,1.1985,1.2139,1.1978,1.2349,1.209,1.1306,1.1309,1.106,1.0353,1.0129,0.988,0.9608,0.9697,0.9623,0.9325,0.9899,1.0118,0.9889,1.0035,1.0238,1.0463,1.0757,1.081,1.0733,1.087,1.0622,0.9867,0.9293,0.887,0.8483,0.8319,0.7762,0.697,0.7522,0.7647,0.7164,0.728,0.7606,0.7753,0.7771,0.7676,0.7365,0.7306,0.7233,0.7026,0.7149,0.6733,0.5966,0.6663,0.7121,0.6598,0.6182,0.6314,0.6178,0.6081,0.5992,0.5906,0.5782,0.5669,0.5366,0.5067,0.4517,0.3776,0.3224,0.3004,0.2832,0.2738,0.2679,0.2906,0.2965,0.2979,0.315,0.3557,0.4049,0.4626,0.4849,0.4757,0.4666,0.436,0.4008,0.3568,0.317,0.2771,0.7675,0.7384,0.7118,0.7165,0.7412,0.722,0.7274,0.7471,0.7222,0.6894,0.6556,0.6252,0.5733,0.527,0.5183,0.5356,0.5696,0.591,0.66,0.7503,0.7967,0.8298,0.8586,0.9369,0.9376,0.89,0.9026,0.9604,1.0364,1.0598,1.1055,1.1713,1.2024,1.2034,1.1865,1.2108,1.1824,1.1067,1.1062,1.0798,1.016,0.9862,0.9684,0.9587,0.9523,0.951,0.9444,0.9672,0.9723,0.9684,0.9744,1.0022,1.0412,1.0702,1.0794,1.0944,1.1085,1.0985,1.0458,1.0003,0.9318,0.8912,0.8558,0.8123,0.7489,0.8147,0.8035,0.7747,0.8063,0.83,0.8196,0.8305,0.8234,0.8027,0.7848,0.7781,0.7721,0.7591,0.7444,0.7177,0.7702,0.7784,0.755,0.6963,0.7008,0.6795,0.6588,0.6361,0.622,0.6012,0.5864,0.5636,0.5242,0.4595,0.3764,0.3403,0.3181,0.2992,0.2832,0.273,0.2799,0.2763,0.2752,0.3014,0.3391,0.37,0.4232,0.4412,0.4364,0.4316,0.418,0.3744,0.3265,0.3084,0.2726,0.7424,0.725,0.7002,0.7035,0.7173,0.7279,0.7452,0.7531,0.7393,0.7112,0.6725,0.6295,0.5604,0.4792,0.4824,0.4969,0.4941,0.5657,0.6522,0.7456,0.8041,0.8594,0.9471,1.0027,0.9939,0.9556,0.9578,1.0051,1.0676,1.0626,1.0615,1.1488,1.1921,1.1809,1.1752,1.2059,1.1794,1.1027,1.1082,1.0777,0.9931,0.9835,0.9657,0.9674,0.9355,0.9312,0.9502,0.9444,0.9292,0.9346,0.9676,1.0164,1.0732,1.0593,1.0704,1.1022,1.1324,1.1343,1.132,1.0937,1.031,0.9502,0.8789,0.8165,0.817,0.8127,0.8268,0.8346,0.8907,0.916,0.8869,0.9071,0.9212,0.9013,0.8641,0.8313,0.8317,0.7843,0.7801,0.834,0.8389,0.8345,0.8889,0.8108,0.7804,0.7542,0.7188,0.6795,0.6462,0.6274,0.6024,0.5847,0.5684,0.5253,0.4612,0.3741,0.357,0.3575,0.324,0.2856,0.272,0.2633,0.2654,0.2934,0.3164,0.3468,0.3766,0.4002,0.4076,0.3968,0.3704,0.3309,0.3087,0.2907,0.264,0.7388,0.7138,0.7071,0.7404,0.7921,0.8,0.8183,0.8395,0.7725,0.7189,0.6683,0.6099,0.542,0.4644,0.5176,0.5324,0.5308,0.617,0.69,0.7529,0.8504,0.9289,0.974,0.9526,0.9479,0.9649,0.9831,1.0113,1.0496,1.122,1.1757,1.2053,1.2435,1.2522,1.2329,1.2253,1.1714,1.0858,1.0613,1.0012,0.9156,0.9532,0.9316,0.8601,0.9189,0.9439,0.9374,0.9417,0.9386,0.9359,0.9913,1.0026,0.9978,1.0303,1.054,1.0449,1.0812,1.0858,1.0542,1.094,1.0578,0.9253,0.909,0.8765,0.7774,0.8371,0.8491,0.852,0.9056,0.9686,0.9665,1.011,1.0577,1.0816,0.9739,0.8694,0.8306,0.7916,0.8031,0.8592,0.9313,0.9305,0.8744,0.8442,0.8132,0.7786,0.7413,0.7107,0.6853,0.6752,0.6632,0.6643,0.6522,0.6097,0.5524,0.4513,0.4038,0.4165,0.3688,0.2951,0.2731,0.2585,0.2713,0.2942,0.3128,0.3416,0.369,0.3942,0.3812,0.3694,0.3513,0.3209,0.3004,0.2815,0.2417,0.7427,0.7475,0.744,0.7828,0.8451,0.8613,0.8615,0.8444,0.7967,0.7356,0.6751,0.6171,0.5504,0.4987,0.5357,0.5306,0.5096,0.6299,0.7086,0.773,0.9021,0.9905,1.0111,0.9683,0.9763,1.0054,1.0011,1.033,1.0887,1.1702,1.2098,1.2442,1.2871,1.2831,1.2464,1.2426,1.1757,1.0788,1.0687,1.0272,0.8954,0.9715,0.9544,0.8881,0.9368,0.9712,1.0007,1.027,1.0217,0.9978,1.0005,0.9953,0.9965,1.0319,1.0677,1.0693,1.1202,1.1231,1.0902,1.1118,1.0576,0.9461,0.9392,0.9023,0.8591,0.9019,0.9284,0.9614,1.0347,1.0729,1.0813,1.1072,1.1288,1.1328,1.0531,0.9784,0.9435,0.8664,0.8623,0.9197,0.9612,0.9702,0.8588,0.8534,0.8233,0.7838,0.7554,0.735,0.7176,0.723,0.7224,0.7182,0.7104,0.6693,0.6553,0.5772,0.4704,0.4732,0.4065,0.3245,0.2883,0.2678,0.2806,0.2983,0.3161,0.33,0.3506,0.3644,0.3536,0.3422,0.3309,0.3188,0.2943,0.2813,0.2404,0.7534,0.8096,0.8018,0.831,0.8792,0.8976,0.8741,0.8279,0.7947,0.7517,0.6927,0.6377,0.582,0.545,0.5519,0.5175,0.494,0.6432,0.7375,0.8353,0.9588,1.0426,1.0509,1.0352,1.0311,1.0368,1.0136,1.0551,1.1107,1.1475,1.2049,1.252,1.2881,1.2849,1.2529,1.2579,1.1759,1.0938,1.1261,1.0897,0.9909,1.0364,1.0416,0.9766,0.9776,1.0387,1.0981,1.1342,1.1277,1.0765,1.0062,1.0205,1.0658,1.0705,1.1012,1.1681,1.1822,1.193,1.1929,1.1458,1.0957,1.0098,0.9692,0.9512,0.9619,0.9958,1.0364,1.0985,1.1987,1.2218,1.2219,1.1969,1.1942,1.1909,1.1559,1.1391,1.1327,0.9973,0.9136,1.0124,0.9742,0.9267,0.8956,0.8613,0.8252,0.8115,0.7805,0.7562,0.7436,0.7461,0.7467,0.7473,0.7356,0.725,0.7222,0.7132,0.6001,0.5198,0.4318,0.3615,0.3135,0.2927,0.2942,0.3056,0.3179,0.3203,0.3229,0.3271,0.3282,0.3251,0.3254,0.3091,0.2941,0.2879,0.2609,0.8103,0.8555,0.8684,0.8987,0.9271,0.9124,0.8911,0.8688,0.7818,0.739,0.6988,0.6271,0.594,0.5904,0.6067,0.608,0.6156,0.7361,0.8689,1.0,1.003,1.0664,1.0754,1.0475,1.0103,1.0054,1.0136,1.0293,1.0702,1.146,1.2017,1.2372,1.2715,1.2822,1.2763,1.2528,1.2229,1.1598,1.1666,1.1277,1.0726,1.117,1.1378,1.0837,1.0864,1.1064,1.1442,1.189,1.1785,1.1348,1.1139,1.1044,1.091,1.0848,1.1021,1.1268,1.1789,1.1853,1.1512,1.2217,1.248,1.1219,1.0864,1.0731,1.0986,1.0918,1.1214,1.1777,1.257,1.318,1.3341,1.3112,1.3153,1.3243,1.2611,1.2274,1.2831,1.1922,1.103,1.0547,0.9969,0.9427,0.9218,0.9047,0.8698,0.8403,0.8078,0.7777,0.762,0.7578,0.7526,0.7487,0.7626,0.7505,0.7436,0.7325,0.6458,0.5592,0.4747,0.4018,0.3528,0.3239,0.3248,0.3174,0.3108,0.3134,0.3258,0.3227,0.334,0.3235,0.3172,0.3147,0.3097,0.3016,0.2864,0.8611,0.9076,0.9262,0.9442,0.9592,0.9325,0.8968,0.8488,0.7841,0.7391,0.7207,0.6842,0.6772,0.6676,0.6963,0.7037,0.7216,0.8214,0.9503,1.049,1.0608,1.0702,1.0846,1.0547,1.0237,1.0233,1.019,1.03,1.0812,1.1418,1.2026,1.2283,1.2618,1.2619,1.2656,1.2614,1.2341,1.2031,1.2184,1.1911,1.1376,1.2351,1.2995,1.2559,1.2288,1.2112,1.2675,1.2611,1.2578,1.2415,1.2297,1.1832,1.1223,1.1113,1.114,1.1453,1.1715,1.1958,1.1984,1.2612,1.3044,1.2178,1.2102,1.2203,1.2363,1.2373,1.2695,1.3072,1.3656,1.4301,1.4277,1.38,1.4004,1.4087,1.3158,1.2689,1.3144,1.2728,1.1726,1.0672,0.9562,0.9172,0.8964,0.9166,0.8883,0.8488,0.8429,0.809,0.7365,0.7325,0.7331,0.7406,0.7735,0.7753,0.7641,0.7278,0.6671,0.5905,0.5269,0.4577,0.4006,0.3785,0.3566,0.3479,0.3335,0.3398,0.352,0.3484,0.3419,0.3362,0.3329,0.3351,0.3291,0.3123,0.2976,0.9071,0.9561,0.9719,0.98,0.9806,0.9579,0.9022,0.83,0.7964,0.7728,0.753,0.784,0.7739,0.7788,0.8011,0.8066,0.8231,0.8692,0.9865,1.082,1.0667,1.071,1.0694,1.0576,1.0517,1.0667,1.0506,1.0659,1.1023,1.1528,1.1877,1.2234,1.2382,1.2454,1.2425,1.2684,1.2732,1.2358,1.2885,1.308,1.2659,1.3796,1.4468,1.426,1.3797,1.3357,1.3645,1.3591,1.3493,1.3718,1.3388,1.2693,1.1968,1.1577,1.1631,1.2126,1.2434,1.2609,1.2628,1.324,1.3645,1.3085,1.3445,1.3772,1.379,1.415,1.45,1.4749,1.5137,1.5193,1.4808,1.4359,1.4283,1.4205,1.3249,1.284,1.3049,1.2797,1.1755,1.0694,0.9816,0.9316,0.9246,0.9354,0.8988,0.8679,0.862,0.8355,0.761,0.7139,0.7176,0.7267,0.7568,0.7359,0.7187,0.6918,0.6322,0.5727,0.5238,0.4912,0.4359,0.4245,0.4021,0.3744,0.3669,0.3669,0.3657,0.3647,0.3548,0.3486,0.3562,0.3663,0.3529,0.3235,0.3159,0.9497,0.9759,0.9983,1.0031,0.9892,0.9518,0.9239,0.899,0.8374,0.8291,0.8474,0.8411,0.8595,0.886,0.9195,0.9406,0.9451,0.9658,1.0079,1.0761,1.06,1.0438,1.0863,1.0446,1.0395,1.0761,1.0863,1.0972,1.0972,1.1175,1.1628,1.1977,1.2013,1.2129,1.2589,1.2929,1.3224,1.3164,1.365,1.394,1.4456,1.5003,1.5367,1.5211,1.4917,1.4603,1.4193,1.4547,1.4592,1.3762,1.3974,1.3752,1.3205,1.2801,1.257,1.2601,1.3452,1.3787,1.3421,1.4449,1.5007,1.4924,1.4763,1.5194,1.5612,1.5913,1.6008,1.62,1.6045,1.5743,1.5059,1.4704,1.4721,1.4464,1.3782,1.3186,1.3305,1.2742,1.1968,1.1207,1.0391,0.9777,0.9836,0.9859,0.9658,0.9399,0.9138,0.8666,0.7877,0.7424,0.7225,0.7263,0.7354,0.6972,0.6529,0.6209,0.5773,0.512,0.4743,0.4798,0.4525,0.4577,0.4467,0.4076,0.3858,0.3799,0.3788,0.377,0.3762,0.3784,0.3887,0.3989,0.3906,0.3767,0.3762,0.949,0.9793,1.0088,1.001,0.9725,0.9549,0.927,0.8958,0.8635,0.8669,0.8967,0.909,0.9383,0.9757,0.9974,1.0087,0.9976,1.019,1.0446,1.071,1.0549,1.0651,1.1124,1.0549,1.06,1.0922,1.1175,1.1226,1.1124,1.1023,1.1427,1.1931,1.1998,1.2337,1.2958,1.3501,1.37,1.3952,1.4379,1.4944,1.5588,1.6081,1.629,1.6219,1.5808,1.5321,1.5081,1.4754,1.494,1.4696,1.4597,1.4422,1.4153,1.3775,1.3331,1.3145,1.4022,1.4457,1.4072,1.5005,1.5602,1.5475,1.5626,1.6051,1.6645,1.6933,1.7145,1.6917,1.6032,1.5452,1.5206,1.4735,1.4459,1.4324,1.3584,1.3108,1.3074,1.256,1.2224,1.1898,1.1296,1.0801,1.0593,1.053,1.0419,1.0123,0.9769,0.9047,0.8221,0.7841,0.7533,0.7318,0.7356,0.6903,0.6389,0.5977,0.5567,0.4849,0.4522,0.4581,0.4632,0.4688,0.4577,0.4298,0.4079,0.3919,0.3968,0.4009,0.4021,0.4027,0.4113,0.4229,0.4284,0.4319,0.4353,0.9545,0.9832,1.0127,1.0,0.9677,0.9637,0.9399,0.9047,0.9044,0.9182,0.936,0.9732,1.0,1.0173,1.0195,1.0087,0.9865,1.0293,1.0454,1.0718,1.0659,1.0863,1.1074,1.0972,1.082,1.0913,1.1023,1.1326,1.1226,1.1074,1.1427,1.1881,1.216,1.2517,1.3076,1.3621,1.4003,1.4553,1.4903,1.5558,1.6405,1.7035,1.739,1.7347,1.6514,1.6004,1.5842,1.5487,1.5339,1.5324,1.52,1.4982,1.481,1.4568,1.4157,1.3776,1.4408,1.4499,1.4563,1.5393,1.6113,1.5944,1.6565,1.694,1.7265,1.7659,1.7809,1.7036,1.605,1.5183,1.5155,1.4494,1.4172,1.3914,1.3289,1.2572,1.268,1.2595,1.2586,1.2318,1.1995,1.1837,1.1671,1.1506,1.1456,1.1069,1.0713,0.9698,0.8937,0.8428,0.8113,0.7602,0.7332,0.6941,0.649,0.5934,0.5503,0.4908,0.4688,0.4691,0.4743,0.4743,0.4574,0.4408,0.4245,0.4082,0.4193,0.419,0.4135,0.419,0.4304,0.4488,0.4674,0.4996,0.5183,1.0079,1.0205,1.0166,1.0088,0.9961,0.9783,0.9783,0.9848,0.9816,0.9848,0.9761,1.0062,1.0116,1.0043,0.9828,0.9865,0.9917,0.9925,1.0249,1.0718,1.0718,1.0871,1.1074,1.0726,1.0718,1.082,1.0769,1.0913,1.1209,1.1158,1.1427,1.1913,1.2027,1.2221,1.3086,1.3601,1.395,1.4903,1.533,1.6219,1.7585,1.8225,1.8263,1.7876,1.7361,1.6728,1.6432,1.6068,1.6033,1.5718,1.5975,1.5788,1.5337,1.5199,1.4936,1.4799,1.4991,1.5277,1.4831,1.5656,1.6513,1.6526,1.7258,1.785,1.8097,1.8093,1.7879,1.6775,1.6164,1.568,1.5153,1.4697,1.4337,1.3866,1.3266,1.2776,1.2655,1.2178,1.2243,1.2668,1.2346,1.27,1.2815,1.2608,1.2443,1.2061,1.1528,1.0501,0.9604,0.9162,0.8556,0.8036,0.7469,0.7075,0.6331,0.5823,0.5414,0.4894,0.4864,0.4864,0.4853,0.4849,0.4684,0.4519,0.4356,0.4193,0.4193,0.419,0.419,0.4298,0.4467,0.4846,0.521,0.553,0.5774,1.0567,1.0137,1.0235,1.0205,1.0059,1.0019,1.0122,1.0127,0.9842,0.9906,1.0106,0.9923,0.9956,0.9915,0.9865,0.9814,0.9814,0.988,1.0138,1.0616,1.0769,1.0913,1.1015,1.0871,1.0777,1.0699,1.0802,1.1131,1.1388,1.1412,1.1469,1.1872,1.2227,1.2638,1.3263,1.3801,1.4501,1.5383,1.6348,1.7444,1.827,1.8661,1.8562,1.7832,1.7759,1.7154,1.6487,1.6667,1.7087,1.7039,1.7003,1.6255,1.5834,1.5498,1.5051,1.4864,1.4956,1.4912,1.4747,1.5626,1.6117,1.662,1.7269,1.8128,1.8424,1.8141,1.769,1.6818,1.5888,1.5368,1.4928,1.4241,1.3927,1.3553,1.3039,1.2854,1.2465,1.1807,1.1655,1.2206,1.2773,1.3003,1.3241,1.3039,1.2695,1.2272,1.2066,1.1548,1.0583,0.9746,0.9094,0.8503,0.7836,0.722,0.6307,0.5599,0.5354,0.4993,0.5001,0.4993,0.4967,0.4904,0.4809,0.4581,0.4301,0.419,0.419,0.419,0.419,0.4408,0.4684,0.5171,0.5605,0.5651,0.597,1.0985,1.0498,1.0815,1.0746,1.0404,1.0355,1.033,1.0252,0.9785,0.976,0.9923,0.9623,0.9554,0.9717,0.9718,0.9614,0.9614,1.0035,1.03,1.0557,1.082,1.0972,1.0922,1.082,1.068,1.053,1.0751,1.1156,1.1532,1.1764,1.1872,1.2122,1.2693,1.314,1.3591,1.4267,1.5029,1.592,1.7345,1.8293,1.8709,1.8778,1.8458,1.8085,1.7807,1.7466,1.6711,1.6891,1.7933,1.7897,1.7327,1.6563,1.6068,1.5556,1.5165,1.494,1.4855,1.4535,1.4626,1.512,1.565,1.6373,1.7134,1.8231,1.7897,1.7499,1.6948,1.6316,1.5383,1.4922,1.4606,1.3759,1.3397,1.3037,1.2584,1.2538,1.2448,1.2038,1.1908,1.2447,1.2906,1.297,1.3103,1.3176,1.2913,1.244,1.2336,1.2285,1.1383,1.0241,0.9646,0.8918,0.8204,0.7422,0.6371,0.5624,0.531,0.5274,0.528,0.5302,0.5337,0.5123,0.4923,0.4622,0.4317,0.419,0.4135,0.4135,0.4249,0.4684,0.5171,0.5609,0.5991,0.61,0.6568,1.1389,1.1842,1.2245,1.2067,1.1459,1.0702,1.0356,1.0193,0.9865,0.9489,0.9261,0.8978,0.9058,0.9152,0.9256,0.9413,0.9614,1.0035,1.0454,1.082,1.1124,1.1023,1.0922,1.0767,1.0597,1.0606,1.0916,1.1284,1.1678,1.242,1.2742,1.3173,1.3301,1.3629,1.4114,1.48,1.5658,1.6605,1.8012,1.8655,1.8749,1.8714,1.8576,1.8518,1.7948,1.7645,1.8577,1.8207,1.7998,1.7982,1.7618,1.7063,1.6443,1.5869,1.5522,1.5126,1.4763,1.4413,1.4355,1.4935,1.5907,1.6833,1.7544,1.7847,1.7111,1.7069,1.6425,1.5585,1.4914,1.443,1.4164,1.3618,1.3086,1.2842,1.253,1.2488,1.2493,1.2538,1.2437,1.2882,1.3109,1.3217,1.3363,1.3465,1.3175,1.2744,1.2257,1.2246,1.1503,1.0492,1.0032,0.9376,0.8548,0.7604,0.647,0.5969,0.5967,0.6117,0.6191,0.6058,0.5956,0.5582,0.527,0.478,0.4468,0.4271,0.4132,0.4353,0.4625,0.5171,0.5714,0.6253,0.7106,0.7641,0.8171,1.2183,1.2226,1.3061,1.2587,1.1227,1.0785,1.0377,1.0031,0.9519,0.9213,0.8985,0.896,0.9106,0.9309,0.9361,0.9569,0.9984,1.0352,1.0667,1.0871,1.1023,1.1124,1.0972,1.0947,1.0783,1.1001,1.1311,1.2041,1.285,1.3093,1.3812,1.4156,1.4142,1.445,1.4954,1.5615,1.6381,1.7164,1.8172,1.8839,1.8955,1.8724,1.8556,1.8527,1.8391,1.8049,1.841,1.8702,1.8721,1.8602,1.8262,1.7784,1.7264,1.6633,1.5963,1.5423,1.4985,1.462,1.4385,1.4908,1.5599,1.6597,1.7051,1.6945,1.6314,1.6367,1.5902,1.5266,1.48,1.4471,1.4063,1.3503,1.301,1.2802,1.268,1.2631,1.2838,1.3092,1.3433,1.4038,1.3822,1.3676,1.3838,1.396,1.3517,1.3018,1.2535,1.2004,1.1356,1.08,1.0358,0.997,0.9186,0.8807,0.7765,0.7226,0.6768,0.693,0.7087,0.6958,0.6783,0.6218,0.5847,0.5254,0.4752,0.4738,0.4703,0.4698,0.4944,0.5265,0.6131,0.7047,0.7953,0.9013,0.9681,1.2371,1.2204,1.3181,1.2781,1.1499,1.091,1.0401,0.9878,0.9335,0.9045,0.9061,0.9113,0.9316,0.9614,0.9769,1.0035,1.0352,1.0565,1.0769,1.0972,1.1074,1.1124,1.126,1.137,1.1464,1.1619,1.2028,1.2715,1.3661,1.3782,1.4624,1.5279,1.5394,1.559,1.5773,1.6777,1.7429,1.7979,1.8682,1.8972,1.9071,1.8792,1.8571,1.8495,1.8333,1.8491,1.8582,1.877,1.8899,1.8934,1.8827,1.86,1.8273,1.7738,1.6761,1.6047,1.5556,1.5297,1.5229,1.5081,1.5394,1.6158,1.6479,1.6313,1.6012,1.5755,1.5326,1.4892,1.4767,1.4604,1.4114,1.3779,1.3695,1.3702,1.326,1.3251,1.3998,1.4354,1.4814,1.5269,1.479,1.4127,1.3856,1.3861,1.3248,1.2728,1.2135,1.1744,1.1384,1.0996,1.0814,1.0364,0.9901,0.9652,0.9442,0.8817,0.8218,0.8059,0.8149,0.7996,0.7687,0.715,0.6556,0.5982,0.5591,0.5358,0.5466,0.5798,0.5546,0.5303,0.687,0.8876,0.9275,1.0375,1.0923,1.1673,1.1736,1.2565,1.2795,1.2349,1.1157,1.0297,0.9805,0.9363,0.9235,0.9256,0.9354,0.9562,0.9873,1.0138,1.0454,1.0718,1.0675,1.0718,1.1023,1.1158,1.1158,1.1439,1.1783,1.229,1.2447,1.2768,1.338,1.425,1.4417,1.5455,1.6508,1.6777,1.6838,1.6396,1.7794,1.8691,1.898,1.9569,1.9244,1.8758,1.8623,1.8499,1.8471,1.8295,1.8425,1.8887,1.8626,1.872,1.9034,1.9032,1.8934,1.8987,1.8549,1.7737,1.674,1.6503,1.6411,1.6432,1.5741,1.5626,1.5868,1.6233,1.6115,1.5452,1.5141,1.5088,1.479,1.4531,1.4428,1.4275,1.4282,1.4411,1.4497,1.4084,1.4122,1.4882,1.5257,1.5589,1.5797,1.5181,1.4544,1.4105,1.3628,1.2933,1.2349,1.1659,1.1316,1.1249,1.1066,1.0877,1.0814,1.0415,1.0351,1.0231,0.9977,0.968,0.95,0.9248,0.9059,0.8521,0.7798,0.7254,0.675,0.6419,0.613,0.6548,0.7064,0.7269,0.7841,0.9524,1.1099,1.136,1.1621,1.222,1.1429,1.1491,1.1784,1.1976,1.1921,1.0939,1.0218,0.9769,0.9413,0.9361,0.9555,0.9666,1.0079,1.0498,1.0659,1.0871,1.1175,1.0922,1.0922,1.1251,1.1362,1.1722,1.2044,1.2457,1.3049,1.3434,1.3694,1.4123,1.5079,1.5226,1.5944,1.7024,1.809,1.8331,1.8383,1.8948,1.9056,1.9057,1.9183,1.9044,1.8203,1.8227,1.8326,1.8396,1.8154,1.839,1.8963,1.8494,1.8578,1.9182,1.9294,1.9643,1.9806,1.9531,1.8806,1.8019,1.762,1.6875,1.676,1.6339,1.6192,1.6298,1.6291,1.6174,1.5518,1.5405,1.5216,1.4925,1.4731,1.4852,1.5206,1.4851,1.4874,1.529,1.518,1.5233,1.5659,1.5739,1.5965,1.6049,1.5769,1.4418,1.3645,1.3255,1.265,1.2318,1.1713,1.1445,1.1302,1.1023,1.087,1.0996,1.0863,1.0919,1.0856,1.0717,1.0724,1.0559,1.0389,1.0172,0.9494,0.8637,0.8154,0.7742,0.7242,0.6932,0.7783,0.8683,0.9855,1.0978,1.2045,1.2704,1.2812,1.3042,1.349,1.0835,1.0944,1.1162,1.1284,1.1287,1.0695,1.0269,0.9961,0.9569,0.9621,0.9984,1.0131,1.0446,1.0964,1.1175,1.1326,1.1628,1.1326,1.1226,1.1554,1.1541,1.1808,1.2295,1.3109,1.3635,1.4106,1.4509,1.5029,1.574,1.6011,1.7048,1.8429,1.9214,1.9762,1.9978,2.0092,1.9826,1.9746,1.9703,1.9249,1.8595,1.8301,1.8228,1.8208,1.8168,1.8283,1.8466,1.8499,1.8484,1.9304,1.9867,2.0336,2.0489,2.0275,1.9743,1.934,1.8498,1.7706,1.7415,1.7358,1.7243,1.7163,1.6869,1.6408,1.5976,1.5932,1.5898,1.5725,1.5415,1.5914,1.636,1.5908,1.612,1.6539,1.6534,1.6594,1.6469,1.6627,1.6324,1.6426,1.5636,1.4319,1.3023,1.2803,1.2333,1.2103,1.1874,1.1639,1.139,1.107,1.0996,1.124,1.1303,1.1358,1.1399,1.1425,1.1509,1.16,1.1334,1.0918,1.0414,0.9591,0.9115,0.8731,0.8578,0.8598,0.9369,1.0317,1.1368,1.2466,1.3587,1.402,1.4179,1.4527,1.4892,0.9883,1.0077,1.0661,1.0809,1.0696,1.0729,1.059,1.0411,0.988,0.9984,1.047,1.0565,1.0812,1.1124,1.1377,1.1678,1.1877,1.1628,1.1628,1.1713,1.1846,1.1989,1.2483,1.3436,1.416,1.4633,1.5081,1.5687,1.6393,1.7248,1.8583,1.9813,2.0383,2.0871,2.1082,2.0979,2.0578,2.0205,1.9833,1.9336,1.8734,1.8561,1.8321,1.8267,1.839,1.8464,1.8475,1.8258,1.8533,1.9038,1.9562,2.0285,2.0599,2.0582,2.0631,2.0232,1.9168,1.8655,1.837,1.834,1.8244,1.8005,1.737,1.6915,1.6665,1.6672,1.6859,1.6938,1.6885,1.7422,1.7843,1.7888,1.7965,1.8001,1.7959,1.7803,1.7639,1.7382,1.6899,1.6374,1.5306,1.3987,1.2354,1.18,1.2287,1.2191,1.2061,1.2094,1.181,1.1191,1.1213,1.16,1.1732,1.1732,1.1888,1.2112,1.1989,1.2097,1.1626,1.1181,1.0815,1.0431,0.9843,0.9544,0.9888,1.0316,1.0932,1.1738,1.2613,1.3759,1.5026,1.5402,1.5599,1.5947,1.6348,0.9616,1.0028,1.0251,1.0747,1.1464,1.1818,1.1288,1.0123,1.0198,1.0462,1.0522,1.0718,1.0972,1.1276,1.1427,1.1828,1.1927,1.1877,1.1877,1.1991,1.2186,1.2471,1.3028,1.3812,1.4678,1.5229,1.5743,1.6425,1.7539,1.8524,1.9495,2.0557,2.1055,2.1429,2.1518,2.1318,2.0758,2.0298,1.9843,1.9304,1.8784,1.8444,1.8334,1.8472,1.8507,1.8605,1.8608,1.8566,1.8897,1.9401,2.0332,2.0957,2.0421,2.0721,2.0909,1.9685,1.9131,1.8935,1.9081,1.8752,1.8596,1.8829,1.8441,1.7827,1.7652,1.7756,1.8045,1.8081,1.8284,1.871,1.8926,1.904,1.9041,1.8954,1.8695,1.8295,1.7978,1.7373,1.6959,1.6455,1.5373,1.4026,1.2319,1.1942,1.2398,1.2278,1.2318,1.2416,1.2299,1.1725,1.1589,1.2042,1.2074,1.2066,1.2642,1.3,1.2696,1.2451,1.1989,1.1472,1.1114,1.0746,1.0294,1.037,1.0739,1.1475,1.2341,1.3203,1.4239,1.5263,1.6405,1.6704,1.7028,1.7325,1.7531,0.9677,1.0156,1.0357,1.0881,1.1616,1.2187,1.1592,1.0643,1.0761,1.0769,1.0667,1.082,1.1074,1.1377,1.171,1.2107,1.248,1.2403,1.2403,1.2447,1.2434,1.2512,1.3128,1.3844,1.4656,1.5434,1.6367,1.7136,1.8406,1.9674,2.0721,2.1188,2.1506,2.1704,2.1675,2.1175,2.0542,2.007,1.9556,1.9058,1.868,1.8362,1.8346,1.8429,1.8485,1.8586,1.87,1.8747,1.8965,1.932,2.0244,2.0576,2.0254,2.0761,2.0766,1.9768,1.9504,1.9581,1.9713,1.9542,1.9453,1.9441,1.9432,1.9026,1.8788,1.8874,1.8999,1.9101,1.9433,1.9741,1.9889,1.9946,1.9794,1.9661,1.9099,1.8526,1.7881,1.7217,1.683,1.6569,1.5564,1.4229,1.3338,1.2892,1.2466,1.2342,1.2671,1.3209,1.3017,1.2526,1.2422,1.2704,1.248,1.2395,1.3122,1.3709,1.3371,1.2989,1.2435,1.1981,1.148,1.1304,1.1144,1.1348,1.1687,1.2552,1.3477,1.4842,1.5969,1.6888,1.7713,1.8194,1.8402,1.8419,1.8598,0.9903,1.0428,1.0805,1.1115,1.1414,1.1939,1.1864,1.1477,1.1124,1.0972,1.082,1.0812,1.0972,1.1209,1.1742,1.2353,1.2706,1.2793,1.2793,1.2881,1.2635,1.257,1.2799,1.3348,1.4831,1.5804,1.6904,1.8118,1.9246,2.0271,2.1125,2.1684,2.165,2.1718,2.1731,2.0703,2.0029,1.9787,1.9535,1.9207,1.8823,1.8477,1.813,1.8182,1.821,1.8265,1.8166,1.8166,1.8274,1.8785,1.9329,1.9969,2.0416,2.0632,2.0449,2.0281,2.0001,2.0209,2.0316,2.0201,2.0099,2.0108,2.0037,1.9972,1.9877,1.9817,1.9847,1.9893,2.0159,2.0423,2.0608,2.0563,2.0452,1.9975,1.9336,1.8767,1.8046,1.7364,1.6751,1.6491,1.6079,1.4817,1.4096,1.3626,1.3331,1.2856,1.3127,1.3899,1.391,1.3534,1.3542,1.361,1.3223,1.3256,1.4066,1.4486,1.4039,1.3544,1.2997,1.2435,1.1935,1.1955,1.2052,1.2427,1.2806,1.3736,1.4714,1.6126,1.73,1.8033,1.8824,1.9651,1.9841,1.9726,1.9456,0.9834,1.039,1.13,1.1672,1.1647,1.2061,1.1957,1.1469,1.0972,1.0651,1.0411,1.0514,1.0616,1.0804,1.1551,1.2215,1.2666,1.2949,1.2997,1.291,1.2725,1.2889,1.3169,1.4165,1.538,1.6667,1.7929,1.922,1.9996,2.0758,2.1075,2.093,2.1019,2.1206,2.1427,2.0219,1.9589,1.9401,1.9359,1.9399,1.9317,1.8616,1.8173,1.8617,1.8867,1.8742,1.879,1.909,1.9134,1.9368,2.0069,2.0557,2.0917,2.0851,2.0677,2.0444,2.0557,2.077,2.0947,2.0807,2.0653,2.0688,2.076,2.0795,2.0819,2.0714,2.0657,2.0657,2.0823,2.1077,2.1239,2.1123,2.0933,2.0279,1.9628,1.8988,1.8269,1.7501,1.6673,1.6524,1.6376,1.5852,1.5097,1.4648,1.4213,1.43,1.4579,1.5019,1.5162,1.4989,1.5006,1.4914,1.4256,1.4366,1.5069,1.5368,1.5019,1.4434,1.3839,1.3124,1.2451,1.263,1.2946,1.3468,1.4029,1.5058,1.6216,1.752,1.8578,1.928,1.9827,2.0538,2.0962,2.0973,2.0514,1.0225,1.071,1.173,1.1964,1.1713,1.1851,1.1583,1.1059,1.0549,1.0174,0.9961,1.0112,1.0241,1.0498,1.1301,1.1918,1.2471,1.2842,1.2852,1.2813,1.3076,1.3362,1.4032,1.4927,1.6373,1.773,1.9466,2.0684,2.0758,2.109,2.1286,2.066,2.0536,2.0527,2.0694,1.9843,1.9223,1.903,1.9182,1.9393,1.9564,1.9042,1.8491,1.8905,1.8885,1.8829,1.8998,1.93,1.9361,1.957,2.0234,2.0608,2.0772,2.0564,2.063,2.0789,2.0932,2.1156,2.1415,2.138,2.1104,2.1222,2.1474,2.1548,2.1584,2.1544,2.1643,2.1655,2.1738,2.1978,2.1788,2.1635,2.121,2.0602,1.9835,1.9131,1.8297,1.7444,1.7248,1.7541,1.7491,1.7461,1.6835,1.6486,1.6052,1.5617,1.5961,1.5975,1.608,1.6042,1.6243,1.6141,1.5299,1.5285,1.5958,1.6244,1.6225,1.5532,1.4637,1.4054,1.3517,1.3644,1.3854,1.4738,1.5659,1.6699,1.7867,1.9165,1.9852,2.0469,2.0937,2.1401,2.1744,2.2109,2.2013,1.0687,1.112,1.1965,1.2016,1.1541,1.1374,1.1032,1.0488,1.0113,0.98,0.9566,0.9694,1.0012,1.0482,1.1133,1.1651,1.2147,1.2735,1.2745,1.2832,1.3339,1.3767,1.4546,1.5515,1.7397,1.9105,2.0804,2.1185,2.1218,2.1264,2.0957,2.0446,2.0182,1.9989,1.9805,1.9466,1.9011,1.91,1.9235,1.9396,1.946,1.95,1.8946,1.8614,1.8429,1.8602,1.8614,1.8839,1.9117,1.9522,2.009,2.063,2.0914,2.0797,2.1024,2.1213,2.1375,2.1593,2.1753,2.1932,2.1773,2.1758,2.2127,2.2262,2.2274,2.2554,2.265,2.2708,2.2795,2.2616,2.2432,2.2085,2.1577,2.1049,2.0226,1.9518,1.8583,1.7716,1.7939,1.8392,1.8657,1.8718,1.8482,1.8123,1.7736,1.7241,1.6989,1.6999,1.6915,1.673,1.6694,1.6534,1.5973,1.6252,1.6747,1.6703,1.6697,1.6253,1.5411,1.493,1.464,1.4998,1.5531,1.6496,1.746,1.8494,1.9575,2.0784,2.1371,2.1713,2.1795,2.2098,2.2454,2.2886,2.351,1.0534,1.1029,1.1362,1.1316,1.1064,1.0662,1.0406,1.0308,1.0033,0.9735,0.9509,0.9504,0.9718,1.0123,1.0787,1.1351,1.1968,1.2589,1.2793,1.2832,1.3823,1.4324,1.5197,1.6776,1.8894,2.0386,2.1301,2.1259,2.1202,2.0809,2.0156,1.95,1.9251,1.9052,1.8804,1.8643,1.8863,1.9153,1.9589,1.9837,1.9631,1.9475,1.9121,1.891,1.8815,1.8536,1.8375,1.8709,1.8857,1.9226,1.9888,2.0643,2.1056,2.1261,2.161,2.1876,2.2039,2.2073,2.2213,2.2274,2.2165,2.1934,2.2274,2.2825,2.3092,2.3739,2.3833,2.3866,2.3799,2.3454,2.3173,2.2871,2.247,2.1842,2.1152,2.0493,1.9727,1.8858,1.842,1.9198,1.9881,1.973,1.955,1.9267,1.892,1.8466,1.8137,1.8072,1.7356,1.7251,1.7137,1.6675,1.6347,1.6845,1.7118,1.6809,1.6715,1.6402,1.6186,1.5781,1.5843,1.6493,1.7203,1.8154,1.9292,2.042,2.1499,2.2284,2.2645,2.2899,2.2673,2.277,2.3196,2.3821,2.4622]}]]